GFSGBSN_prec_cthk_000.txt.gz
RH
20 21 19 17 20 28 32 47 57 70 69 51 48 39 50 50 42 37 25 28 33 40 45 47 47 49 57 57 58 50 49 46 46 51 56 56 54 51 48 46 45 49 44 42 42 41 41
16 20 23 20 20 19 20 25 34 45 74 71 56 51 48 51 48 40 32 26 30 37 44 47 52 53 50 53 49 55 52 52 52 54 53 53 52 51 53 53 50 48 48 46 44 43 42
19 19 18 21 23 20 19 22 21 33 53 76 71 58 51 53 54 45 39 28 30 35 39 44 48 52 52 48 44 42 49 49 48 49 49 48 49 51 56 55 52 51 51 48 45 43 43
19 19 20 20 18 23 24 23 21 19 40 68 75 68 59 61 57 51 45 39 35 37 44 46 47 53 50 46 43 44 43 47 48 48 49 49 49 49 52 54 56 58 58 59 47 43 43
22 22 23 22 24 25 25 25 27 24 25 47 69 75 68 63 72 57 51 45 38 40 40 47 50 52 49 45 46 43 42 42 44 48 49 48 48 48 50 52 54 55 59 60 58 54 52
28 26 26 25 25 25 24 24 26 27 26 28 51 78 76 68 76 74 60 53 47 43 41 43 43 49 43 42 43 46 45 46 46 47 48 48 49 50 52 54 56 54 59 55 56 58 57
28 26 25 26 26 25 26 24 25 28 27 27 30 59 77 76 71 79 68 61 55 52 45 37 42 39 37 41 43 44 44 44 47 49 52 50 53 51 49 50 50 56 62 65 62 60 60
32 38 38 40 35 29 26 28 32 37 29 22 26 39 72 84 81 81 76 60 56 46 47 41 40 40 41 42 43 44 43 43 48 53 54 55 53 49 50 54 59 60 63 63 60 59 58
39 38 37 46 45 42 35 32 37 35 39 34 24 36 71 85 85 85 77 71 58 52 47 39 39 41 42 45 45 43 43 47 51 56 57 56 48 46 53 59 63 65 67 67 64 57 53
31 34 41 41 42 44 43 43 40 45 48 47 32 23 64 88 92 91 88 77 65 58 57 44 44 41 39 44 45 41 45 48 55 56 59 59 53 56 60 64 68 68 64 66 67 70 73
33 38 42 45 49 48 55 62 64 65 60 68 46 26 48 84 97 93 85 83 67 58 69 50 55 53 52 44 47 48 50 52 58 58 60 57 59 64 68 67 72 70 68 72 73 77 79
41 41 49 54 56 59 62 82 85 84 76 70 53 30 63 96 99 94 92 90 72 67 68 61 60 63 61 54 58 61 58 57 59 62 63 64 67 71 74 76 79 82 82 82 81 82 82
42 41 48 52 66 62 71 81 88 98 87 77 62 36 65 98 99 96 96 87 82 73 57 61 58 60 61 61 62 60 63 67 67 75 73 68 59 62 68 80 85 86 87 94 95 92 78
41 45 53 51 69 71 73 90 86 90 89 85 68 47 72 85 98 98 96 91 85 60 58 57 55 59 61 61 60 65 66 71 74 75 72 69 65 61 65 78 85 88 88 92 85 89 80
44 44 55 50 67 71 81 85 88 94 98 77 63 82 94 95 98 91 95 91 69 53 57 59 58 61 63 64 63 68 72 70 65 68 71 73 73 66 67 80 89 98 97 75 85 78 91
41 45 54 46 65 66 76 69 85 90 98 95 85 88 92 97 99 98 93 81 66 53 54 56 58 57 62 62 69 75 70 59 65 58 66 75 81 68 76 79 81 92 91 98 97 96 91
47 50 54 45 57 67 76 68 80 87 99 82 85 89 95 96 98 98 95 83 68 59 55 58 58 62 58 63 70 72 64 60 58 62 68 80 82 78 85 79 83 94 92 95 89 92 87
49 51 49 51 56 61 64 66 75 87 97 89 84 83 91 95 98 98 95 80 73 65 62 63 61 59 63 70 77 78 77 62 66 72 79 82 88 87 82 80 79 74 75 80 83 73 78
53 55 46 57 62 55 59 74 73 91 98 92 98 97 97 97 97 89 87 83 73 66 65 62 64 64 67 73 78 82 70 61 70 74 82 88 95 97 95 93 92 93 87 82 81 86 75
54 56 50 60 66 57 49 68 76 92 93 94 98 98 98 99 91 87 84 83 69 68 69 71 73 70 75 79 84 77 70 69 73 78 86 91 98 97 91 95 97 98 93 90 87 86 64
54 49 46 58 65 61 50 74 78 90 95 98 97 98 90 90 94 88 83 78 75 79 79 78 78 75 82 87 87 79 71 72 80 85 93 97 96 98 96 93 98 98 95 81 80 71 70
51 47 50 60 68 51 55 77 90 93 94 98 97 97 90 89 93 90 85 85 86 87 91 83 80 82 85 92 85 73 69 72 78 85 94 97 97 98 97 98 97 90 84 78 70 65 65
50 51 44 48 65 48 55 78 95 91 93 97 98 97 87 93 93 83 75 83 86 85 84 85 85 86 91 92 88 78 70 69 77 91 97 98 98 98 94 95 91 84 71 73 69 68 64
46 54 33 44 62 51 46 75 94 95 95 97 96 91 89 93 88 83 86 86 84 84 84 88 87 87 90 92 87 79 67 65 71 77 90 97 99 99 96 98 98 91 84 74 66 67 69
44 43 42 30 48 54 43 66 86 94 97 97 98 98 91 92 89 87 90 90 88 88 89 88 83 79 85 88 92 81 72 66 67 72 84 91 99 98 98 98 88 88 92 81 76 73 72
39 36 44 37 43 48 44 58 76 89 92 98 97 98 98 95 89 85 88 92 94 91 90 93 95 80 83 98 96 81 75 70 70 70 77 92 92 97 94 96 77 76 89 88 83 90 72
36 33 36 31 32 41 44 54 72 83 93 95 98 98 99 96 90 86 88 90 87 85 89 96 88 85 93 98 97 92 80 70 73 73 75 83 90 90 86 84 77 68 74 77 80 71 68
35 31 35 32 32 35 32 49 68 80 91 93 98 98 98 96 93 92 92 94 87 79 88 97 90 94 98 97 98 96 82 74 75 70 74 76 79 80 82 83 73 66 70 72 63 59 67
31 33 34 35 31 34 33 43 61 76 87 90 95 97 98 98 94 89 94 89 88 89 95 91 88 96 96 98 96 95 90 82 77 77 73 76 70 71 74 70 68 66 66 62 58 58 59

GFSGBSN_prec_cthk_003.txt.gz
RH
18 18 18 18 17 19 16 16 18 22 47 51 67 73 61 41 60 51 46 37 27 33 39 42 43 53 62 62 60 54 54 47 48 53 57 56 53 48 46 44 45 50 44 43 42 41 38
20 19 21 23 22 21 23 21 19 17 17 32 48 65 68 58 54 58 48 42 28 33 40 44 46 51 56 63 60 57 53 53 52 55 54 55 53 52 51 51 50 49 50 47 45 42 41
22 23 23 24 25 22 25 26 25 20 20 18 28 50 69 71 54 69 54 47 34 33 36 41 42 50 57 55 50 48 54 54 53 54 53 55 55 52 54 55 55 54 52 48 44 41 44
25 28 23 26 26 27 26 25 24 24 24 23 19 47 70 73 65 67 68 53 44 38 39 41 40 45 51 53 50 49 51 50 49 48 48 49 51 52 53 56 56 56 56 56 47 45 42
24 26 29 28 28 27 27 26 26 24 26 27 25 30 61 69 75 66 74 61 53 46 45 49 45 44 46 54 51 49 45 48 48 49 50 50 51 50 52 51 51 51 51 55 49 47 47
31 32 29 27 25 27 30 31 30 27 27 27 27 25 44 72 76 74 82 74 60 54 47 46 45 43 39 45 47 48 46 45 44 47 51 51 50 51 50 50 46 48 55 50 48 46 48
33 40 34 37 37 31 27 29 30 28 37 34 33 27 25 50 82 82 91 83 77 58 51 40 39 40 37 41 42 46 48 50 50 50 51 51 52 52 47 46 43 49 53 55 51 50 52
32 35 39 41 41 45 46 38 34 35 31 34 32 32 23 40 80 91 87 84 71 57 52 46 44 43 43 41 41 44 45 46 49 51 51 52 52 47 49 50 51 52 54 53 47 50 50
35 38 38 37 36 42 45 45 44 50 53 42 48 46 36 31 75 88 86 87 79 72 62 48 44 42 42 43 44 43 43 45 45 49 49 51 46 46 49 53 54 54 57 54 55 56 51
38 36 36 35 35 39 47 55 54 67 80 73 63 63 50 29 53 79 91 84 94 77 71 49 47 44 45 47 47 44 44 43 47 48 50 50 46 50 53 55 57 59 58 60 62 68 64
34 34 35 35 40 43 52 61 71 79 82 84 75 70 59 37 47 84 93 93 89 76 70 54 56 54 50 47 45 47 48 48 53 51 52 47 51 54 57 60 65 65 63 65 70 76 76
33 34 35 36 47 50 63 65 74 89 92 97 80 73 70 42 49 96 98 94 97 92 75 64 60 62 59 53 56 57 56 55 55 56 58 56 57 60 62 63 62 62 65 69 70 77 85
33 33 32 38 54 53 67 69 74 83 95 97 84 73 67 56 73 94 99 99 98 94 67 65 61 65 63 62 64 61 64 65 64 67 66 61 62 62 59 59 58 64 77 84 88 89 78
35 34 37 50 55 55 69 69 68 89 91 94 96 68 55 46 74 98 99 99 97 80 73 58 54 62 63 57 61 64 64 65 62 67 70 71 62 58 58 57 62 66 77 85 92 89 80
36 38 47 56 55 55 69 72 85 78 92 98 89 65 50 49 80 99 98 98 89 77 70 65 60 62 64 59 59 61 65 64 62 68 72 68 65 58 60 63 64 79 80 71 97 94 96
37 43 56 58 51 65 65 62 70 84 90 99 96 76 69 52 91 98 99 97 84 77 67 63 61 58 61 63 66 65 64 60 62 59 63 68 70 60 68 72 71 74 78 84 89 96 93
40 46 57 55 57 68 68 64 64 80 84 95 97 78 60 75 91 98 98 97 85 80 69 65 61 62 61 63 65 69 64 57 59 62 67 70 76 73 77 79 73 82 86 91 94 97 92
38 46 55 54 65 65 68 65 56 74 89 99 99 92 86 90 98 97 97 84 78 80 76 69 57 56 60 60 66 66 68 65 64 65 74 74 82 83 72 71 77 81 83 88 93 86 85
36 43 49 57 69 67 56 51 58 66 90 90 96 97 91 90 92 94 89 83 81 86 76 68 60 58 61 63 69 70 72 70 68 68 75 78 87 89 81 84 85 96 91 90 88 91 81
32 43 45 58 68 69 40 46 59 73 91 98 99 99 96 94 94 92 89 89 87 87 78 64 63 60 65 71 68 73 78 70 68 71 76 84 90 87 83 89 98 98 92 94 98 92 77
35 42 45 48 63 69 54 61 70 82 95 99 98 96 90 95 97 87 87 87 92 91 73 68 71 71 71 77 78 80 78 74 71 71 81 88 91 91 93 92 96 97 92 88 89 78 78
36 38 42 39 56 71 53 67 86 95 98 99 99 96 92 93 96 87 86 85 84 78 74 78 79 78 78 82 74 75 76 70 66 75 89 94 94 95 93 94 96 94 85 78 72 72 68
37 34 37 42 54 60 50 68 86 87 90 96 99 95 89 93 95 87 86 82 76 80 85 89 84 83 85 80 77 81 77 72 72 78 85 93 95 94 89 93 98 96 85 77 72 64 65
32 31 33 41 53 58 47 60 75 85 90 92 97 99 94 95 90 90 84 82 87 84 87 90 86 86 82 83 87 88 80 73 74 73 82 93 97 97 93 97 98 97 88 80 71 60 64
28 34 28 35 31 54 51 48 68 84 95 97 99 99 95 92 88 84 87 85 79 83 85 87 88 87 82 85 88 90 83 75 68 68 77 86 96 96 98 98 93 78 85 84 71 70 69
26 31 29 32 30 40 48 45 51 76 87 97 96 98 97 93 85 82 84 89 91 91 90 91 93 93 86 85 95 95 86 69 72 69 75 84 92 95 97 96 93 75 88 80 80 81 74
19 25 28 29 32 33 44 47 47 64 82 90 92 97 95 94 88 82 82 87 93 89 93 91 95 90 86 91 97 98 90 80 74 68 75 80 85 89 90 92 83 75 80 83 79 78 74
16 20 20 20 20 26 38 44 50 52 72 90 92 95 97 95 94 86 79 80 86 83 81 87 89 87 90 95 98 98 93 84 75 66 71 72 80 81 82 84 77 74 78 78 70 71 73
15 15 18 18 18 23 27 40 44 47 62 80 91 94 95 97 96 91 82 82 88 78 78 87 88 86 91 97 98 97 95 83 77 74 69 75 68 69 70 67 65 69 70 67 64 64 67

GFSGBSN_prec_cthk_006.txt.gz
RH
21 24 24 23 27 23 21 21 21 16 15 16 19 43 54 65 65 52 63 57 45 30 32 37 39 48 55 62 64 55 53 50 52 57 53 53 51 47 44 42 43 45 37 40 39 38 35
22 24 25 24 27 27 29 28 27 22 17 15 16 21 37 60 64 62 63 65 50 35 34 40 43 44 56 60 61 66 61 57 50 64 61 60 59 57 52 48 46 44 43 42 40 39 38
27 27 29 31 30 30 29 28 27 27 26 23 21 21 20 42 64 67 66 69 58 39 35 41 45 47 53 57 59 61 65 61 62 65 64 58 60 55 54 53 52 47 46 40 39 39 39
29 29 30 28 31 31 32 31 30 29 29 26 26 26 25 27 48 76 68 76 65 46 39 39 39 43 48 53 57 58 61 63 62 61 61 62 60 58 56 56 54 51 50 47 42 42 40
33 33 31 33 34 34 32 35 35 32 29 28 28 27 27 23 44 77 72 84 79 58 48 45 44 44 46 48 56 59 62 63 61 58 57 56 55 54 55 53 51 49 42 46 42 40 42
34 34 36 39 38 41 36 39 42 39 32 30 30 28 23 25 36 82 79 89 90 67 56 51 49 47 41 42 52 60 60 61 62 59 58 56 54 52 50 51 40 37 44 39 35 36 37
35 34 34 37 41 43 42 47 46 45 46 38 35 30 30 28 26 84 83 86 92 87 63 44 39 41 41 41 50 56 57 56 59 57 54 56 54 50 43 43 40 38 40 40 37 37 37
35 36 35 33 41 42 44 47 42 48 46 52 63 48 50 42 27 63 92 87 91 89 76 53 48 44 43 42 46 51 51 52 54 54 56 54 52 44 44 44 45 43 44 41 39 40 39
36 36 35 34 42 44 47 44 48 55 59 74 86 72 72 50 42 52 90 89 88 92 79 73 54 49 46 43 44 45 47 49 51 54 53 47 43 40 46 47 47 46 47 45 44 42 42
36 35 35 35 41 48 44 56 56 69 71 90 92 85 83 63 41 31 63 96 99 97 96 78 64 51 46 44 44 44 46 46 47 45 47 44 43 47 49 49 46 47 44 47 51 52 52
37 36 35 34 47 49 56 60 61 73 82 90 89 85 81 72 63 46 76 87 98 97 97 82 70 58 51 46 44 50 50 49 48 45 45 45 48 51 51 47 50 52 53 54 54 55 55
37 37 37 46 49 56 58 54 65 79 86 88 92 94 72 70 60 62 92 98 99 98 96 84 71 63 56 51 50 53 54 52 51 50 50 47 48 49 51 53 57 56 57 57 57 60 67
35 43 44 47 58 58 51 59 74 74 81 84 87 90 80 62 47 51 93 98 99 97 86 86 68 65 59 58 58 54 57 58 55 62 60 55 55 55 56 58 56 57 61 63 71 74 52
41 42 50 49 55 54 56 68 65 69 80 90 98 88 63 43 49 69 98 99 97 88 78 76 67 62 61 58 65 60 61 62 59 60 59 60 54 54 53 51 52 57 59 59 57 52 51
35 40 47 48 49 57 60 62 70 67 77 91 98 82 57 46 43 73 95 98 94 80 78 76 76 68 67 59 61 62 62 59 56 59 64 64 59 51 52 55 58 67 76 64 78 68 89
38 40 48 44 56 61 56 62 62 60 78 89 98 83 58 55 59 86 97 98 92 84 79 76 74 59 58 59 59 58 59 53 55 55 54 60 66 52 58 63 65 70 73 84 93 88 80
39 40 44 41 60 60 51 52 54 61 70 89 97 85 88 73 79 91 98 99 92 86 81 79 75 65 54 56 54 56 55 51 52 54 60 64 63 65 69 70 64 78 84 91 90 87 81
37 41 44 42 59 57 47 44 53 58 73 87 97 86 69 84 98 98 98 97 92 86 81 74 69 64 57 56 58 57 56 51 51 59 69 66 70 74 67 62 69 73 81 86 96 93 94
34 39 39 38 52 62 46 35 50 61 73 87 97 79 66 91 99 98 97 97 94 89 85 77 73 66 59 58 59 54 55 56 58 64 66 70 80 78 67 75 77 84 81 86 97 97 87
34 37 36 37 39 65 54 44 62 73 75 89 97 90 73 91 92 91 87 90 90 88 82 73 69 67 63 58 55 59 62 62 64 63 67 70 73 77 72 78 80 94 86 87 89 84 75
34 34 33 34 37 59 51 51 75 85 94 98 94 81 74 88 86 87 85 83 85 81 77 69 65 60 56 57 61 64 67 68 66 68 69 76 84 84 81 84 87 94 93 88 81 69 76
34 33 31 31 28 44 48 56 73 88 96 98 89 81 81 87 85 81 81 81 83 85 79 69 65 66 63 62 63 70 73 75 70 69 77 81 84 91 92 89 88 95 91 83 74 71 62
31 31 31 31 26 42 48 47 59 82 93 96 86 86 91 93 87 81 85 86 81 75 76 72 71 75 75 75 75 77 75 76 73 75 78 82 89 93 88 83 83 92 91 81 76 68 66
25 30 28 27 27 34 45 42 53 70 80 89 87 88 89 93 89 83 81 80 72 73 82 82 83 83 83 81 80 81 80 83 78 71 73 82 93 97 95 88 92 86 85 85 78 71 67
26 23 23 22 26 29 39 40 45 60 76 85 86 88 92 91 87 82 77 79 83 83 83 87 89 88 82 78 80 83 88 77 69 69 72 81 90 96 97 97 81 78 82 85 84 77 74
27 24 22 16 18 19 32 36 43 46 65 81 85 85 91 92 87 83 81 81 78 77 84 88 91 91 86 81 84 92 82 69 64 71 74 79 89 94 94 96 87 79 81 87 90 81 78
27 26 22 21 14 18 24 34 38 39 54 75 83 87 93 89 80 80 81 83 87 88 94 97 97 96 92 87 91 92 85 76 75 67 72 79 88 89 91 90 77 77 78 85 77 81 77
26 27 24 17 10 10 14 19 31 35 43 63 79 85 87 84 82 80 79 80 90 85 84 90 93 92 90 92 90 90 87 78 80 69 67 69 79 83 80 80 79 69 75 73 72 73 74
26 26 26 17 14 13 14 14 23 37 42 53 76 81 86 87 86 83 81 78 81 79 81 82 89 88 89 92 92 93 89 81 79 72 70 72 68 69 67 63 62 67 68 68 68 69 73

GFSGBSN_prec_cthk_009.txt.gz
RH
19 19 20 23 24 29 30 32 28 23 21 19 18 16 16 21 42 61 62 67 76 63 44 34 35 39 55 70 69 58 55 53 48 56 54 50 48 46 44 39 40 41 39 33 35 34 36
21 21 23 27 27 32 31 32 31 29 25 23 21 18 17 16 28 51 63 61 77 71 53 36 39 41 54 64 63 69 62 56 55 59 62 58 55 52 49 46 42 43 41 40 39 38 41
24 25 27 24 29 30 31 27 29 29 30 24 21 23 18 16 15 38 54 64 65 74 52 40 43 46 52 62 60 62 69 65 58 63 71 65 61 60 56 51 48 45 43 39 34 36 40
32 33 32 32 32 31 36 36 37 37 34 30 26 22 24 18 15 20 42 66 63 76 62 45 45 51 53 53 60 59 69 71 66 66 72 66 64 65 60 57 50 47 46 43 38 38 37
33 34 33 34 40 41 43 43 48 44 40 35 33 34 28 23 20 17 32 66 68 83 72 51 47 50 51 49 58 61 66 70 64 65 69 70 71 65 59 55 49 49 46 45 44 40 41
34 34 34 36 43 38 41 51 50 45 43 44 44 34 32 29 25 21 34 62 80 93 83 68 55 54 46 45 55 62 66 72 66 64 62 64 65 62 59 55 51 48 48 42 37 34 37
35 35 34 33 36 41 44 49 52 54 54 57 56 53 50 39 41 28 33 68 91 96 94 78 51 48 48 47 48 57 66 71 70 66 63 65 63 60 53 50 46 42 39 35 33 33 31
30 34 35 35 38 41 48 55 58 63 64 67 68 76 75 67 65 46 32 89 94 87 98 91 57 52 50 46 50 54 62 68 70 66 64 66 61 55 50 47 45 42 40 37 33 32 32
33 36 36 38 41 46 54 60 70 69 70 76 80 92 86 85 72 48 47 90 94 98 97 93 72 55 51 48 48 50 59 65 65 60 59 60 52 48 47 46 43 40 40 38 39 37 35
37 37 44 43 45 52 60 75 68 66 77 86 90 90 88 84 70 58 56 92 98 94 96 96 89 58 54 50 48 47 54 57 56 57 58 56 50 47 42 40 40 41 39 41 41 46 45
37 46 43 48 49 58 63 72 64 76 82 85 86 86 84 75 69 63 80 93 98 97 97 97 93 75 58 50 49 51 50 52 51 49 50 49 43 44 44 40 43 44 45 45 46 52 51
38 45 39 45 47 57 64 70 69 75 80 81 81 88 91 82 61 59 83 98 97 99 97 97 90 81 62 53 52 54 53 50 49 47 47 44 46 43 43 43 44 48 51 53 52 60 60
38 44 40 45 43 61 68 71 71 69 71 74 88 94 98 89 48 60 79 96 98 93 93 93 88 84 70 57 57 56 57 55 50 59 54 49 46 48 45 49 53 56 60 59 67 72 52
37 41 39 47 44 67 69 65 65 63 67 76 87 96 87 81 51 58 91 98 96 89 89 82 83 82 73 60 57 55 55 56 50 48 51 56 59 51 54 53 51 54 55 52 50 46 41
37 40 40 47 49 63 63 56 51 56 65 73 76 83 75 54 44 68 95 92 87 87 82 81 79 78 74 65 63 58 53 54 49 51 58 55 57 50 50 47 50 58 63 56 68 61 69
37 38 38 40 47 60 61 46 49 52 61 75 81 79 73 55 49 82 93 97 97 82 77 76 78 68 68 63 66 62 57 53 54 53 53 56 59 49 51 53 54 58 61 77 85 80 67
37 32 36 38 45 52 60 32 55 63 65 66 81 81 87 65 69 77 95 99 95 78 78 79 74 66 60 59 61 62 59 54 53 53 52 52 53 59 59 59 57 68 73 83 79 84 85
36 32 34 34 45 55 55 38 60 66 73 80 85 84 88 62 82 94 97 99 93 82 83 78 77 68 56 53 55 56 56 50 50 51 55 56 61 63 59 58 62 64 73 77 92 81 87
33 31 31 34 39 47 43 44 61 74 86 92 74 77 72 68 81 93 97 95 86 92 92 86 78 73 64 56 58 53 51 52 49 52 57 64 67 70 70 67 67 70 72 75 85 92 83
32 30 29 33 32 39 37 52 67 78 90 97 69 71 80 86 91 87 98 97 91 93 88 83 78 71 62 59 56 53 54 55 54 57 65 63 66 71 65 69 70 87 84 86 94 92 73
29 32 28 27 35 42 39 48 70 84 88 85 75 62 88 91 89 93 93 92 94 91 85 77 72 70 68 65 58 56 56 58 60 64 63 67 80 77 74 75 82 86 87 86 93 87 85
30 26 28 23 32 35 42 40 59 75 86 77 63 76 87 86 85 86 83 88 88 86 79 72 65 61 61 61 62 64 62 62 64 68 69 75 82 84 84 81 83 86 81 84 82 77 76
32 26 24 21 24 28 38 38 46 69 76 62 71 82 88 86 79 80 80 79 81 81 78 71 65 67 65 66 65 63 65 65 68 71 74 82 87 90 83 76 78 86 84 86 83 82 79
33 28 25 19 16 21 30 38 36 53 68 61 68 76 80 84 74 72 75 77 76 76 76 74 70 73 74 73 70 70 72 74 76 75 78 82 87 94 93 86 89 76 77 82 86 84 80
35 30 25 20 17 16 22 32 36 38 57 63 61 68 72 74 73 72 74 80 74 71 75 81 78 79 77 75 73 73 81 81 69 70 77 76 86 94 95 87 73 80 77 85 94 83 84
37 33 25 19 14 9 12 16 29 31 42 62 66 68 72 77 69 68 72 75 76 76 78 80 83 83 81 78 78 84 85 71 70 76 75 74 80 92 88 94 86 77 75 77 83 82 82
37 35 32 21 16 13 8 11 11 27 33 49 69 68 75 74 75 72 71 75 75 76 88 90 93 93 87 83 84 90 90 78 74 73 73 80 85 87 89 93 77 73 72 75 76 75 79
38 36 35 30 19 16 15 15 15 17 30 38 62 69 72 76 72 75 77 78 81 85 90 92 90 93 90 88 90 92 93 80 76 72 75 69 74 79 83 86 81 68 69 72 69 71 77
39 39 37 34 27 21 19 19 16 16 19 37 53 71 75 79 75 75 77 78 81 87 88 85 89 90 89 91 91 91 92 83 75 75 72 71 60 66 65 66 64 69 70 67 69 68 72

GFSGBSN_prec_cthk_012.txt.gz
RH
21 21 23 25 27 30 27 32 31 32 33 31 27 27 23 20 18 17 26 43 50 67 76 65 39 37 48 63 62 58 60 56 53 56 47 42 39 38 39 36 35 38 35 33 30 28 31
24 28 32 31 27 28 31 36 33 33 33 34 32 31 30 27 21 18 18 36 60 58 88 74 43 42 47 62 66 67 62 56 60 67 61 56 49 46 47 45 46 44 43 40 36 33 33
27 31 32 34 33 37 40 40 44 50 46 42 37 33 31 30 29 27 18 32 56 66 70 79 58 45 49 56 59 59 63 63 62 65 70 67 60 53 49 50 50 48 47 42 37 32 33
32 33 34 35 43 41 42 43 49 53 58 58 53 43 32 31 31 25 26 25 43 64 67 84 64 58 56 48 54 56 64 81 67 65 79 76 68 61 56 53 50 47 48 47 32 31 32
29 37 36 36 35 36 39 43 49 59 63 61 58 54 54 41 32 28 25 21 37 57 70 89 69 53 58 47 51 56 63 68 71 82 81 79 71 68 61 57 53 51 51 48 44 38 37
37 35 34 36 38 40 40 48 52 61 68 70 64 60 57 55 44 32 32 23 39 67 81 87 72 60 49 47 46 54 63 71 74 77 76 75 71 64 59 58 57 51 55 50 46 43 37
31 35 38 41 43 43 46 54 60 70 75 70 66 71 75 77 61 51 53 37 46 61 77 87 80 57 47 46 46 52 63 74 74 75 72 70 70 67 61 57 55 54 53 50 46 39 35
35 39 43 45 45 48 50 59 67 76 67 70 78 80 86 90 86 75 66 48 64 71 87 86 78 62 53 48 48 52 60 67 75 77 73 72 67 60 57 56 53 53 53 49 42 36 34
38 39 46 43 44 45 55 62 65 67 68 79 83 86 85 85 88 78 67 49 73 96 91 84 92 78 57 50 51 51 54 64 75 78 78 72 62 58 56 53 51 49 49 44 41 38 34
39 39 43 42 45 45 60 61 64 69 76 78 78 81 82 85 78 91 65 60 87 98 93 98 96 81 61 56 53 54 60 62 74 79 75 69 63 57 52 51 45 45 41 42 40 42 45
42 38 42 39 46 47 63 62 66 69 75 74 72 74 85 86 79 82 72 75 94 99 96 96 97 88 62 57 54 57 57 64 71 72 69 63 58 57 54 45 41 43 44 42 43 46 48
39 37 41 40 46 53 55 56 58 63 64 59 67 81 91 98 84 64 73 92 91 98 97 97 94 92 73 64 57 54 56 59 61 59 60 57 51 45 42 40 41 44 46 45 47 50 60
33 40 40 38 39 52 51 53 46 56 58 64 71 81 85 94 90 62 84 97 98 98 97 96 92 90 77 61 61 56 56 55 54 61 57 49 46 43 42 44 45 49 53 66 69 70 57
33 39 40 34 40 44 48 49 39 48 53 63 78 86 91 94 77 54 81 93 98 90 95 86 93 93 82 63 63 60 58 58 52 50 53 57 57 46 47 47 52 54 56 61 60 60 52
37 34 38 35 37 40 47 44 39 59 64 68 81 90 70 75 67 45 68 96 97 93 83 86 94 97 92 74 62 63 62 56 52 48 57 58 59 49 51 49 52 58 62 48 61 54 64
41 31 32 35 39 40 47 36 55 70 84 87 87 87 64 71 54 57 85 94 92 97 86 82 80 80 82 74 63 62 61 52 49 48 50 56 62 51 53 51 52 54 50 69 74 79 65
39 36 33 36 36 33 43 40 65 83 94 89 75 80 69 73 77 79 91 95 86 93 84 83 75 69 69 71 62 60 56 53 51 51 53 54 56 61 58 58 53 58 64 69 73 78 83
38 40 31 31 33 35 40 50 67 87 97 93 71 77 69 73 85 91 97 96 98 90 86 77 74 63 62 59 65 63 60 57 54 56 56 55 59 68 61 53 56 60 68 70 84 78 82
38 36 36 25 32 34 38 48 72 89 96 85 66 69 60 71 89 87 95 97 94 86 87 80 78 72 57 59 64 60 59 55 56 55 55 54 65 70 72 66 65 68 68 72 78 80 82
36 33 31 25 25 31 35 43 68 82 83 54 61 58 61 71 80 89 97 97 97 93 85 80 75 72 67 63 62 61 60 57 52 53 54 57 63 65 69 71 69 82 78 78 83 90 80
36 32 28 27 20 26 32 41 61 70 71 59 64 70 74 77 86 87 95 96 95 93 85 78 77 74 69 66 61 62 57 58 56 57 61 63 71 67 72 68 70 77 81 82 89 90 91
37 33 30 24 18 19 24 41 50 58 57 67 75 72 76 79 88 96 91 95 88 83 80 74 72 70 69 69 65 60 57 58 60 62 63 64 75 81 81 73 76 83 80 78 80 84 91
39 34 32 28 22 16 18 34 39 52 60 68 71 74 78 71 74 75 78 77 81 78 78 74 72 67 68 72 67 65 65 65 66 64 68 76 84 85 83 73 78 86 83 88 88 90 91
40 36 35 31 21 16 6 14 31 38 54 61 68 72 72 67 65 65 67 69 73 76 76 71 64 69 71 65 67 68 69 69 66 67 73 78 84 88 91 86 88 75 77 78 82 84 83
42 37 36 34 29 20 14 5 14 32 39 56 58 64 66 66 58 58 64 65 66 68 70 73 70 72 73 70 70 69 74 75 70 74 76 78 86 92 93 90 75 76 77 75 82 83 77
43 39 37 36 34 30 24 12 6 12 30 43 61 61 66 70 60 63 64 66 71 69 72 77 77 76 75 75 72 76 81 73 80 74 74 81 84 85 86 91 85 75 74 73 79 85 75
44 41 40 38 35 35 31 26 12 12 12 30 57 65 67 70 69 66 64 66 67 72 78 83 85 85 82 79 78 83 81 75 78 80 83 83 84 84 88 90 78 68 70 72 80 75 73
46 44 42 40 38 37 33 31 24 16 16 13 34 63 68 69 72 73 74 71 72 74 83 88 87 88 88 85 83 85 86 81 77 74 79 79 79 81 85 88 83 66 69 73 70 73 72
48 47 46 42 39 38 35 34 33 23 19 18 19 40 67 71 72 76 75 76 80 82 87 86 90 87 89 88 88 87 88 85 79 80 74 77 70 71 70 69 63 64 66 69 69 72 71

GFSGBSN_prec_cthk_015.txt.gz
RH
28 28 28 32 31 34 37 41 41 40 41 45 44 42 39 35 32 31 31 24 29 52 59 82 85 57 43 48 46 52 56 53 50 46 33 35 39 41 40 34 35 37 35 35 32 30 32
32 31 32 37 38 43 40 42 39 45 51 51 53 55 45 40 36 34 31 30 25 49 64 65 89 66 50 52 51 57 56 60 61 58 49 46 39 41 41 39 40 38 37 38 35 33 31
31 38 39 36 37 37 35 36 39 45 47 59 65 62 56 51 41 36 31 25 22 36 62 65 83 83 54 46 58 61 60 55 60 65 65 63 58 49 48 44 45 44 43 39 35 30 31
36 37 32 35 39 40 38 37 40 50 60 66 72 75 69 62 52 41 33 28 24 24 61 71 89 84 64 43 53 56 69 67 64 64 70 71 68 59 51 51 45 45 44 48 33 32 31
35 34 35 38 44 40 39 46 51 58 68 76 81 82 75 66 58 48 40 27 22 19 61 83 81 75 70 52 49 55 61 63 73 74 78 82 78 70 65 57 52 50 52 48 43 35 36
38 39 41 42 43 38 40 44 56 61 70 75 74 68 71 76 75 69 55 40 30 20 74 82 81 85 64 57 55 53 59 65 80 90 83 88 82 75 68 65 60 52 54 47 45 41 43
41 39 39 43 41 37 40 47 51 58 62 65 65 73 76 78 82 84 72 51 31 37 56 87 73 78 67 55 56 59 61 70 70 72 77 81 85 77 71 64 60 56 53 49 44 41 37
41 43 41 41 39 37 45 45 50 54 57 62 66 69 74 76 78 84 77 63 48 58 72 81 86 85 66 57 58 61 64 65 70 74 71 72 71 68 72 70 64 59 56 53 47 43 41
41 40 39 41 37 40 44 45 49 55 55 58 61 65 72 81 79 77 80 68 56 72 90 95 84 84 80 59 54 61 60 63 72 75 73 75 68 62 68 67 64 61 58 55 49 41 37
47 39 38 40 36 39 41 44 51 53 53 60 58 62 72 84 87 77 78 63 65 80 97 95 84 90 83 61 59 61 63 63 66 73 77 75 68 65 65 67 63 61 52 48 46 44 45
43 40 39 40 31 40 40 46 51 49 53 55 59 70 86 96 96 75 80 63 98 84 97 98 90 91 80 63 57 64 66 59 62 66 70 74 71 67 67 63 60 55 48 44 43 45 44
44 40 37 38 36 39 41 47 51 44 53 59 68 84 93 97 94 78 65 70 89 97 97 98 82 77 87 75 61 62 65 60 59 61 72 72 68 66 67 61 54 50 46 43 43 47 57
43 41 36 38 37 41 44 50 45 51 63 67 75 90 93 94 90 65 66 88 93 97 99 89 86 90 86 76 64 63 60 59 62 71 77 69 66 62 56 53 47 46 47 60 61 62 55
43 36 34 38 39 37 34 43 46 77 92 97 90 87 64 90 79 60 78 95 97 98 94 86 94 91 83 72 70 62 59 60 58 59 66 68 66 54 47 47 47 50 48 60 60 66 56
44 37 36 37 38 29 40 45 67 89 97 95 75 62 83 75 55 73 89 96 97 99 94 85 94 97 91 77 66 63 58 55 53 51 55 62 60 53 51 49 49 55 59 52 59 54 62
44 35 40 30 39 34 40 51 74 84 95 86 66 58 69 66 59 75 93 98 97 97 96 88 89 85 87 77 62 60 59 51 50 47 51 53 60 53 55 52 51 53 50 61 64 70 69
44 37 33 28 32 33 35 49 73 77 78 67 57 52 68 66 73 85 98 96 98 94 91 86 80 80 80 77 65 60 57 51 52 50 51 50 55 63 60 58 55 56 59 60 63 72 78
45 37 30 30 28 27 34 51 64 59 55 57 54 68 82 87 92 95 99 98 97 91 89 81 72 70 78 78 72 63 58 53 51 52 54 56 62 70 61 53 51 53 59 68 76 72 78
49 38 30 26 19 25 34 46 56 44 52 48 47 73 84 91 97 96 94 93 96 95 88 77 71 67 65 69 66 60 60 56 54 57 57 57 63 68 64 60 59 64 69 71 75 80 75
51 41 28 26 21 22 35 38 57 50 48 39 50 67 74 80 90 95 94 93 95 87 85 79 75 65 66 67 62 65 66 59 58 60 56 56 62 63 65 65 66 75 74 77 79 88 78
53 46 28 25 25 14 23 31 43 55 51 51 56 67 71 81 83 90 95 95 85 81 73 75 74 72 69 66 63 64 62 60 57 58 57 60 69 66 61 64 68 73 77 77 84 83 91
57 50 34 24 24 17 12 24 34 47 47 55 61 67 70 72 78 79 81 87 84 79 78 73 71 73 68 64 60 58 55 57 57 58 60 63 68 71 74 70 78 84 79 83 82 82 81
57 52 44 33 23 23 10 13 25 36 49 54 64 66 68 65 70 71 69 71 72 72 70 71 67 70 75 74 66 60 56 54 56 59 63 69 75 78 79 76 81 87 82 78 78 78 80
57 53 48 41 32 24 20 9 13 25 41 56 61 63 65 63 61 61 64 65 68 68 67 66 61 66 67 64 67 62 61 65 65 67 65 73 78 82 89 88 88 76 73 74 77 77 77
57 54 49 44 41 37 25 19 10 12 23 43 55 61 65 67 63 57 60 63 66 66 66 64 62 62 67 66 67 71 74 74 72 70 69 71 77 86 92 93 78 76 79 77 77 74 74
59 56 50 44 42 42 40 28 23 14 9 19 52 58 61 68 65 65 60 62 66 65 62 66 66 65 67 71 68 72 77 72 80 73 72 75 80 88 89 90 86 78 73 73 75 76 72
62 58 52 44 44 44 43 41 34 26 14 12 22 49 60 63 65 68 66 66 66 68 69 70 71 71 71 71 74 75 74 72 80 81 84 79 86 87 83 87 77 67 69 75 77 68 72
66 64 57 46 45 45 44 42 40 40 28 19 17 21 43 61 62 68 69 71 69 69 74 77 78 81 81 80 76 76 78 77 77 77 84 81 85 85 85 87 81 67 71 76 69 69 71
73 69 62 52 48 49 48 44 46 40 32 31 21 24 22 35 59 65 71 75 79 79 81 82 86 83 79 82 81 82 80 79 80 82 75 85 77 81 76 71 62 65 67 68 69 67 70

GFSGBSN_prec_cthk_018.txt.gz
RH
30 32 38 37 35 38 35 36 37 38 39 47 48 60 70 62 55 48 43 33 31 23 35 56 63 89 68 57 42 53 47 48 47 40 36 34 38 39 38 35 34 35 33 31 27 26 28
31 34 34 32 37 41 40 39 37 41 43 51 61 77 78 74 64 60 49 42 30 21 29 55 67 85 83 63 43 50 59 62 56 46 37 35 42 40 38 36 38 38 33 32 30 30 30
34 36 36 38 43 45 40 38 43 44 48 55 65 76 80 79 73 64 49 42 34 26 17 52 72 85 95 64 58 54 58 70 72 65 48 41 44 44 40 40 41 42 41 38 34 30 32
35 39 41 45 45 43 38 39 37 40 45 54 61 67 68 69 67 65 54 42 32 26 15 53 77 79 78 76 63 66 60 64 65 70 65 59 57 51 44 45 45 44 43 46 35 33 31
40 44 40 47 42 43 38 39 42 44 49 52 56 60 61 65 64 64 62 52 33 26 19 48 77 85 77 79 62 66 70 68 67 67 70 75 72 64 55 49 50 51 53 48 39 33 32
47 47 47 46 43 41 41 40 43 48 52 56 57 62 66 68 69 71 74 62 44 31 19 43 78 88 75 76 63 64 72 75 74 82 85 85 84 75 68 58 58 49 52 46 45 40 40
47 49 49 44 44 40 40 40 45 51 61 58 58 59 66 72 76 71 73 71 52 30 28 57 78 75 81 78 65 64 71 73 82 89 94 89 85 85 74 70 57 55 56 52 45 41 39
47 47 47 44 44 40 41 40 49 55 62 56 63 69 69 74 78 75 74 71 58 54 38 66 89 78 75 73 69 68 75 71 82 91 92 91 90 87 82 74 68 63 62 56 50 47 43
50 48 46 43 43 42 42 38 48 62 69 58 61 66 71 78 87 88 75 74 58 59 47 98 97 81 88 75 63 71 79 72 74 77 80 81 77 81 77 71 69 63 59 57 55 51 45
52 51 50 41 41 41 43 42 50 63 55 69 66 68 80 94 95 90 74 71 59 60 77 98 91 86 93 76 67 71 78 71 77 77 74 71 62 63 69 67 64 65 58 55 54 51 52
52 51 42 40 41 39 43 42 52 62 61 78 79 82 87 98 98 96 74 62 84 62 84 92 94 96 92 74 62 75 78 69 70 72 74 75 67 66 66 65 62 62 57 53 50 51 48
53 50 45 40 40 41 33 44 56 64 86 94 87 91 86 96 94 89 63 72 67 89 96 92 97 89 95 80 69 73 75 66 67 68 72 70 70 71 68 64 58 59 58 55 51 50 56
56 48 44 41 33 36 38 46 57 75 86 94 89 84 82 94 85 68 65 71 87 96 98 93 91 85 91 77 71 72 73 66 69 74 81 70 72 70 66 65 61 57 58 57 54 61 50
58 47 41 41 31 38 39 50 64 68 76 74 71 77 70 77 64 69 80 84 94 96 98 84 78 90 87 79 73 73 70 67 62 61 66 79 82 72 63 57 55 52 48 52 48 62 56
59 48 38 39 32 38 35 51 50 62 62 54 74 63 68 62 64 87 91 92 97 98 97 86 86 84 90 86 74 68 65 64 60 63 69 76 67 59 54 48 44 52 58 52 59 57 62
54 51 39 32 23 31 40 45 47 57 43 42 52 48 61 74 85 86 92 98 96 91 88 76 83 91 91 82 71 65 63 53 56 57 55 54 62 53 52 50 52 54 53 61 62 62 63
51 49 39 30 23 32 43 36 42 44 51 46 46 62 75 83 88 94 97 96 96 92 88 85 80 82 84 75 68 61 56 51 48 47 49 48 51 56 56 56 57 59 61 55 58 65 73
52 45 36 32 15 29 35 34 32 43 51 59 65 73 82 88 94 97 98 99 92 95 85 79 74 77 83 79 67 57 58 51 49 47 50 49 54 63 60 56 53 53 57 60 69 67 80
53 45 37 33 17 18 28 35 30 34 45 50 58 61 67 78 85 95 93 90 91 84 78 70 68 69 75 72 71 62 55 51 51 51 51 48 57 65 62 59 57 60 61 65 70 78 83
60 49 39 32 29 13 25 28 37 34 41 46 53 56 59 67 73 78 84 86 80 78 75 63 64 65 69 67 60 64 57 56 54 55 53 54 60 58 62 60 61 69 70 72 79 85 76
65 56 41 35 33 15 17 24 35 41 39 43 50 60 69 68 69 72 71 73 73 73 73 69 67 63 65 67 63 63 61 59 58 59 57 55 62 66 64 61 65 71 73 74 79 73 76
64 65 46 42 34 21 14 17 26 41 44 48 54 61 62 64 67 68 68 70 67 63 69 72 72 71 67 65 61 62 60 60 59 59 57 58 69 67 65 61 69 75 75 77 75 74 73
70 70 52 46 38 30 20 14 16 28 44 50 54 57 62 61 64 64 63 66 70 66 65 70 70 72 74 71 63 57 53 53 55 57 60 63 70 70 69 68 77 81 77 77 75 73 74
77 70 59 51 44 38 30 20 14 14 29 49 54 58 58 59 59 61 59 61 63 64 63 67 65 62 66 71 69 63 60 59 60 61 62 69 71 75 75 80 86 73 71 72 73 71 72
92 80 68 54 47 44 39 32 24 15 13 29 49 52 58 58 56 52 58 59 60 61 63 63 64 63 65 64 68 74 73 69 70 69 69 67 71 77 82 90 77 73 76 76 76 70 66
95 89 72 56 52 48 48 44 37 31 18 15 24 40 52 54 53 58 56 55 59 61 62 63 64 61 62 68 69 70 73 71 79 79 76 69 70 81 88 92 84 75 74 74 72 76 66
96 87 75 59 54 48 54 51 50 43 36 25 23 20 31 50 54 57 60 59 59 61 63 62 64 65 67 70 73 74 76 73 81 78 81 77 77 83 88 86 75 68 68 73 76 68 68
95 88 78 64 60 50 52 53 52 55 52 44 35 28 23 30 32 56 61 62 65 67 67 65 68 73 77 74 74 74 75 77 78 76 81 82 83 87 88 86 80 70 74 73 69 70 68
95 88 80 76 66 56 55 56 53 50 50 51 48 42 35 31 20 32 54 63 67 73 75 72 72 75 76 81 79 79 78 77 82 75 77 84 76 79 82 73 65 66 65 64 69 68 68

GFSGBSN_prec_cthk_021.txt.gz
RH
44 44 40 41 45 50 52 45 43 37 34 38 42 54 57 68 79 85 84 68 55 37 28 23 56 63 93 83 59 61 59 43 41 43 37 40 41 38 37 35 32 34 35 32 30 27 27
44 47 46 46 51 54 50 46 39 33 38 43 51 54 57 58 70 76 82 71 60 41 32 25 50 64 80 92 71 54 72 70 53 57 46 39 40 38 36 35 36 35 31 30 30 28 26
47 45 46 48 53 50 48 44 42 36 41 48 57 55 54 52 56 61 66 71 53 46 37 29 40 64 77 88 74 53 67 75 74 62 45 42 41 44 42 37 39 36 38 34 29 28 30
47 51 53 52 55 52 46 44 40 38 46 52 58 62 57 55 58 61 62 61 56 44 36 28 44 74 63 70 82 62 74 83 86 81 56 44 51 50 45 42 42 43 41 44 33 31 30
46 52 54 53 53 53 49 42 42 43 50 67 70 64 65 64 66 68 66 65 62 38 37 29 42 79 97 82 80 75 79 86 91 96 87 59 61 56 49 49 50 49 51 45 36 33 34
49 51 56 54 55 49 46 42 43 47 53 68 75 69 69 68 74 76 71 68 66 44 39 29 51 85 90 85 82 77 77 78 77 87 91 86 78 72 61 58 55 50 48 45 42 35 36
51 55 57 55 51 48 45 44 44 48 64 75 77 63 71 74 80 77 74 71 68 52 42 38 58 79 68 80 82 78 90 80 81 85 86 86 87 76 66 59 53 49 48 48 40 36 36
54 56 62 57 50 47 43 46 51 61 70 73 60 63 73 71 77 89 85 75 72 68 38 47 88 85 95 80 79 84 85 89 93 96 90 94 93 84 77 72 66 59 58 57 46 40 40
53 55 59 55 47 46 46 48 46 59 74 75 78 80 79 84 93 92 83 77 73 58 50 48 74 86 93 85 77 81 81 91 84 94 93 95 90 89 94 82 75 70 65 56 52 47 44
55 57 58 55 45 43 45 47 57 63 79 82 91 91 88 92 94 98 86 77 69 51 50 69 88 81 88 88 75 75 83 84 82 89 96 94 86 92 87 82 75 69 60 55 54 52 54
57 60 54 53 41 42 45 43 59 67 79 88 94 98 83 90 98 98 79 72 74 52 64 88 88 86 84 80 71 78 87 81 84 82 87 94 84 83 88 82 72 64 58 56 54 54 51
63 62 52 49 38 42 36 48 54 62 71 79 80 78 86 92 93 88 65 57 64 66 97 99 90 87 92 83 73 86 87 80 82 84 80 76 70 64 65 67 65 63 61 59 58 54 59
68 61 53 41 31 34 36 45 48 57 63 58 59 65 73 80 75 66 61 57 69 94 97 99 90 83 89 81 77 85 87 78 82 86 86 77 73 68 66 68 65 62 63 62 54 60 50
70 61 52 40 29 36 37 42 44 52 60 60 63 61 50 44 51 54 62 72 89 97 98 94 84 91 93 82 78 87 79 78 71 67 75 76 80 70 68 69 69 65 61 58 43 54 54
71 60 48 42 22 34 32 39 42 45 55 55 58 63 70 68 61 73 85 93 97 95 92 88 87 93 96 85 81 84 79 67 61 60 68 73 75 71 70 68 62 63 63 50 53 55 58
74 57 47 41 17 28 30 35 39 42 53 59 56 57 63 67 78 83 87 97 94 88 76 76 77 84 88 81 77 78 72 62 57 60 63 66 82 69 68 63 59 52 50 57 58 48 55
70 61 46 40 21 22 32 36 39 42 48 58 64 69 74 75 77 80 84 88 88 80 71 67 77 72 78 81 69 63 66 54 53 64 63 60 63 65 61 59 58 57 59 56 55 58 62
67 64 50 38 26 17 29 33 39 43 45 52 60 65 71 81 79 79 82 84 84 78 71 71 73 78 78 77 67 58 58 54 51 56 58 55 58 65 60 56 53 53 56 55 58 60 73
63 71 60 43 32 16 23 28 35 40 41 42 51 61 66 72 77 81 79 79 78 78 77 73 71 72 76 75 69 55 52 47 53 50 52 52 56 64 61 58 57 56 56 57 61 69 79
60 72 68 45 41 16 17 25 32 36 38 43 47 55 60 66 72 72 74 76 75 70 68 66 67 69 72 69 60 61 55 54 51 52 52 50 56 58 61 56 57 62 59 64 70 82 80
58 76 71 48 46 22 16 19 26 39 39 43 49 62 65 66 63 68 69 70 73 76 71 65 66 71 73 71 66 64 60 56 56 58 55 55 63 65 61 59 60 60 65 70 76 73 75
60 73 82 63 48 34 18 15 19 35 41 43 50 58 59 64 64 66 64 67 66 69 69 65 68 69 66 67 63 63 58 58 56 57 58 57 66 65 65 56 59 68 68 72 74 71 70
62 71 88 81 53 43 28 18 15 19 39 45 48 52 54 57 62 61 62 63 63 64 67 68 68 73 72 69 61 59 58 57 56 56 59 60 66 66 68 59 65 74 72 73 74 72 71
65 74 89 94 70 52 39 26 19 16 20 43 48 49 51 51 56 58 58 60 62 61 64 69 70 71 75 72 67 61 60 58 59 59 59 65 67 69 73 65 79 68 70 73 74 70 71
71 83 89 96 88 56 48 37 31 26 18 21 32 46 50 50 53 51 53 56 59 62 63 64 66 65 66 67 73 73 71 66 66 64 65 63 67 73 73 77 75 70 78 79 78 71 70
77 84 95 96 86 61 56 47 42 39 32 24 23 27 35 46 46 50 53 52 54 59 61 64 64 63 65 69 70 72 76 69 76 74 70 71 70 76 74 82 85 75 77 75 77 76 71
78 86 94 95 87 72 61 55 50 49 47 40 35 29 33 39 28 41 52 56 57 55 59 64 65 66 64 68 73 75 74 69 78 78 79 79 79 75 75 86 77 64 72 77 79 72 70
82 91 94 94 91 82 71 60 59 56 61 54 49 43 38 39 32 26 44 52 59 61 60 61 67 67 70 71 72 73 73 74 77 71 78 81 83 77 80 86 80 68 78 81 72 68 70
86 92 96 95 89 90 79 64 57 60 62 68 65 60 59 56 41 32 26 40 50 60 67 69 64 69 71 73 72 74 74 75 78 78 75 82 77 82 76 76 65 70 72 71 67 67 67

GFSGBSN_prec_cthk_024.txt.gz
RH
52 51 46 49 53 54 60 60 54 50 45 40 41 47 57 63 59 63 66 78 91 89 70 40 33 49 63 74 88 80 66 50 42 45 44 48 46 41 39 40 40 42 40 38 36 36 34
55 50 50 49 55 56 62 59 55 49 43 47 47 53 64 55 59 61 62 66 72 84 72 46 33 56 68 66 80 84 77 56 47 48 47 47 46 42 38 36 36 36 35 34 33 33 32
54 54 55 54 57 61 65 57 54 50 50 49 58 68 66 65 66 60 66 65 64 73 65 54 36 46 68 63 70 91 71 72 59 56 51 48 45 44 40 38 36 37 37 32 29 31 31
59 57 57 56 57 65 62 56 55 50 54 57 62 73 76 66 70 74 72 72 69 68 58 53 37 46 63 62 89 91 72 84 84 81 66 55 46 48 46 41 41 40 40 41 34 31 28
61 60 61 60 62 61 58 52 57 58 49 62 70 74 79 69 72 71 76 75 70 69 58 55 40 55 63 57 87 84 77 87 92 96 84 64 51 52 52 48 49 47 50 44 37 33 32
63 64 65 64 63 59 56 51 50 53 61 76 89 84 68 70 76 78 77 75 71 68 50 49 37 65 61 65 78 81 86 89 89 95 88 79 67 61 57 51 53 52 48 44 41 33 33
62 65 61 64 63 59 51 49 46 56 65 79 91 90 83 73 75 78 83 78 72 67 55 44 41 74 68 81 73 84 95 96 97 98 93 88 83 63 52 52 46 49 48 46 40 36 35
64 56 63 67 59 56 51 48 47 59 71 79 89 82 92 80 82 88 87 81 75 86 53 57 50 77 86 97 79 87 96 94 89 98 97 98 94 81 72 64 56 55 56 53 45 38 37
55 59 67 58 57 52 46 44 54 63 72 82 93 87 95 90 91 95 89 81 76 63 56 61 65 79 93 92 88 85 94 90 92 95 97 87 88 88 82 73 67 64 62 58 53 46 42
60 67 65 55 50 43 39 44 54 65 61 59 71 92 88 92 92 91 84 75 75 58 56 68 81 86 83 78 85 90 97 95 96 97 95 94 92 96 95 88 77 72 65 60 54 51 54
54 67 63 51 42 41 40 43 51 64 47 46 57 64 85 86 90 98 72 67 51 51 55 85 87 94 93 78 77 88 96 94 92 96 97 96 96 92 91 93 85 77 66 60 58 57 51
51 64 64 49 40 39 39 38 52 52 43 41 45 55 65 72 80 64 60 50 59 65 88 89 97 96 87 81 78 79 87 87 89 86 91 91 88 88 86 88 80 75 67 62 61 58 59
53 69 61 51 38 35 35 40 50 41 43 49 47 44 46 50 52 52 49 64 75 90 91 87 83 80 80 84 78 74 86 87 89 93 95 85 84 82 79 82 78 70 66 67 54 61 55
53 61 59 55 32 33 29 37 43 40 45 53 58 55 47 42 45 55 70 82 85 79 87 83 79 74 83 81 82 85 88 87 80 81 88 88 87 74 70 67 67 65 63 62 45 54 51
53 56 58 56 37 25 29 35 43 46 49 55 64 62 62 58 58 67 81 85 93 98 91 81 79 86 89 80 81 92 90 83 77 73 76 80 81 74 69 67 66 69 70 62 65 61 57
54 53 57 46 44 23 31 33 43 46 50 57 62 65 66 63 69 77 75 79 95 87 75 72 77 84 87 81 79 86 81 74 70 66 64 66 78 71 73 71 68 63 62 63 60 46 48
53 52 59 52 40 24 21 26 39 44 48 52 61 66 68 66 67 72 75 78 77 74 68 71 78 78 82 76 71 71 72 63 59 59 59 58 62 76 72 74 72 67 64 55 54 58 57
48 51 55 68 43 31 18 26 31 39 42 47 57 66 69 69 69 75 76 75 65 65 65 64 67 69 75 78 70 70 69 60 51 56 67 59 70 76 68 63 58 53 56 55 57 54 63
55 56 59 75 57 36 22 18 26 35 37 43 50 57 62 65 69 70 72 75 75 68 67 69 72 73 75 72 64 58 56 53 51 56 61 59 61 67 63 58 58 59 58 55 54 60 70
55 60 59 69 77 44 30 17 18 35 36 40 46 55 61 63 67 71 71 72 70 70 69 69 70 71 73 74 64 56 52 52 50 53 53 53 56 56 60 58 62 65 60 59 61 73 72
61 59 62 66 85 59 36 19 15 25 39 41 53 59 61 67 69 71 73 76 75 73 67 65 67 69 73 75 67 60 58 57 56 54 56 56 61 63 63 62 62 60 59 63 70 70 74
59 55 57 62 78 81 45 27 18 17 39 45 51 58 62 63 65 65 65 68 70 73 69 63 68 75 70 69 65 67 61 60 59 62 61 60 70 68 64 57 60 62 60 69 74 73 68
63 57 59 66 77 93 61 39 23 17 26 46 51 53 54 56 61 62 65 65 63 65 67 68 69 72 72 70 63 58 58 57 58 60 62 63 67 66 67 59 60 62 64 67 72 71 69
61 58 63 77 84 96 77 50 33 25 20 29 43 52 51 50 55 59 59 61 65 66 67 70 72 71 75 69 65 62 60 60 60 60 60 65 67 67 69 61 63 56 69 70 75 72 71
64 60 66 76 88 97 81 62 48 35 28 24 24 37 46 49 50 53 57 57 57 62 66 69 69 70 72 73 75 73 69 66 66 63 63 62 67 72 70 66 57 61 77 79 78 74 73
68 64 62 80 89 97 94 66 57 46 40 34 28 26 32 35 39 48 53 56 56 55 58 63 70 70 69 70 71 75 73 70 73 74 68 68 68 73 69 67 71 67 76 77 78 81 75
71 67 73 88 90 97 97 84 69 55 46 44 43 40 36 38 34 34 36 49 56 54 56 58 63 69 69 71 74 73 73 68 74 77 77 77 77 74 75 74 64 66 74 77 83 79 75
73 80 83 85 87 95 97 96 86 67 59 56 53 51 51 49 42 38 38 38 48 58 61 58 61 63 69 72 71 70 73 73 73 69 73 74 76 77 74 76 71 66 71 80 82 79 75
83 88 88 91 91 96 97 97 93 83 61 66 66 67 65 69 58 54 49 43 37 59 59 65 62 58 60 66 67 70 70 71 70 76 70 75 70 74 74 67 57 73 73 76 78 76 73

GFSGBSN_prec_cthk_027.txt.gz
RH
55 60 61 67 69 65 64 75 69 67 57 54 52 53 59 56 62 60 64 61 62 64 77 94 87 43 41 72 73 82 85 76 55 50 54 46 44 45 44 49 57 53 49 46 45 45 44
55 61 58 54 61 65 68 71 65 60 56 54 52 56 76 75 69 70 67 63 63 60 63 82 85 53 38 69 68 83 85 77 52 53 60 59 43 43 42 42 46 52 48 43 40 40 39
54 54 57 59 66 70 65 67 58 51 54 58 66 80 82 79 78 72 74 73 69 65 62 75 80 56 42 59 68 82 83 76 60 52 54 68 55 45 39 41 40 44 46 42 37 36 36
58 58 55 58 69 66 69 59 50 48 53 64 74 87 99 95 82 73 75 75 74 70 67 76 75 52 44 46 63 94 97 79 74 60 59 64 56 52 46 42 43 44 42 44 35 31 30
54 50 54 64 68 61 63 51 47 49 52 66 74 83 94 96 76 75 77 79 78 74 72 77 70 50 48 66 58 72 91 84 82 71 73 72 60 57 53 48 50 47 48 43 37 35 33
56 51 54 61 64 62 53 48 47 53 57 72 82 98 89 87 77 79 81 79 78 72 72 69 57 49 45 58 62 64 79 93 93 85 92 93 71 64 56 51 50 53 48 43 37 33 34
62 53 54 65 57 57 51 39 50 57 67 69 76 92 85 84 79 85 78 82 80 69 74 57 44 61 57 54 85 88 86 99 98 97 98 94 83 61 52 51 47 44 42 41 38 36 35
60 58 54 54 50 52 48 44 49 54 56 58 61 80 96 91 85 88 92 85 72 78 63 47 44 79 66 64 92 87 93 97 97 97 97 97 89 66 56 56 50 49 48 45 40 36 34
58 58 57 51 48 52 43 45 48 48 47 50 58 69 86 89 86 85 86 74 76 63 71 70 91 71 74 71 83 89 97 98 95 98 93 91 92 79 65 61 57 55 51 49 47 42 38
60 60 59 51 43 51 41 41 41 45 44 45 53 60 77 82 87 90 69 74 60 71 65 93 84 92 97 80 78 76 96 98 95 96 97 97 95 92 80 75 66 63 55 54 50 50 49
59 59 59 49 41 52 40 37 41 45 42 39 43 53 66 71 68 62 61 53 59 55 68 74 94 94 89 87 85 92 94 93 94 97 97 97 95 92 92 84 74 69 64 62 58 56 49
46 57 58 49 37 45 40 35 37 47 48 36 34 39 44 47 56 59 56 59 65 71 88 88 93 91 89 91 87 93 95 96 96 96 96 93 97 96 96 93 90 77 72 67 63 57 53
42 55 60 48 40 29 39 40 42 44 53 41 35 43 44 45 51 59 62 69 74 76 93 96 93 81 80 84 89 95 96 95 96 98 95 91 89 93 93 91 88 83 80 76 58 60 53
40 50 59 53 43 33 36 37 42 43 51 45 45 48 53 59 68 63 67 68 77 84 93 93 87 80 83 79 89 85 88 90 84 85 97 93 94 90 86 84 85 82 76 73 51 46 43
44 49 50 56 50 38 30 28 39 41 47 51 49 50 59 63 68 63 62 64 77 81 81 74 70 76 80 78 75 75 85 86 81 79 82 86 89 81 83 76 73 76 74 61 62 61 55
51 51 49 50 58 45 30 23 31 39 42 50 55 57 62 64 65 61 69 68 74 70 66 64 67 71 79 76 79 80 82 79 79 76 72 75 89 81 76 70 68 62 64 68 66 54 44
56 52 51 50 62 59 35 25 22 34 37 44 57 59 62 65 61 63 70 73 72 70 65 68 79 79 75 72 74 82 83 75 72 69 65 64 69 77 73 73 74 71 69 62 57 54 47
53 51 53 50 53 66 43 29 19 27 32 38 47 64 61 63 62 63 68 65 64 65 66 63 67 70 71 70 71 71 75 65 65 62 63 63 68 74 75 71 71 68 66 59 56 53 58
55 52 56 53 49 63 62 39 17 21 32 36 41 56 63 59 72 68 64 62 64 63 64 61 61 65 68 69 67 66 63 61 56 52 58 59 63 73 73 69 65 64 58 54 52 54 60
55 58 56 58 55 55 74 47 23 17 34 36 43 52 62 66 69 70 72 73 71 68 68 68 69 71 71 66 59 61 57 56 52 54 60 60 61 59 56 54 58 62 59 57 55 62 58
57 56 57 59 57 55 68 62 35 16 29 38 47 57 61 69 72 78 76 76 73 72 69 68 69 69 73 77 66 59 53 53 53 55 57 57 61 60 56 55 61 61 60 58 59 59 68
57 54 55 55 56 61 66 77 43 23 20 41 47 54 60 63 66 67 69 72 75 73 68 65 74 75 73 74 65 64 58 59 57 59 57 58 68 63 61 58 61 61 58 59 63 68 71
53 57 59 57 58 68 73 83 56 38 20 33 49 50 53 52 60 64 66 66 65 69 69 67 69 78 76 73 68 65 60 58 58 58 61 60 66 65 65 58 59 62 55 61 66 71 70
52 58 62 63 59 70 81 82 68 51 32 25 30 42 51 49 52 58 60 62 65 67 67 71 72 69 73 70 65 63 62 62 60 61 59 64 67 68 67 60 64 48 59 66 68 70 71
61 63 65 65 62 68 86 89 77 62 49 30 25 28 38 42 48 51 55 57 57 58 66 71 71 74 75 73 72 71 68 64 66 65 63 61 66 72 70 65 53 53 66 75 77 77 75
66 68 66 68 79 79 93 94 80 74 56 50 35 28 30 34 38 38 46 53 57 55 56 61 70 73 71 71 72 77 76 68 75 74 68 66 63 66 66 67 63 51 65 77 80 86 80
69 72 75 78 83 87 88 95 95 84 76 58 54 43 37 38 35 36 37 37 51 57 55 53 61 67 71 72 73 72 70 68 77 74 77 78 78 76 73 70 60 52 65 75 85 82 80
76 77 78 82 89 93 93 92 94 96 91 75 65 56 53 51 43 43 43 40 37 49 58 57 62 62 66 70 70 70 70 70 69 68 67 71 76 72 69 72 68 50 61 77 80 79 81
85 82 87 88 95 98 97 95 93 98 97 94 77 67 61 63 57 57 56 56 54 44 60 66 64 58 60 64 65 67 67 71 70 68 71 73 63 70 68 66 54 61 65 71 75 79 82

GFSGBSN_prec_cthk_030.txt.gz
RH
50 49 49 55 55 64 61 66 57 52 51 52 59 67 73 83 92 86 64 60 64 62 63 64 69 74 70 61 43 62 84 93 86 56 53 58 51 56 52 49 58 61 59 53 50 44 41
54 51 55 53 53 55 64 63 56 49 49 53 63 73 75 96 96 87 70 75 69 66 63 60 62 62 81 62 40 66 81 93 78 65 58 56 56 54 56 51 47 57 59 56 54 49 46
53 51 54 53 56 56 57 60 56 50 53 62 67 74 79 91 99 96 80 72 78 76 67 63 62 66 79 52 52 94 81 96 77 65 63 65 62 56 49 51 48 49 58 56 51 49 47
52 52 51 51 54 58 56 54 48 49 61 73 77 83 92 82 82 89 83 77 81 78 75 66 64 74 74 35 56 84 92 95 81 67 68 75 67 58 48 45 47 44 46 58 47 44 43
49 51 52 52 49 59 52 49 48 56 66 62 62 82 92 87 86 70 78 80 79 78 75 74 77 81 64 35 71 95 92 90 86 66 74 75 75 68 52 45 49 45 36 39 50 42 37
51 56 55 52 43 52 47 46 46 56 55 49 56 68 91 82 81 79 78 76 76 75 75 78 79 77 44 47 69 78 84 90 86 76 82 87 88 78 58 47 42 42 39 39 37 43 39
49 51 50 49 42 49 41 40 49 49 42 47 58 62 87 80 76 81 78 81 83 72 78 69 67 68 56 64 64 81 88 91 87 81 82 84 89 74 56 50 46 43 38 35 33 38 38
45 50 50 47 43 45 41 39 43 44 36 40 53 63 76 81 80 83 86 78 74 79 73 57 56 73 73 78 77 82 96 95 95 85 88 94 86 75 65 57 49 45 40 38 39 37 37
46 51 52 50 43 43 41 35 41 42 39 43 49 61 68 76 77 76 67 71 72 64 67 81 77 71 69 71 66 75 91 97 94 97 90 94 85 74 66 54 51 48 42 42 38 38 36
47 44 50 52 44 39 41 38 41 38 40 45 46 46 50 57 61 59 66 62 67 78 96 91 86 80 85 88 82 91 97 98 98 98 97 98 95 82 70 60 52 50 46 45 44 42 40
47 45 50 50 44 30 42 40 39 38 34 42 43 41 43 44 44 48 60 75 83 80 87 93 93 86 92 93 91 97 95 96 96 97 97 97 96 88 79 62 55 56 50 49 49 49 45
46 43 51 45 40 27 41 36 43 41 36 35 43 44 41 44 47 47 58 74 80 83 94 99 97 91 84 87 87 93 98 97 95 96 96 97 96 95 93 78 69 61 55 56 54 52 54
41 46 52 44 43 41 34 29 40 47 46 40 44 47 49 49 49 48 54 61 76 83 96 98 96 90 83 83 84 82 97 97 94 97 98 98 99 96 97 93 82 70 67 73 69 70 50
43 48 52 46 46 55 37 22 31 40 48 48 44 51 55 51 54 55 55 61 70 86 89 88 84 79 87 90 98 96 94 92 86 90 91 94 96 98 97 93 94 82 75 68 58 47 39
45 50 50 46 44 51 49 28 21 33 40 45 51 53 55 52 51 52 56 67 77 81 82 72 65 68 76 79 82 82 84 84 84 86 87 87 93 91 90 88 87 85 87 71 61 53 46
45 50 51 46 46 45 58 36 18 25 34 39 51 52 53 49 52 51 56 66 70 69 68 64 67 66 71 76 72 71 73 76 74 74 74 78 89 84 86 83 81 79 76 76 72 60 44
45 50 53 48 47 44 52 53 20 18 30 34 46 53 52 50 54 57 61 62 60 61 60 60 63 65 65 67 68 70 73 74 73 73 68 69 74 84 81 78 73 70 67 63 58 50 43
49 50 53 50 48 45 45 64 40 15 25 31 39 55 53 49 54 60 63 62 60 60 61 59 60 63 63 63 65 70 69 69 67 64 62 61 69 78 74 73 71 69 63 55 52 59 49
46 49 51 51 47 44 44 54 53 17 25 32 37 51 53 51 54 56 54 56 59 58 59 58 59 60 62 62 64 65 67 65 65 62 60 57 62 75 73 72 70 68 66 61 57 53 53
44 47 50 48 48 48 44 49 55 34 22 34 43 47 55 57 62 61 60 59 59 61 59 61 63 67 67 68 59 61 62 62 59 52 54 55 55 59 51 60 60 66 61 56 51 52 44
48 52 52 49 50 52 47 54 58 47 19 36 47 53 54 64 70 70 69 69 68 67 68 65 65 66 69 68 58 59 57 55 54 57 58 64 68 62 56 55 60 59 55 53 55 47 48
48 47 47 49 50 54 50 60 66 53 33 33 46 53 57 58 61 66 68 73 73 69 67 66 67 69 71 71 63 57 53 50 52 57 58 59 70 63 59 55 57 59 55 54 53 51 52
52 50 53 53 54 55 58 64 73 58 44 26 39 51 53 52 56 59 61 63 66 68 66 66 70 76 75 75 71 62 58 56 56 56 61 60 64 61 59 55 56 54 47 48 50 53 56
53 52 56 56 56 61 68 67 73 67 55 42 30 39 51 48 47 52 56 59 60 62 65 66 71 71 73 72 67 63 61 60 60 59 57 59 60 63 65 58 60 44 49 51 54 55 60
55 61 60 61 62 67 73 74 77 80 67 53 39 30 37 39 44 47 52 54 54 55 60 67 69 75 76 73 68 64 61 60 62 60 60 56 59 67 64 58 46 45 53 59 62 62 65
57 66 63 63 66 69 77 82 84 84 84 68 55 42 31 35 37 34 42 49 53 53 53 59 67 73 73 74 74 72 66 60 65 65 61 61 59 59 62 62 50 45 55 64 69 76 73
63 70 67 68 70 73 79 91 90 90 90 88 76 57 51 37 29 33 34 32 42 52 54 52 59 66 71 73 75 71 67 61 66 67 70 67 70 66 65 62 48 46 57 60 71 72 77
69 75 77 73 75 80 89 91 93 93 94 96 93 82 66 62 43 38 38 39 36 41 48 50 56 61 67 70 70 67 66 63 63 60 64 64 68 72 69 68 62 47 55 59 62 72 78
70 70 77 77 80 83 89 92 93 96 95 92 94 94 91 88 72 60 58 57 55 49 52 59 61 57 60 64 60 61 62 64 63 64 62 64 57 57 57 58 51 52 52 57 66 74 78

GFSGBSN_prec_cthk_033.txt.gz
RH
40 41 45 46 48 50 44 47 49 48 45 52 61 64 68 75 83 92 93 83 69 68 68 72 75 73 60 55 40 53 42 53 63 67 51 55 49 54 66 55 58 65 59 59 57 48 41
43 43 46 46 42 46 43 44 44 46 51 62 71 81 86 86 82 91 97 86 70 62 58 55 56 61 63 56 54 42 64 55 76 81 67 56 47 54 68 65 50 61 67 62 61 56 49
44 46 46 46 42 44 36 46 50 50 58 52 60 65 88 94 84 78 95 92 80 75 71 69 68 65 64 55 61 47 62 61 87 96 76 60 57 62 66 66 64 57 66 66 64 61 55
45 48 46 44 41 41 36 49 46 50 47 42 55 70 79 96 85 75 78 86 78 78 75 72 66 67 60 47 56 57 58 61 68 96 81 71 63 63 72 66 65 56 61 65 57 62 57
45 45 44 45 40 41 40 48 46 48 40 44 59 60 78 95 82 71 70 77 78 76 75 79 73 67 60 60 50 56 67 66 75 95 82 76 68 67 73 67 63 56 46 50 52 56 57
41 44 44 46 39 43 42 47 44 42 39 43 53 59 76 83 75 74 70 70 70 72 74 79 77 76 58 65 50 66 77 76 72 82 89 87 81 62 72 64 50 47 44 41 40 52 56
41 42 47 46 40 38 43 46 37 40 36 38 47 56 66 71 76 80 82 85 88 78 74 79 79 82 76 73 86 93 79 97 96 82 83 85 85 70 48 48 44 42 43 39 37 43 50
41 42 45 46 42 34 43 46 38 39 45 33 41 46 54 62 66 67 73 75 73 75 75 68 69 73 85 84 97 97 96 98 80 77 73 84 80 69 66 60 50 49 47 46 44 42 41
42 41 42 49 41 32 41 44 42 37 43 41 38 46 46 48 53 60 64 65 61 66 82 82 84 77 78 91 94 95 91 98 88 78 77 79 76 78 74 69 58 49 45 42 44 45 37
44 42 43 49 42 36 35 41 44 41 41 42 40 45 50 47 48 60 72 75 82 83 88 82 87 89 85 94 97 95 91 92 93 82 89 91 85 82 77 75 63 56 46 45 42 47 35
42 44 46 49 42 45 31 32 40 49 44 48 41 44 46 51 59 62 68 71 85 93 94 92 84 80 94 97 92 97 96 97 97 91 96 93 91 82 78 73 67 66 51 46 44 48 50
46 43 46 46 44 45 43 24 30 41 49 46 46 43 51 53 50 53 65 77 83 93 95 88 95 90 83 93 84 93 95 98 98 97 94 95 97 92 88 79 65 63 53 48 47 48 58
41 40 46 48 41 42 51 30 19 29 43 43 47 47 46 52 57 54 62 75 86 88 97 93 87 94 87 83 88 94 98 98 98 99 98 98 98 97 95 88 77 62 57 67 67 69 55
40 40 44 47 42 39 43 58 17 21 32 41 48 49 46 46 49 52 60 68 76 84 85 84 81 77 85 86 92 89 97 97 91 91 98 98 98 98 94 85 74 70 62 65 61 57 50
39 40 45 47 43 40 38 49 36 17 24 34 45 49 46 46 48 52 59 68 77 80 78 75 76 84 92 85 89 90 84 86 91 86 93 96 97 97 98 92 83 81 75 59 54 44 44
38 41 45 46 43 39 36 38 60 16 19 30 39 48 49 46 47 54 55 64 68 67 69 66 68 71 77 78 74 73 74 76 81 79 79 80 92 95 96 95 92 88 78 81 70 70 46
39 41 43 44 46 38 36 36 49 31 15 28 37 50 47 47 49 55 59 61 58 60 62 61 58 62 66 68 64 62 62 68 67 68 68 74 73 85 91 87 86 85 86 79 75 65 59
38 39 43 45 45 41 38 34 40 53 15 27 36 57 47 46 54 51 54 56 56 58 57 57 59 59 58 57 64 62 62 62 61 63 63 66 74 83 79 80 78 74 69 69 68 69 52
39 40 45 43 43 39 40 37 38 48 25 29 38 50 50 46 57 51 51 52 55 55 55 53 56 57 58 57 62 62 62 62 60 61 60 58 67 81 79 73 71 69 62 59 55 55 60
41 44 45 39 38 41 43 42 41 42 46 27 41 52 56 54 53 49 48 50 53 52 50 52 55 58 61 62 56 60 61 63 61 57 56 54 55 67 66 67 59 65 63 62 61 63 51
46 45 46 42 42 43 44 45 46 43 49 36 42 54 57 62 60 62 58 55 56 60 62 60 61 61 65 66 63 58 59 59 57 55 50 56 67 61 55 56 58 58 59 59 61 56 50
46 50 47 43 46 48 50 53 51 45 47 54 45 55 57 59 61 65 65 64 64 64 61 60 63 62 63 66 64 58 57 54 50 53 53 56 70 65 63 55 54 57 55 53 50 47 43
42 45 50 50 50 52 52 55 59 45 51 58 41 50 59 59 60 62 65 69 69 64 63 62 66 71 71 72 71 67 57 55 51 52 56 61 68 68 62 54 52 53 45 46 45 44 44
40 46 54 52 54 53 54 58 65 60 49 63 47 34 52 54 52 58 60 61 61 62 66 65 66 72 74 74 72 68 64 60 58 57 58 64 64 64 67 61 66 47 43 41 41 43 44
45 52 54 52 55 56 57 58 65 71 70 67 60 46 37 41 44 48 53 56 57 56 57 60 65 70 74 71 68 68 65 62 60 59 58 56 60 66 66 59 45 38 41 46 50 49 51
45 50 55 53 56 60 62 64 69 77 81 81 82 59 46 38 43 40 39 48 55 56 55 57 61 65 70 75 74 70 68 58 63 62 59 58 57 61 62 61 50 44 45 51 55 62 54
44 52 55 54 57 62 68 68 73 81 88 84 92 91 76 50 37 34 39 43 45 55 56 55 58 63 65 69 72 70 66 59 62 63 64 65 63 63 60 59 46 40 50 54 63 64 68
44 50 53 53 64 69 71 79 80 82 86 87 87 89 91 90 65 43 34 34 31 32 41 52 53 56 63 65 65 65 60 62 58 57 59 61 65 64 60 61 57 43 52 55 55 59 67
46 53 55 60 68 73 77 83 83 84 88 89 91 86 89 89 89 75 59 49 46 42 46 51 59 59 61 57 54 56 54 58 59 60 55 58 54 57 54 55 48 46 49 53 55 59 64

GFSGBSN_prec_cthk_036.txt.gz
RH
40 45 42 39 37 44 33 37 36 47 48 48 43 58 71 89 97 85 84 93 85 70 81 82 92 94 91 72 55 59 48 50 53 72 58 52 48 49 50 50 58 64 70 63 62 68 64
42 46 42 39 37 42 32 36 36 46 41 39 46 58 68 77 97 85 74 90 91 81 73 69 85 92 87 68 66 53 67 66 66 76 74 63 43 52 55 62 55 58 70 71 66 58 58
41 43 43 40 39 38 33 36 39 42 38 40 48 50 64 86 95 80 72 81 94 85 72 61 55 55 61 55 63 51 58 71 80 80 78 62 55 57 59 64 64 65 69 71 69 60 61
38 40 44 41 39 39 37 35 41 42 40 39 42 47 60 83 80 71 63 75 83 80 72 70 63 65 56 49 49 52 47 82 63 71 74 74 61 59 66 65 69 68 66 72 70 66 64
38 40 45 42 43 39 41 35 38 43 40 36 37 46 56 61 64 64 61 64 74 79 74 74 67 68 63 60 45 43 49 70 68 69 76 80 79 57 68 71 79 72 64 61 62 63 64
40 40 42 41 45 36 42 43 35 37 38 38 34 42 51 56 64 70 70 65 64 65 69 75 77 76 55 55 53 44 45 64 72 89 88 98 94 72 68 77 74 61 58 55 50 58 62
41 37 39 41 39 36 38 42 44 39 40 39 38 42 54 62 58 58 68 79 90 78 72 83 76 64 74 64 54 49 51 64 72 90 88 97 86 67 48 44 54 51 54 54 39 47 55
40 38 39 41 38 43 35 38 46 43 40 41 40 43 48 57 66 64 61 64 75 76 79 68 63 68 68 78 72 68 68 79 69 88 81 88 86 64 62 59 58 58 56 50 47 46 50
40 37 39 39 37 37 38 24 39 43 42 38 43 44 49 49 63 78 79 73 74 86 97 84 80 83 89 90 78 78 78 80 75 89 88 79 80 71 60 58 58 57 56 49 52 51 49
38 38 37 40 38 36 42 31 29 36 42 40 43 44 42 50 65 70 81 87 88 89 97 96 96 93 94 98 98 98 97 92 90 85 80 90 74 72 72 64 55 60 57 51 52 52 52
39 38 37 39 39 37 35 48 26 26 37 40 42 44 46 53 58 67 66 72 76 84 95 95 92 86 96 98 93 98 97 86 90 91 91 84 82 76 80 74 67 65 60 56 53 52 54
41 37 37 39 40 38 34 38 40 22 27 38 42 44 45 52 60 63 58 64 74 78 96 98 90 90 96 91 93 89 94 94 90 87 84 91 87 90 92 81 75 78 74 62 55 54 66
39 36 37 40 42 38 37 34 46 25 22 31 39 44 45 46 53 60 63 68 71 74 88 94 94 91 83 80 85 88 89 91 96 94 95 93 95 95 91 89 80 81 80 85 78 72 67
39 36 39 39 38 38 34 37 35 48 17 25 34 45 43 45 46 51 67 71 65 75 83 80 84 78 81 82 87 94 98 97 97 93 97 98 98 97 93 91 84 80 72 77 67 71 58
40 36 37 38 38 37 35 31 34 44 23 21 30 44 44 42 46 54 64 66 73 76 76 74 74 82 76 83 83 96 96 97 96 95 98 96 98 98 97 94 88 86 83 65 68 50 64
35 37 36 36 38 36 34 31 31 36 37 20 28 45 47 44 47 52 55 60 65 70 73 68 73 73 76 74 78 81 85 92 91 90 85 86 97 98 98 95 89 82 75 80 77 70 57
36 37 34 37 36 33 31 33 31 34 36 27 30 47 49 45 53 51 56 56 54 58 58 61 63 66 67 67 66 65 70 75 76 79 82 82 83 97 98 98 90 82 83 76 72 66 72
38 37 36 34 33 31 33 36 35 34 28 40 34 54 49 46 57 51 51 50 52 54 57 56 55 56 58 58 61 59 63 63 66 67 73 78 80 93 94 87 85 91 87 83 87 76 62
37 37 36 33 32 34 35 36 38 34 29 45 39 45 52 50 63 53 50 51 52 55 55 53 56 56 56 54 61 62 61 61 61 63 63 63 77 90 85 88 84 83 80 82 79 80 82
36 34 37 36 38 39 38 37 40 35 32 43 51 52 58 58 57 59 54 53 57 52 53 53 53 54 58 59 56 60 61 62 59 57 56 55 60 73 78 73 72 78 74 69 67 76 65
34 31 36 39 39 42 38 40 40 34 35 48 67 53 56 69 63 62 58 56 55 59 61 58 60 61 64 68 64 60 60 59 62 57 53 56 64 59 58 63 64 62 64 65 66 64 66
31 30 38 41 38 41 41 41 41 35 39 37 63 61 57 57 63 64 67 68 66 67 65 62 62 61 61 65 63 68 56 55 54 54 54 51 66 66 60 56 59 59 57 57 61 63 59
29 32 39 39 39 42 46 46 46 42 39 39 46 66 59 61 61 63 74 72 72 69 67 65 67 67 70 76 72 71 63 55 51 47 49 55 66 67 69 59 57 61 47 49 51 49 49
29 34 39 39 40 42 48 50 51 52 51 49 45 61 62 61 59 65 69 70 69 70 71 69 69 70 70 72 73 73 68 61 59 55 54 58 67 71 72 62 70 45 44 43 43 42 43
30 36 39 38 40 40 49 55 54 57 60 63 65 57 61 48 48 52 56 59 63 63 63 63 66 67 68 72 71 73 71 66 61 58 58 62 66 71 74 72 52 45 44 45 47 45 41
33 40 43 43 44 45 52 56 58 60 65 70 76 78 80 61 48 40 40 44 56 60 59 60 61 62 63 70 76 76 76 64 66 64 58 59 61 63 66 66 62 54 47 44 48 60 50
32 39 42 44 46 49 55 60 63 67 70 72 78 81 84 90 67 42 44 49 46 56 60 60 60 60 63 66 67 73 73 64 66 61 66 65 65 68 67 62 52 47 46 50 64 63 53
36 40 43 46 50 52 59 63 67 75 74 73 77 85 85 85 88 79 57 42 37 33 46 52 53 56 59 63 64 63 63 65 62 59 63 63 66 68 64 64 62 49 50 57 56 58 63
35 40 42 47 51 57 59 65 75 74 74 80 80 84 86 84 77 85 82 61 44 41 37 34 49 59 61 63 60 58 59 54 57 64 58 64 56 58 55 54 49 49 49 53 54 58 61

GFSGBSN_prec_cthk_039.txt.gz
RH
35 37 39 41 33 32 34 36 33 39 39 36 41 42 48 61 71 92 83 69 83 87 76 82 88 91 95 85 65 57 69 47 61 64 66 50 43 52 54 54 65 69 71 75 80 82 82
37 39 39 39 35 35 37 35 32 39 35 36 38 43 44 60 77 78 73 70 79 84 74 68 91 97 97 92 72 59 62 63 62 75 65 59 44 47 50 53 54 60 70 75 74 73 74
37 39 39 37 37 35 38 37 31 36 34 35 40 44 46 50 54 59 63 76 81 84 76 64 68 87 92 85 81 71 69 74 83 76 85 59 53 54 53 59 53 62 67 73 76 67 68
37 37 36 36 38 36 42 40 33 35 36 35 38 43 52 52 51 49 54 63 76 72 73 62 58 69 65 57 80 76 68 85 86 80 97 85 65 56 58 62 67 66 66 76 67 70 67
38 38 35 37 37 39 39 36 39 41 37 38 38 43 55 67 55 55 53 55 58 68 64 64 62 58 59 55 58 73 79 85 81 91 96 90 79 57 57 67 72 80 70 68 63 62 66
36 35 36 33 35 36 37 36 36 41 39 41 41 41 56 71 63 59 60 66 65 63 63 62 66 69 62 60 56 51 67 88 83 94 98 87 84 71 62 63 64 57 55 58 57 59 65
36 35 34 32 34 37 37 35 27 43 39 40 47 43 48 58 69 64 62 68 72 62 60 69 66 68 63 57 57 49 58 92 89 87 87 92 89 64 39 58 54 54 59 58 55 54 62
36 35 33 33 34 34 37 44 27 34 41 38 44 52 46 47 67 70 64 63 66 68 65 58 51 48 59 55 61 49 54 88 88 71 77 90 83 68 62 57 60 61 62 58 56 53 57
38 36 31 32 35 35 34 38 46 28 31 33 38 48 50 49 58 71 64 69 79 91 97 85 68 66 67 62 60 56 56 82 82 87 91 93 81 79 72 66 62 57 54 56 54 57 58
38 37 31 31 37 36 32 34 43 30 25 29 34 42 47 54 58 65 63 66 74 83 97 98 92 91 78 71 67 62 55 64 83 92 95 92 88 74 72 65 58 56 51 57 55 56 63
37 36 32 33 35 35 33 32 33 41 23 23 31 40 45 52 54 59 58 62 74 84 95 93 97 95 94 94 72 66 64 72 76 97 87 84 78 75 67 61 61 60 59 63 63 61 58
36 36 31 32 36 34 33 30 30 34 31 20 28 38 42 46 51 60 62 55 72 83 97 98 97 98 98 98 98 91 91 79 77 93 94 82 84 86 78 71 64 62 64 67 69 71 74
32 34 32 32 32 34 33 29 28 31 42 17 25 35 41 41 50 58 63 65 71 77 85 95 96 94 90 93 96 95 91 85 81 96 97 95 93 87 88 83 76 71 71 88 87 83 70
34 32 33 31 31 32 30 27 28 29 34 23 25 33 41 40 47 54 62 65 67 72 83 85 84 84 91 93 96 93 89 86 84 78 85 87 91 91 86 80 78 79 76 81 84 81 66
32 32 31 30 32 29 28 27 29 29 30 31 25 34 44 41 45 52 56 61 72 77 78 77 75 81 84 90 96 97 96 91 90 82 82 87 87 83 80 81 79 83 82 73 78 68 76
32 34 31 33 30 27 28 28 29 31 29 25 28 38 44 45 46 50 49 54 63 64 68 75 73 70 75 79 87 91 96 94 94 87 81 86 90 90 89 89 84 84 82 91 91 88 73
36 32 31 29 27 29 27 30 28 29 28 25 40 45 47 44 52 50 55 52 52 54 53 63 71 68 64 66 66 76 82 89 89 87 79 84 89 97 98 96 93 94 91 85 82 85 83
34 31 30 28 28 31 29 30 29 28 27 28 50 53 49 51 55 52 53 50 51 53 53 52 54 60 61 60 62 63 69 74 79 88 91 87 91 98 96 95 92 90 89 82 88 83 74
32 30 28 29 30 30 30 31 31 28 31 33 47 54 53 57 61 51 48 52 55 56 52 50 52 54 52 53 60 60 62 61 64 72 80 80 87 96 98 95 91 91 86 79 76 77 78
30 28 28 30 29 30 31 32 31 27 34 40 49 64 61 59 62 59 55 55 58 53 50 49 50 52 56 56 53 61 63 62 60 62 63 65 73 80 81 77 80 85 83 86 95 96 77
27 27 29 28 27 29 32 34 33 27 31 40 48 65 69 65 64 64 60 60 59 58 58 55 57 58 63 64 63 63 62 60 60 56 55 58 65 65 66 71 75 76 81 81 83 75 76
25 28 27 26 26 28 31 35 38 33 29 34 46 60 77 72 65 66 68 68 70 67 66 62 63 59 59 69 68 65 61 57 59 60 56 57 66 62 60 60 64 66 64 66 68 67 65
26 30 28 27 28 30 33 35 38 39 36 35 38 49 75 81 71 67 74 77 75 72 68 70 70 66 68 73 72 71 67 58 56 56 55 57 61 63 69 61 60 62 58 54 53 54 58
30 33 30 30 31 33 36 37 41 44 45 47 51 50 60 79 73 65 65 73 77 74 74 72 72 73 69 71 71 72 72 69 59 58 54 57 59 65 72 66 72 42 45 47 45 45 50
32 34 33 32 35 36 38 41 43 49 51 53 59 64 64 59 70 69 66 68 71 74 72 73 73 72 71 71 72 74 77 71 69 65 61 61 64 71 75 77 53 48 48 46 49 48 42
31 33 33 34 36 37 39 46 49 51 54 57 59 61 71 79 67 56 54 60 67 71 69 68 64 64 64 71 73 77 76 69 72 66 60 62 65 70 72 72 67 58 52 46 46 52 47
31 33 36 36 37 37 44 48 52 55 57 60 66 70 69 81 84 74 57 54 52 58 64 65 60 62 62 64 67 66 69 68 75 72 63 66 68 70 68 68 54 51 50 50 59 57 52
31 34 37 36 37 38 43 49 55 59 61 67 71 74 74 73 76 82 81 60 48 43 50 57 62 64 64 64 63 61 60 60 63 64 69 67 69 70 69 69 64 51 53 58 58 57 54
29 32 35 34 36 37 40 45 54 62 65 68 71 70 71 71 69 77 81 85 62 51 46 40 56 59 62 62 62 63 58 57 59 66 60 67 62 62 58 56 50 53 52 53 56 59 63

GFSGBSN_prec_cthk_042.txt.gz
RH
36 37 36 33 37 35 36 36 31 32 35 33 36 43 48 49 55 57 69 72 66 81 81 77 81 85 93 81 72 71 66 79 65 81 81 49 45 54 57 57 72 80 81 88 90 91 90
38 37 36 36 37 36 37 35 37 35 35 34 33 46 43 47 47 46 53 71 75 82 77 71 86 93 94 85 74 68 63 68 62 88 90 63 43 49 53 55 62 71 82 86 89 90 91
37 36 34 35 38 36 33 35 39 42 38 31 33 39 47 49 45 45 54 62 75 77 73 64 81 95 89 92 84 73 64 63 82 96 91 74 49 49 50 53 55 59 80 84 78 80 82
36 37 34 32 38 38 37 33 34 40 41 36 34 41 47 56 49 48 47 51 62 66 63 58 58 79 78 85 90 82 67 77 87 96 93 81 58 52 54 56 57 61 66 78 68 73 78
40 38 33 32 37 40 37 37 31 38 41 38 42 40 51 58 52 51 50 48 48 58 60 56 60 67 65 70 85 82 69 70 88 87 97 84 70 62 57 59 64 64 64 61 66 68 72
42 39 34 30 34 38 38 40 40 30 42 35 41 45 50 52 55 52 57 54 48 48 51 57 60 60 61 64 72 76 79 73 86 87 98 95 77 69 60 61 63 53 56 50 57 66 67
41 38 36 30 33 36 36 36 40 34 32 34 38 47 49 50 60 56 60 65 59 45 52 56 61 62 56 59 67 69 74 83 93 97 96 99 89 60 54 59 54 55 58 61 59 64 66
37 36 36 30 31 34 35 35 39 44 31 30 29 41 52 46 56 61 62 67 73 68 51 48 50 57 54 60 70 70 76 88 95 95 97 98 83 74 59 58 57 59 61 63 61 61 64
36 37 34 30 29 31 33 33 36 39 39 31 24 39 46 46 50 56 64 72 83 87 84 67 51 54 62 61 67 72 85 96 91 90 97 96 84 77 67 61 57 57 58 61 59 59 61
35 35 34 29 29 30 33 34 31 35 40 26 20 33 45 46 51 53 60 70 75 86 97 96 80 60 57 63 66 75 86 97 94 94 93 88 81 77 68 59 58 60 57 56 60 62 65
35 34 32 29 28 29 31 31 30 31 32 36 19 29 43 44 51 53 58 61 75 83 97 97 96 80 54 62 63 70 81 89 96 92 86 91 79 77 74 63 60 59 55 55 57 61 61
38 34 31 29 27 28 32 28 27 29 30 37 18 28 42 42 51 56 60 58 75 78 94 97 98 94 74 65 58 64 77 87 88 87 87 94 91 90 84 70 66 67 63 63 66 67 70
38 35 32 29 28 29 28 25 27 29 29 29 24 28 41 41 49 57 62 64 72 77 84 90 97 98 93 74 61 56 61 82 91 98 94 98 97 87 80 73 68 66 67 80 81 81 64
38 35 34 29 30 26 24 26 28 26 28 27 30 30 42 41 47 55 60 65 67 75 88 87 92 97 99 96 76 69 76 87 91 92 95 93 94 92 79 75 69 67 61 68 72 77 65
37 37 33 29 26 24 25 25 27 23 26 25 28 35 46 47 45 53 57 61 60 75 76 81 83 92 99 98 96 88 74 77 74 79 89 87 86 86 84 80 78 76 73 63 68 67 72
37 36 32 27 25 26 25 24 26 23 25 24 30 41 50 51 49 53 55 55 60 64 73 75 74 74 83 92 97 96 90 80 77 73 74 78 83 86 89 92 84 75 69 78 83 83 74
37 34 30 25 26 26 23 24 25 21 23 27 35 48 52 54 55 51 55 55 55 53 64 72 68 64 67 75 83 86 90 87 83 82 78 74 75 83 85 86 79 80 83 79 81 82 83
37 34 28 27 25 24 24 25 23 21 22 30 38 54 55 61 59 53 55 53 53 54 54 56 62 61 60 60 65 75 81 80 85 85 87 82 92 92 88 84 85 81 82 80 91 91 86
34 34 30 28 25 23 25 25 22 19 25 29 39 51 57 64 65 52 50 54 56 54 53 53 54 53 53 56 61 61 63 73 84 82 84 82 90 97 97 96 93 92 87 83 84 87 85
33 33 30 27 25 25 25 25 23 19 21 30 40 52 57 65 66 64 57 54 61 55 52 48 49 52 53 52 56 61 61 61 65 74 80 78 83 85 84 77 80 91 90 88 87 92 76
33 33 30 27 27 28 26 24 23 20 19 32 42 53 66 66 69 68 63 59 61 61 55 54 54 57 60 61 60 62 62 62 64 62 66 71 78 78 78 79 79 80 82 86 88 79 82
33 32 31 29 29 30 27 25 25 25 23 25 37 52 65 72 74 71 72 68 62 64 61 62 60 62 62 68 67 66 61 61 61 60 58 61 68 66 69 68 71 75 75 81 82 84 80
32 31 31 31 31 32 29 27 27 28 30 34 36 51 70 67 76 80 75 77 74 72 68 67 67 66 67 70 71 72 68 60 58 61 63 62 63 63 64 61 61 65 57 61 64 66 66
32 31 33 31 33 33 32 29 29 31 33 37 42 44 54 66 70 84 78 71 76 75 79 73 71 70 69 71 71 73 74 69 64 62 59 59 60 64 70 65 72 47 47 46 49 51 52
30 32 34 33 34 34 36 34 33 34 36 39 42 47 54 52 68 70 79 77 75 78 80 79 76 75 73 73 70 76 82 77 71 63 64 65 67 70 72 75 57 47 48 50 51 48 47
31 32 34 35 37 35 38 37 35 36 37 39 44 49 58 65 66 63 71 81 81 83 83 81 75 73 71 74 76 75 81 73 77 73 68 66 67 72 80 78 70 57 54 51 50 53 45
31 33 34 36 37 36 36 38 37 37 40 42 47 50 57 65 73 79 66 67 69 73 75 74 69 68 66 66 68 68 68 72 80 77 71 69 70 75 77 73 58 48 56 56 60 53 57
30 31 34 36 35 37 38 37 38 41 42 45 47 49 56 63 65 72 82 73 67 62 68 67 69 68 68 68 68 65 61 58 63 66 70 70 71 72 72 77 68 50 56 61 59 58 56
27 28 29 30 33 36 38 37 40 42 42 44 51 55 60 68 71 73 79 82 81 62 53 57 66 65 66 68 67 65 65 57 55 62 60 67 63 66 63 58 51 54 55 55 56 57 60

GFSGBSN_prec_cthk_045.txt.gz
RH
36 36 32 33 34 33 32 33 32 37 38 31 35 38 41 42 38 42 43 47 64 68 78 72 73 83 94 93 74 75 83 88 60 59 78 67 47 49 60 66 78 80 79 87 85 82 86
38 38 33 31 35 34 36 33 34 35 39 39 36 39 43 44 41 45 49 51 60 74 72 68 80 90 93 97 84 83 75 85 71 56 87 75 46 51 61 58 71 79 83 89 89 86 90
40 39 34 30 34 36 37 36 35 30 37 43 42 38 44 49 44 46 50 53 58 65 62 59 70 84 91 94 84 77 81 78 81 70 85 82 57 57 57 56 61 71 87 93 92 88 92
39 39 36 32 32 37 37 37 37 31 32 42 44 47 46 53 44 49 50 47 49 54 52 53 61 81 82 89 88 80 75 79 80 76 93 95 72 56 56 53 60 67 80 94 89 89 91
39 38 37 34 31 37 38 37 36 41 27 37 43 49 48 47 51 51 56 50 47 47 49 48 55 71 74 87 92 82 75 83 79 79 95 98 81 67 57 59 64 70 69 75 81 79 80
38 38 37 34 31 34 36 37 37 37 43 25 37 44 49 46 54 51 57 62 51 47 45 50 55 62 63 78 88 78 69 78 88 89 98 95 80 74 62 60 57 56 58 59 63 71 79
40 37 35 35 31 31 35 38 37 37 38 33 26 38 47 44 50 60 60 64 61 53 52 51 57 57 53 64 73 75 68 73 98 98 98 95 79 71 59 53 49 51 53 58 57 64 72
41 37 32 35 33 33 33 36 37 38 36 42 23 32 46 48 43 56 63 66 71 62 57 46 52 54 53 61 70 78 68 80 95 98 97 96 80 69 59 54 52 52 54 55 56 55 69
40 37 34 33 32 34 31 34 37 36 35 36 33 24 45 46 46 53 59 69 79 82 79 62 52 55 62 62 70 76 69 80 89 98 95 96 83 72 64 60 56 56 54 55 56 57 68
41 38 35 31 30 33 33 34 34 34 34 35 38 21 39 45 47 54 60 68 74 83 97 92 62 61 63 71 74 78 80 85 98 96 97 98 89 76 65 66 61 62 57 58 60 66 71
42 39 34 31 31 31 32 31 31 32 33 31 34 19 35 44 47 55 60 65 73 86 97 97 80 57 63 76 74 86 92 96 97 94 96 98 93 83 70 63 57 58 55 58 61 63 62
42 39 34 32 30 30 28 29 30 30 32 26 28 23 34 43 49 55 61 62 76 80 92 98 85 63 63 77 76 87 82 97 97 96 94 98 91 85 76 66 59 60 61 63 65 64 72
41 37 32 33 29 25 25 28 27 30 28 26 23 31 36 42 50 55 63 68 77 80 87 98 91 66 59 69 75 79 84 94 98 98 97 97 90 82 80 71 63 62 65 79 80 77 69
38 35 34 33 29 25 25 24 23 26 24 24 22 35 40 47 47 55 62 67 72 75 93 93 94 81 62 62 67 71 78 89 95 92 89 99 96 88 81 72 69 72 69 74 75 79 68
36 35 35 33 28 26 23 23 24 21 22 23 27 37 44 52 48 53 58 64 67 73 78 92 99 99 84 63 59 61 66 78 88 86 89 93 96 89 90 83 76 75 74 67 69 66 67
36 36 33 29 28 26 23 23 22 19 22 25 32 40 46 53 54 54 56 57 64 71 73 76 83 87 91 76 60 71 73 75 83 82 85 84 92 90 82 76 73 71 67 74 76 73 70
36 36 31 29 27 25 22 23 21 19 23 29 38 46 49 55 60 55 57 57 59 66 72 70 69 76 85 95 82 74 72 70 72 71 82 81 78 88 87 81 81 78 82 77 74 71 69
37 35 30 30 27 25 23 24 21 19 23 33 41 49 55 60 61 61 56 56 58 59 63 68 66 64 69 78 87 85 84 72 69 73 76 73 77 85 85 82 83 84 82 79 80 75 73
36 32 31 29 27 26 24 24 21 18 20 29 41 49 60 65 64 60 56 56 59 58 58 58 60 59 60 63 70 79 80 82 79 80 81 78 86 90 90 87 86 87 86 78 74 74 76
35 33 31 30 27 27 25 25 23 19 18 29 40 49 59 68 65 65 62 58 61 58 56 55 56 56 55 59 63 66 67 81 86 86 86 82 84 85 87 81 84 87 86 87 84 89 77
35 31 33 30 28 29 27 26 26 24 19 28 35 46 55 64 66 67 67 67 66 62 59 55 55 58 57 57 58 66 65 66 72 83 89 87 88 87 85 84 86 88 88 86 88 79 84
35 31 33 30 28 30 29 29 29 26 23 21 31 45 57 58 64 73 72 74 69 66 66 63 66 65 64 69 66 64 63 63 66 68 71 79 85 78 79 78 79 79 78 79 79 80 77
36 32 32 27 29 30 31 31 31 28 27 28 29 45 53 58 62 73 77 78 71 66 67 70 73 70 70 69 70 72 66 61 59 62 66 66 70 69 70 68 65 66 59 63 67 68 70
34 34 30 28 29 31 33 32 32 31 31 31 33 31 46 54 60 67 73 78 73 76 77 75 75 78 75 74 73 73 72 70 65 62 63 67 66 67 69 62 68 43 42 46 48 49 57
34 32 30 30 29 31 32 31 32 32 33 33 33 37 38 49 62 67 72 83 80 79 84 84 80 79 77 77 75 76 80 79 76 68 68 66 66 68 68 70 52 42 47 49 50 45 43
36 29 32 29 29 30 30 32 32 35 34 34 35 37 43 49 58 64 71 74 84 81 84 85 80 79 78 81 79 79 82 77 83 78 69 68 68 72 75 74 69 51 58 54 52 56 51
33 30 32 30 29 28 29 33 34 34 36 37 35 35 42 53 62 65 65 65 72 84 78 81 79 79 76 75 75 77 75 72 82 79 78 75 72 74 73 76 65 51 52 59 65 55 58
30 30 30 28 28 28 30 32 34 34 38 40 39 39 43 52 63 66 71 71 60 68 80 75 78 77 75 72 72 69 67 62 64 70 75 75 77 73 72 77 71 53 56 61 62 56 58
28 28 29 27 28 27 27 28 32 33 37 41 43 43 48 54 63 64 66 73 76 64 61 69 74 74 74 72 69 65 68 64 59 63 60 68 68 70 69 63 54 55 58 59 61 61 59

GFSGBSN_prec_cthk_048.txt.gz
RH
38 38 35 36 35 35 35 35 34 30 30 38 44 36 43 44 37 42 50 47 53 57 64 72 65 72 80 87 89 81 88 90 83 68 81 75 64 51 52 58 70 81 83 83 90 88 85
41 39 38 37 37 37 37 36 35 34 32 35 45 48 41 46 42 39 50 50 53 54 60 62 67 84 92 91 93 76 81 85 85 72 74 81 70 55 52 56 66 72 82 84 89 90 89
45 42 39 37 37 36 37 36 33 36 36 32 39 46 52 41 46 43 48 47 50 50 47 51 62 76 89 95 96 79 79 84 88 70 77 84 74 59 54 59 68 73 86 89 89 90 91
44 41 39 38 36 36 36 37 36 34 36 40 32 41 49 48 45 46 50 49 45 49 42 43 53 81 83 87 93 95 81 74 88 65 66 85 84 57 65 66 62 77 85 97 83 91 93
42 42 39 36 37 38 37 36 37 36 37 39 32 35 46 48 46 48 50 58 47 48 45 46 51 68 79 84 89 93 80 86 90 65 80 95 86 65 61 66 71 73 81 84 95 88 89
47 43 39 35 35 38 37 36 35 36 37 37 43 29 40 51 45 55 51 63 56 52 49 47 52 60 69 83 86 79 82 94 97 75 93 98 94 76 68 64 59 66 64 65 73 81 80
48 44 41 37 35 37 37 35 35 36 37 39 39 32 35 51 45 52 57 62 66 57 58 52 54 56 60 78 90 76 79 91 98 82 94 96 98 82 70 56 52 51 56 62 64 72 81
46 44 41 37 36 35 37 33 35 35 34 37 38 42 27 47 47 49 59 63 79 73 61 51 52 51 52 66 73 75 78 91 97 92 96 98 96 89 79 57 54 55 55 59 58 61 72
48 45 40 38 35 34 33 34 33 33 33 35 37 44 25 47 46 50 56 67 78 83 86 64 52 52 58 63 67 74 80 96 97 90 98 97 88 89 79 64 57 57 58 59 59 60 65
52 46 40 38 35 34 33 33 31 31 32 34 37 42 21 45 47 52 59 66 77 85 97 93 57 59 58 66 69 75 79 95 97 98 98 98 89 80 80 72 61 59 58 55 58 61 71
54 48 40 37 35 34 30 30 30 30 31 34 37 37 22 47 47 55 59 65 72 88 97 99 82 56 64 74 72 78 75 86 93 95 97 98 91 77 75 73 58 61 59 57 64 69 66
53 46 39 35 36 31 26 30 30 28 31 33 28 25 27 46 48 55 62 62 78 84 96 99 67 60 71 76 83 84 83 86 97 97 97 98 95 85 74 72 59 60 61 68 69 71 77
51 43 38 35 34 27 25 28 27 28 30 26 25 25 36 47 47 54 64 67 79 86 90 97 78 57 66 75 82 84 87 95 94 97 98 99 97 91 77 69 63 58 61 76 77 78 74
49 41 36 36 30 25 24 24 24 23 22 24 26 32 42 50 51 55 60 66 77 83 95 91 78 58 68 76 74 78 84 95 93 90 98 98 98 94 83 68 66 63 56 65 68 75 67
42 39 37 35 28 26 23 23 23 19 21 23 31 39 48 52 56 53 58 64 68 80 89 95 93 81 63 67 67 64 73 86 90 88 87 94 93 88 85 75 63 65 68 56 61 61 63
41 38 38 31 26 25 22 23 22 18 22 25 35 43 48 53 58 58 57 61 74 78 81 95 99 92 72 65 57 61 62 77 88 86 81 88 94 87 80 76 68 63 59 68 68 68 67
39 37 37 31 26 25 23 23 23 19 22 28 39 47 50 56 59 60 61 62 67 75 77 78 86 87 77 62 58 59 63 73 80 83 79 80 84 89 87 84 81 76 80 77 74 71 68
37 37 35 28 27 26 24 24 23 20 21 32 43 50 54 61 60 63 62 60 62 67 74 75 72 80 88 88 80 74 75 74 78 71 80 80 86 93 93 90 85 79 77 72 76 73 73
36 37 32 28 28 25 25 26 24 22 19 31 42 51 57 63 63 62 61 59 63 61 64 69 72 68 72 83 83 75 74 73 72 69 67 77 87 93 93 89 82 83 82 79 77 77 72
37 37 31 29 27 25 24 26 24 25 21 27 42 49 57 63 65 64 65 62 65 63 62 61 63 65 63 69 71 82 79 80 74 70 69 73 79 77 77 70 73 80 77 80 81 87 75
38 34 32 29 26 24 25 27 26 26 23 26 34 42 53 60 63 67 69 69 64 62 62 62 61 63 64 63 68 71 69 81 88 85 86 83 86 83 79 76 83 84 82 84 83 78 81
37 32 33 30 25 24 26 27 28 26 25 22 27 41 51 55 60 67 72 76 71 68 68 68 68 65 64 69 67 68 69 70 73 84 95 90 92 85 83 78 84 86 82 86 85 84 87
36 31 34 30 28 26 26 27 28 26 25 27 29 41 46 49 57 66 69 75 74 70 69 74 69 67 71 75 77 75 70 68 67 69 75 77 83 83 80 74 72 73 63 67 72 73 74
34 35 35 29 29 27 25 26 26 25 24 26 29 28 41 46 53 60 69 72 79 78 72 73 71 71 74 75 73 73 74 73 70 69 68 72 73 72 73 66 70 45 44 47 52 52 57
34 37 34 31 29 27 25 24 26 26 26 28 28 31 30 44 51 58 71 75 78 78 82 78 76 78 77 74 75 80 83 80 79 78 74 69 71 76 74 74 53 42 50 51 52 49 49
39 35 35 32 30 28 26 25 27 26 27 27 27 30 35 36 53 59 65 69 72 81 82 81 80 80 80 80 79 80 84 81 85 85 81 78 75 74 80 80 68 45 51 53 57 60 58
36 37 37 32 30 29 27 26 28 27 29 29 28 31 35 43 51 52 54 65 69 75 84 81 78 80 79 80 82 83 82 77 84 83 86 82 78 82 80 75 61 56 56 55 61 62 58
35 39 35 31 30 28 27 27 27 29 31 31 32 32 35 43 52 54 56 58 63 66 81 81 86 81 84 81 77 72 71 67 67 69 77 79 80 80 77 76 74 59 63 63 61 61 62
38 34 31 30 32 28 26 27 28 30 32 32 31 33 36 40 50 51 56 60 67 62 56 76 80 81 84 80 75 70 69 69 63 63 59 67 70 74 77 70 63 64 63 64 64 63 66

GFSGBSN_prec_cthk_051.txt.gz
RH
41 40 39 38 39 35 35 34 34 34 32 32 35 40 47 40 42 37 40 54 51 53 50 53 57 57 65 72 75 84 75 91 95 82 86 82 71 62 51 56 62 73 83 90 94 90 85
44 41 40 39 38 34 37 36 35 34 33 37 33 35 40 51 42 44 40 51 51 50 46 45 51 59 77 82 72 79 80 87 88 78 84 90 71 65 52 53 57 64 74 82 88 90 91
53 45 43 40 37 35 37 36 34 35 36 36 40 35 36 46 52 46 43 50 50 48 43 39 50 70 81 91 84 83 85 87 90 78 75 91 84 67 57 55 56 64 75 80 85 86 89
53 53 46 41 40 38 37 37 35 35 37 39 38 40 32 44 48 51 47 54 52 51 46 41 45 73 83 93 89 91 91 92 90 80 74 92 89 72 63 55 55 62 72 85 92 89 92
50 50 47 42 42 39 39 39 35 35 38 39 39 38 34 40 51 48 53 55 57 54 50 46 46 61 80 87 92 90 91 85 84 84 73 94 96 81 70 64 67 69 71 79 96 89 91
61 53 48 46 42 41 38 40 36 36 35 38 38 37 41 33 50 47 58 57 66 58 54 48 46 58 70 86 91 94 87 84 80 88 82 99 96 83 74 69 63 66 67 72 88 90 86
66 61 54 48 43 42 38 39 35 32 30 35 35 37 44 29 49 47 57 62 73 66 61 54 46 52 64 76 86 89 82 98 96 77 95 98 91 75 70 66 62 63 64 69 76 82 91
68 60 55 52 45 40 36 37 32 30 30 33 35 37 42 30 49 50 56 64 77 78 66 54 47 48 55 74 78 81 93 98 97 83 96 99 94 79 74 62 60 59 64 65 65 72 79
67 62 52 53 45 37 35 33 30 29 29 30 32 35 42 29 48 50 57 65 76 84 87 66 49 50 55 67 70 79 92 97 96 87 94 99 92 86 80 69 61 58 55 59 58 64 74
67 62 54 52 43 36 34 29 29 29 27 30 31 35 39 27 47 49 60 67 75 83 96 85 55 57 59 64 72 72 91 96 97 89 93 95 92 93 90 80 66 62 52 51 54 64 67
63 58 55 50 39 35 29 28 27 28 28 29 32 33 27 33 45 54 62 70 77 88 96 96 71 62 64 70 70 72 88 91 96 86 93 97 92 89 90 85 71 60 55 54 55 60 61
63 55 54 47 37 35 25 23 25 26 27 28 26 24 23 39 46 53 64 69 86 86 97 93 61 67 78 73 76 78 92 91 95 95 92 97 93 92 87 89 74 58 54 59 62 62 73
61 57 50 42 36 32 24 21 21 23 24 22 24 27 33 42 49 53 62 74 86 89 96 91 67 71 76 85 80 92 89 95 98 98 98 98 95 87 84 87 76 64 63 77 78 76 72
67 54 49 38 36 28 24 20 20 19 19 23 28 35 40 47 52 54 61 70 86 89 97 85 58 71 82 84 79 78 89 91 89 92 99 97 97 88 79 82 76 68 60 64 72 72 64
64 52 44 37 35 27 23 20 20 18 19 24 31 40 44 49 56 56 58 65 79 90 94 89 70 73 74 72 68 66 77 83 85 87 96 96 97 92 84 79 74 69 65 54 59 60 59
68 52 43 37 33 26 23 22 21 18 21 27 33 40 46 51 55 58 61 66 80 89 92 91 92 78 72 69 67 71 74 77 90 89 84 88 92 92 87 78 72 67 61 63 61 61 56
73 54 41 37 32 25 22 23 23 19 23 29 36 41 48 55 57 60 66 67 72 85 89 91 96 78 69 57 57 66 67 82 87 87 80 82 82 92 89 85 76 69 72 69 64 58 55
82 56 38 36 29 25 22 23 24 23 23 32 37 42 50 58 61 61 67 65 66 76 81 83 86 92 72 64 60 69 75 86 87 85 82 82 88 90 89 80 78 71 65 64 70 66 64
88 58 38 35 28 25 22 23 24 24 22 31 37 43 51 58 60 64 64 65 65 65 73 78 76 83 90 90 85 77 72 81 84 79 80 76 83 91 92 86 83 83 83 78 74 71 72
85 60 38 33 29 26 23 23 24 24 23 28 36 42 50 57 62 67 67 71 68 66 68 69 73 69 76 85 82 85 82 80 79 77 68 63 79 78 79 73 78 84 80 78 76 80 73
80 56 39 31 31 28 25 24 24 24 23 25 31 36 45 55 62 65 70 72 67 62 64 66 66 68 65 70 80 83 78 80 80 78 68 67 75 77 74 72 75 74 74 77 77 71 72
85 50 38 30 32 28 25 23 23 23 23 22 26 33 43 49 57 65 69 73 72 65 63 68 67 63 63 68 67 70 74 79 84 86 88 81 87 79 79 75 77 78 79 83 81 79 77
83 48 36 32 33 29 26 23 23 22 21 22 27 31 38 44 55 62 65 67 72 71 70 65 71 64 70 72 73 72 68 68 68 75 86 93 92 89 85 80 75 73 67 67 72 75 76
77 45 33 35 33 30 27 24 25 24 23 22 22 30 36 42 50 54 61 64 73 77 73 70 68 67 74 73 72 72 71 71 70 70 67 73 74 74 75 68 69 50 49 50 53 53 58
70 45 33 37 33 32 28 26 26 25 23 24 23 24 30 42 46 54 62 70 72 75 81 73 72 70 74 75 75 76 79 77 79 78 76 70 70 76 76 76 58 53 56 55 55 57 59
63 41 36 38 34 32 29 28 28 26 24 24 24 26 26 36 48 52 59 70 76 77 79 79 76 74 76 80 79 80 85 79 84 86 84 82 79 76 84 84 74 59 57 56 56 65 66
62 40 40 36 34 33 31 31 31 29 26 26 27 28 30 36 45 46 52 63 67 71 73 76 74 79 79 83 85 85 84 76 81 83 87 88 90 90 87 83 72 61 63 65 68 68 68
56 43 41 37 34 33 33 36 33 33 28 26 25 27 30 37 44 45 45 47 57 67 73 74 79 82 84 84 85 87 82 76 71 69 74 81 85 86 84 83 80 67 69 75 75 69 67
48 39 39 37 33 33 39 41 34 35 32 26 24 26 28 32 42 44 46 51 54 56 62 72 83 83 84 88 85 80 77 73 69 64 63 67 67 74 78 78 72 74 73 73 69 67 66

GFSGBSN_prec_cthk_054.txt.gz
RH
51 49 45 43 40 41 40 39 37 35 33 33 40 40 33 38 46 40 37 41 48 50 47 46 46 48 55 65 71 72 83 83 97 95 94 94 86 70 51 66 90 74 81 86 82 83 86
54 50 47 44 42 42 41 41 38 37 36 35 40 40 33 35 46 48 40 41 49 48 45 43 42 54 58 66 63 66 80 87 96 94 96 96 84 71 55 52 62 80 88 89 84 91 88
62 62 58 49 46 43 44 42 40 38 38 36 40 39 38 32 40 50 44 44 53 51 47 43 42 60 75 75 75 65 71 86 94 93 96 97 81 67 59 55 56 68 74 81 85 83 82
65 66 64 56 50 48 43 44 40 36 38 37 39 38 40 38 36 50 49 50 55 52 50 45 43 53 77 86 87 75 74 86 90 93 96 99 88 73 67 61 54 67 69 78 80 86 85
67 68 67 65 55 53 45 42 40 34 36 37 38 38 41 44 35 51 49 57 60 57 51 48 46 55 74 84 91 86 87 89 92 83 95 96 90 78 70 68 61 65 71 74 87 84 86
74 69 67 67 62 55 46 40 37 31 32 32 38 39 41 46 32 50 50 61 66 64 53 47 46 58 68 86 97 88 92 97 93 83 89 94 94 84 74 67 55 52 59 68 75 77 85
81 70 67 65 62 54 45 37 32 29 30 32 36 38 40 45 31 49 52 62 74 73 58 50 49 55 66 84 85 95 92 98 91 86 86 99 98 79 69 63 56 54 54 63 66 72 87
82 70 67 65 63 54 43 33 28 27 29 31 34 35 38 43 31 50 52 61 76 79 66 45 49 53 60 81 89 94 92 97 98 90 88 98 96 84 76 68 61 56 54 55 62 73 92
82 69 69 65 57 51 42 32 22 27 28 29 33 34 37 38 39 48 53 62 76 81 82 52 50 56 64 82 86 85 88 91 84 87 88 94 93 88 77 74 63 58 54 54 54 61 81
85 78 68 62 54 49 40 29 20 26 28 29 31 35 36 29 44 46 53 67 77 81 90 60 56 54 62 69 86 92 91 98 87 88 86 98 95 85 77 73 64 55 52 52 51 47 51
87 78 64 56 52 47 37 23 19 22 27 29 31 33 29 31 44 48 57 69 78 86 90 74 68 58 57 74 78 93 91 98 90 80 91 97 95 87 82 76 66 60 48 48 47 49 54
88 81 65 56 51 45 36 21 18 21 24 28 26 29 26 42 46 48 58 69 83 92 92 73 64 68 64 65 81 88 97 96 91 82 94 97 95 91 86 79 72 63 55 54 53 56 58
92 85 67 57 49 40 33 20 19 21 20 23 28 32 38 43 48 51 56 71 86 92 95 72 65 74 72 77 80 88 93 94 90 91 97 98 97 92 89 83 78 68 60 70 68 69 56
94 89 71 58 50 39 29 20 21 21 20 24 32 39 42 43 47 52 56 66 83 93 87 64 67 78 74 77 81 88 93 99 91 87 91 96 99 93 85 82 75 69 59 56 58 58 50
98 95 75 58 48 38 27 21 22 21 22 27 34 41 42 45 50 53 59 68 84 91 93 60 60 72 72 77 79 82 93 90 91 92 98 95 94 89 88 81 74 78 69 54 54 53 50
98 97 80 64 48 37 27 21 22 21 23 29 37 42 44 47 51 57 59 67 83 89 91 80 76 62 62 69 70 79 85 88 90 90 86 85 91 84 84 84 77 74 67 61 59 61 47
97 99 88 69 48 35 25 22 22 21 25 31 38 42 46 49 53 58 63 67 73 85 89 97 80 69 62 57 58 67 74 83 87 90 85 80 76 90 81 77 79 71 68 61 57 53 49
97 99 93 75 49 33 24 22 22 22 25 33 39 41 46 50 55 57 66 64 69 80 84 89 90 62 55 57 57 66 73 80 87 84 84 81 81 92 92 80 72 69 63 58 59 64 56
99 99 95 74 51 31 26 22 22 23 22 33 39 40 46 50 54 55 60 61 64 67 75 81 85 92 68 62 61 63 73 79 86 82 78 78 83 92 95 89 80 76 66 60 59 60 63
99 99 97 73 50 32 28 23 22 22 20 30 36 41 46 50 54 57 62 63 63 67 70 72 74 77 85 77 72 69 74 80 82 77 78 75 77 78 69 68 66 71 68 67 67 72 65
99 98 96 66 46 34 29 23 21 21 20 27 31 35 40 48 53 55 61 65 62 64 66 67 70 70 71 79 78 76 80 81 80 81 75 68 75 78 71 71 73 72 72 75 77 65 65
97 99 90 60 39 36 31 24 22 21 21 26 26 30 37 44 51 56 58 63 61 63 66 65 63 64 63 66 70 74 73 77 78 82 80 74 78 71 74 70 74 75 71 69 68 64 66
97 99 93 61 35 37 32 25 23 21 22 22 23 27 34 40 50 54 55 60 64 66 65 66 68 65 66 70 70 70 71 72 72 82 87 84 78 78 76 72 71 70 64 64 65 67 66
97 98 93 55 35 39 33 27 23 22 22 23 23 28 31 38 45 50 53 59 64 68 68 65 61 64 71 72 70 70 70 71 70 70 73 80 86 85 83 75 72 60 59 58 57 55 55
96 97 81 48 36 39 35 29 25 23 23 24 24 27 30 35 41 50 53 58 64 69 73 67 67 68 69 71 71 72 75 75 75 74 71 68 67 73 71 65 56 60 58 58 58 62 60
97 96 82 52 40 39 34 31 27 25 24 26 26 23 26 32 41 49 52 58 68 69 69 71 71 70 71 73 72 73 75 77 80 82 80 77 73 70 70 73 67 60 61 61 58 62 63
97 91 74 49 38 38 36 34 32 30 27 28 27 23 26 32 41 44 47 53 64 68 70 73 76 74 72 72 72 75 76 73 76 74 77 81 83 85 82 76 68 68 67 66 65 67 65
96 85 60 47 44 35 35 35 38 33 30 28 27 25 24 31 38 38 42 48 54 61 67 67 74 75 76 76 74 74 74 76 74 71 71 71 76 79 80 77 74 69 71 71 72 69 66
93 81 55 44 39 36 37 39 42 35 34 26 26 27 24 25 37 38 38 38 41 50 62 69 73 76 83 82 79 81 79 75 68 64 65 69 66 67 69 76 76 76 76 74 70 67 64

GFSGBSN_prec_cthk_060.txt.gz
RH
77 78 76 72 68 66 65 64 62 60 47 39 31 34 36 37 37 35 35 50 41 45 47 45 49 44 41 51 57 63 77 80 85 88 96 85 80 80 78 75 96 90 78 88 82 81 77
82 81 81 82 79 74 72 66 62 61 50 36 29 35 35 37 37 36 33 44 50 47 54 51 48 44 52 57 68 57 69 75 85 86 95 94 85 84 75 76 90 85 83 79 87 84 93
85 84 83 84 84 85 78 75 60 58 49 33 29 29 32 36 37 39 32 44 52 53 57 54 45 42 48 59 69 64 62 70 79 87 93 94 95 92 77 81 83 87 85 89 81 89 81
84 85 88 86 88 88 85 75 68 59 47 33 29 27 33 36 38 43 31 44 52 58 60 53 41 43 54 65 71 69 62 74 77 85 92 90 97 96 83 72 85 87 88 97 91 77 80
87 87 89 88 93 91 79 78 72 62 48 31 28 28 32 36 36 40 32 46 55 61 61 48 43 50 69 71 79 77 69 70 76 82 93 91 89 92 86 78 80 84 86 95 93 76 88
72 88 88 94 94 93 87 74 63 57 44 26 25 29 32 35 35 35 38 45 57 66 64 54 50 58 76 75 86 81 70 72 71 89 96 96 98 91 88 84 83 86 82 87 92 76 75
70 82 88 96 92 94 85 73 62 47 38 25 28 29 31 34 36 32 41 51 74 84 67 53 51 52 59 78 92 88 70 75 91 98 98 95 95 85 71 68 65 63 73 79 79 85 79
67 72 85 95 95 97 93 73 57 49 33 24 30 29 31 34 32 37 46 60 73 79 73 49 44 50 62 87 95 90 78 92 98 97 96 98 92 83 82 74 66 69 72 74 76 84 78
56 75 76 93 96 98 96 77 56 45 29 24 29 30 32 31 32 42 47 64 70 78 78 56 51 52 68 90 95 91 92 93 96 98 98 98 94 94 84 77 81 74 66 80 78 80 79
46 65 70 89 94 99 96 81 57 39 28 25 24 27 28 28 41 44 53 62 69 78 90 67 62 58 68 82 97 89 96 97 97 98 93 97 92 91 84 84 73 68 59 68 69 73 80
42 60 72 77 95 99 98 82 56 35 29 24 23 21 23 31 41 46 57 59 71 79 89 61 56 54 71 86 91 95 96 97 88 88 81 94 91 93 79 67 70 72 70 83 75 63 66
48 53 72 72 95 97 98 89 56 32 30 24 24 24 30 36 43 46 51 59 77 88 80 62 54 61 73 81 87 97 95 91 87 86 87 95 95 96 90 74 71 65 66 68 61 55 65
54 51 66 69 96 97 98 84 59 33 30 25 27 29 37 40 45 44 51 67 85 75 75 64 57 64 70 77 84 93 87 88 89 90 94 93 98 94 87 76 70 63 64 82 77 71 67
55 55 63 72 95 97 98 82 62 35 29 26 30 30 35 39 42 43 58 72 81 61 68 59 61 66 74 77 76 82 87 75 74 79 99 96 98 92 86 77 71 66 60 72 64 67 58
56 59 61 71 96 98 98 87 59 39 28 28 31 32 39 37 41 50 62 72 78 73 55 57 64 70 70 67 75 85 90 77 78 84 89 95 96 94 88 77 75 77 78 65 71 59 69
56 65 62 70 92 99 99 91 59 39 28 28 32 37 41 39 45 53 61 65 70 73 55 51 63 61 66 72 75 80 82 77 76 82 81 83 97 93 89 81 75 75 68 79 77 76 59
61 74 69 74 88 99 99 89 60 37 27 30 33 40 39 42 48 55 59 62 69 73 64 58 58 64 67 68 68 70 81 73 72 74 75 75 80 91 88 88 82 80 81 74 69 70 82
69 78 76 75 88 99 98 91 59 36 28 31 35 43 39 44 52 50 57 60 65 73 71 61 59 64 68 62 63 71 83 77 74 71 72 78 77 92 92 91 86 81 79 75 86 78 66
78 81 83 82 93 99 98 86 62 34 26 32 36 40 40 45 53 50 50 55 62 68 76 62 56 62 68 61 66 72 76 82 83 80 81 79 84 93 93 84 83 82 77 75 72 74 75
81 85 82 83 96 99 97 85 56 32 27 33 34 38 41 45 50 51 48 51 58 63 64 63 61 53 58 60 63 67 76 78 82 83 80 83 80 82 86 78 71 76 73 74 74 80 67
84 90 86 91 98 99 97 84 51 29 27 34 35 37 31 42 47 50 49 48 52 58 61 62 63 70 62 64 69 69 71 80 83 81 80 81 84 81 77 80 81 77 72 68 73 69 71
98 90 93 93 95 99 96 84 42 28 28 30 30 33 32 39 42 46 50 50 53 54 60 57 59 60 70 71 69 70 66 71 76 82 80 78 80 75 85 76 75 76 72 70 69 70 70
99 94 96 96 97 99 94 80 35 28 24 27 27 26 29 37 43 46 47 49 51 49 56 54 57 58 63 71 66 67 67 67 72 73 74 76 78 80 75 64 62 66 59 63 66 68 68
99 91 94 97 97 98 91 71 35 28 23 22 22 24 32 36 42 44 48 48 50 49 50 51 55 58 58 59 65 67 68 68 71 74 75 77 78 80 82 69 75 57 54 54 58 62 62
99 96 96 99 99 97 90 69 38 27 23 22 22 25 31 37 42 44 47 49 50 50 49 48 48 51 55 58 60 65 69 70 70 68 68 71 75 81 86 79 65 64 58 59 62 69 65
94 84 91 99 99 96 87 66 40 26 23 23 24 27 31 36 41 43 46 48 52 51 52 50 51 51 55 59 61 66 69 64 67 67 64 64 63 67 65 68 63 64 61 60 59 71 64
98 89 97 98 98 93 85 64 36 25 23 25 26 32 30 34 38 40 45 49 50 50 52 54 53 55 56 62 66 64 70 63 68 69 68 67 69 73 76 76 67 65 65 66 72 71 70
98 99 99 99 97 94 87 57 32 28 27 29 30 33 32 33 41 40 40 45 48 47 50 49 55 57 61 68 70 70 68 64 67 69 69 73 74 75 74 81 80 71 74 75 75 73 73
93 91 98 99 97 93 86 66 34 32 32 34 35 33 33 33 42 40 41 45 47 48 49 48 52 55 60 67 66 69 67 67 66 73 67 71 67 72 67 70 64 62 58 64 65 69 71

GFSGBSN_prec_cthk_063.txt.gz
RH
80 76 80 83 82 83 83 85 85 75 66 57 53 35 34 37 34 35 33 31 37 50 38 49 47 49 50 55 53 49 55 72 83 88 93 91 82 88 80 76 87 92 93 88 82 86 72
80 81 78 81 87 87 89 87 85 79 65 57 56 35 31 31 35 37 35 32 37 48 46 52 52 52 50 51 53 60 52 68 81 87 90 89 85 88 81 72 87 90 88 95 86 87 87
60 70 81 85 83 90 91 88 89 84 66 61 51 35 30 32 35 38 37 30 40 47 52 55 54 43 45 47 59 61 60 60 74 90 93 94 88 90 89 78 84 90 93 94 97 96 90
42 55 66 82 83 84 93 91 92 82 67 59 44 33 29 32 34 35 37 29 41 48 55 58 47 43 49 66 70 68 65 62 73 86 94 95 93 92 94 80 86 96 97 97 93 91 91
36 37 53 63 79 82 92 94 91 90 66 55 39 30 30 32 34 34 32 33 42 51 58 54 43 51 62 71 74 80 70 62 79 83 88 94 94 97 97 92 92 94 97 96 89 93 96
45 36 38 53 65 83 82 95 92 96 69 53 33 33 31 32 35 35 28 37 45 54 63 58 54 54 62 67 80 85 74 64 81 83 87 95 95 98 95 93 94 81 83 84 89 92 92
44 45 37 44 54 72 84 87 95 97 73 47 31 31 31 33 34 30 34 44 61 70 64 44 46 48 64 79 94 90 79 74 79 89 91 92 95 97 85 80 78 76 79 75 81 85 96
42 44 43 40 50 60 82 84 97 98 76 41 31 30 32 34 31 26 38 51 60 71 62 49 42 47 70 91 98 84 70 80 86 89 90 92 90 93 89 83 77 74 77 76 75 83 92
37 47 48 43 48 56 69 83 97 97 80 35 31 28 29 29 28 36 40 54 60 68 72 58 52 60 77 93 95 86 76 90 96 91 92 89 81 92 82 86 83 82 70 64 73 81 88
40 44 51 50 47 53 60 85 90 96 83 33 32 28 26 23 35 40 45 54 59 65 76 57 55 68 80 96 89 81 87 93 98 98 98 97 92 89 87 81 75 73 71 74 82 94 94
26 40 50 53 50 53 59 81 89 95 79 33 32 27 25 28 35 43 48 54 59 69 76 52 53 62 87 93 94 96 91 95 98 97 94 96 92 97 94 74 81 75 63 66 85 82 79
23 38 48 54 53 54 59 79 83 96 73 36 32 29 30 34 38 42 46 56 66 74 68 53 53 68 81 85 95 96 98 96 91 88 97 93 95 95 96 88 79 71 76 88 84 84 82
28 37 45 54 56 57 58 75 86 95 72 40 36 32 35 37 39 39 46 64 74 65 63 54 58 67 75 83 87 89 89 90 90 91 98 96 98 91 90 83 77 76 75 98 97 90 78
41 48 50 58 65 61 59 78 89 94 73 44 38 32 36 38 39 38 53 68 66 57 61 53 60 63 71 78 84 83 87 87 85 88 97 98 98 88 81 76 70 72 71 77 83 82 69
61 61 58 60 65 64 60 86 91 92 72 47 38 32 36 37 37 44 57 69 70 57 53 55 59 63 66 71 76 78 77 81 88 86 94 98 97 91 82 75 69 69 73 62 65 59 68
82 74 67 63 68 68 65 86 87 93 74 50 36 34 39 38 41 48 58 64 66 52 54 59 63 58 62 66 73 74 78 76 83 83 84 88 93 92 83 75 69 68 68 73 79 69 62
91 78 65 76 78 76 67 89 92 88 73 49 38 36 39 42 44 50 58 60 65 56 53 57 59 65 59 59 63 72 77 77 76 78 76 80 86 93 83 84 82 77 74 71 72 79 84
96 76 58 87 88 82 73 92 94 88 73 50 36 38 41 43 48 52 56 61 60 61 59 52 61 70 66 56 61 71 77 72 72 75 75 75 84 88 88 84 81 79 75 73 82 75 75
85 69 68 95 94 87 82 95 92 89 69 46 37 39 42 46 50 49 52 58 64 66 57 58 57 63 65 59 64 73 68 70 68 68 72 74 80 90 90 84 80 82 78 75 76 74 76
68 63 67 98 91 85 87 97 94 84 67 41 35 41 43 46 49 51 50 56 63 64 60 52 53 56 56 63 65 73 76 76 75 72 69 69 76 78 80 77 75 81 78 78 79 87 76
59 58 78 96 89 89 98 98 93 77 65 40 33 33 32 42 47 47 46 51 58 60 61 59 60 62 55 58 58 67 71 76 81 79 79 79 81 78 76 75 73 71 72 76 78 75 75
46 64 98 98 91 89 99 98 93 80 61 40 34 36 33 36 40 44 49 51 54 58 59 60 60 65 68 61 65 65 65 68 74 77 77 79 82 78 83 76 76 76 74 71 70 72 70
48 89 98 98 86 96 98 97 94 82 45 38 30 30 31 38 43 44 49 49 52 54 59 57 57 60 67 70 58 60 60 62 66 71 73 74 74 79 80 69 70 75 72 70 70 70 70
60 93 98 98 95 96 98 96 93 60 38 32 25 28 34 42 40 42 46 49 51 48 54 54 54 54 56 57 62 61 63 67 69 69 72 76 75 78 80 70 73 58 55 57 66 70 70
65 93 97 98 99 99 99 98 91 45 38 30 25 30 32 40 40 43 45 50 49 48 48 50 51 50 53 55 60 64 69 64 70 72 71 73 76 80 82 81 69 65 65 65 65 73 72
66 96 97 97 90 96 98 96 78 49 34 28 25 29 33 37 44 44 46 50 49 49 50 47 47 50 53 56 58 62 68 64 73 69 65 69 69 70 72 74 72 67 68 66 65 76 69
69 94 97 96 92 94 98 96 72 44 32 27 26 29 36 39 43 44 48 50 47 47 48 48 48 50 52 56 59 60 64 58 66 67 66 67 69 74 77 81 76 71 70 71 76 76 75
79 98 98 98 97 98 98 91 61 39 29 28 28 32 36 38 44 45 46 48 44 43 47 46 49 51 54 57 59 59 59 56 59 62 62 65 71 74 80 86 85 71 73 78 78 80 81
81 97 98 94 98 98 97 88 54 39 29 31 31 36 36 36 44 47 48 50 48 47 45 46 47 50 53 54 56 59 59 59 60 65 61 67 65 71 67 70 62 62 63 63 62 62 61

GFSGBSN_prec_cthk_066.txt.gz
RH
45 49 51 54 64 73 83 88 80 88 88 86 66 61 51 36 34 34 35 34 32 35 46 37 42 42 52 56 46 45 43 45 70 88 96 98 89 98 91 67 73 84 78 84 87 82 77
44 42 44 50 50 66 71 76 88 86 92 89 79 64 47 36 34 35 38 37 33 35 45 44 46 49 54 47 47 49 51 48 67 88 93 97 95 95 94 69 85 93 81 79 94 90 85
49 48 43 40 47 50 62 70 73 90 88 91 85 65 43 34 35 34 37 38 30 39 45 48 50 50 42 40 50 55 55 55 65 76 92 96 95 96 97 79 80 97 94 89 88 92 87
39 46 51 45 40 48 54 59 73 81 89 91 92 68 36 37 36 36 36 34 32 40 48 51 51 42 39 50 59 63 61 57 66 79 93 96 89 91 96 89 79 97 94 96 93 96 94
40 39 42 48 46 42 52 57 62 70 87 91 94 71 34 38 38 38 37 30 36 44 52 50 42 46 49 56 61 68 72 65 66 86 93 95 93 89 94 94 83 96 96 93 94 90 97
30 35 41 43 49 45 47 54 57 68 78 90 94 75 33 36 39 38 31 34 38 48 54 52 48 47 56 67 75 79 81 66 69 85 91 97 93 88 93 94 85 80 98 96 95 96 92
27 27 32 42 45 51 45 55 57 65 69 86 86 75 34 36 39 34 33 42 54 63 52 40 39 42 54 73 87 89 81 64 76 85 92 97 96 83 90 91 77 74 91 94 95 94 94
20 22 22 36 47 53 49 51 55 64 69 80 82 71 34 34 38 29 38 44 53 60 53 45 43 51 72 87 94 83 76 77 82 93 91 95 96 87 91 95 80 81 80 88 92 90 92
26 24 20 22 34 53 53 51 53 61 70 76 80 69 34 34 39 35 40 44 54 58 59 48 53 63 76 91 87 75 82 89 89 88 89 89 84 92 97 89 87 83 77 76 76 78 88
19 23 24 13 27 50 54 55 54 58 71 77 72 68 35 35 40 38 41 46 55 55 58 45 59 74 85 90 87 88 94 97 91 91 90 88 89 91 97 85 78 84 77 78 73 78 86
21 21 25 21 13 36 58 58 56 59 70 75 68 63 35 37 41 41 39 47 53 56 56 44 58 77 90 89 90 96 90 87 85 88 91 90 84 87 91 84 79 78 80 82 83 89 90
33 38 32 29 27 35 60 65 62 60 69 77 69 64 35 41 42 41 41 50 56 59 53 52 62 72 78 94 93 95 98 95 92 90 89 89 86 83 81 79 80 80 82 86 91 96 97
43 61 56 44 42 32 56 65 65 62 69 74 74 68 39 44 41 38 40 58 60 56 50 54 63 70 76 91 92 94 93 93 90 93 94 93 90 95 81 78 77 77 79 95 93 97 87
67 81 77 66 57 48 57 74 67 66 70 79 77 70 45 44 39 37 48 62 55 51 53 54 61 69 74 76 80 88 87 94 91 87 92 97 98 98 90 83 81 78 77 92 90 86 78
75 92 94 88 84 70 63 80 76 69 75 81 78 68 50 43 39 43 52 64 53 48 47 55 62 71 72 70 75 81 88 93 92 86 88 90 93 95 87 82 77 77 79 74 81 73 73
73 86 93 97 89 68 81 81 79 74 78 86 82 68 48 42 41 50 55 58 53 48 49 55 62 64 68 68 68 75 81 85 85 86 80 82 87 88 82 77 74 71 68 76 77 74 67
78 85 86 97 81 63 75 91 75 82 90 88 81 70 46 44 47 54 54 59 51 48 50 54 66 64 61 66 67 72 75 75 79 83 79 75 75 83 74 82 81 70 66 66 66 70 70
70 77 78 81 73 69 98 92 77 93 92 87 86 63 45 47 51 52 52 56 52 47 49 58 67 67 60 60 67 72 70 72 72 71 73 73 76 84 82 75 75 73 68 67 74 71 73
71 67 67 70 70 95 98 92 98 95 88 86 87 57 49 50 53 52 50 55 54 51 51 57 62 63 58 58 67 67 66 66 68 69 70 68 78 88 84 75 73 74 70 69 69 73 78
63 59 56 61 81 93 95 97 89 97 94 87 78 52 50 49 52 51 52 56 59 51 50 56 57 59 58 56 56 62 65 62 64 65 66 65 74 74 76 72 75 79 75 75 75 85 78
62 59 51 67 94 98 92 95 98 98 94 90 66 41 38 45 50 53 53 56 56 52 49 51 55 54 53 58 62 67 63 67 65 63 63 64 71 73 73 72 73 72 74 76 75 75 79
61 53 52 74 98 98 99 88 99 98 96 91 53 38 35 39 46 53 54 55 54 57 45 48 54 53 50 53 57 61 65 68 70 72 72 72 80 75 79 72 72 73 72 72 73 74 76
57 48 53 73 97 96 98 95 95 97 97 78 43 35 29 40 48 50 48 48 55 56 56 53 56 65 67 58 56 56 60 62 67 70 71 74 73 78 81 74 70 73 69 73 74 73 74
58 50 61 89 98 97 98 97 98 98 95 81 36 33 33 42 45 46 49 48 55 55 55 54 55 57 62 62 59 57 58 61 62 64 68 71 72 73 76 68 74 60 59 64 73 73 74
54 53 55 93 98 97 98 98 98 98 98 77 35 33 33 43 46 50 55 52 55 55 55 51 52 51 53 56 61 65 65 59 60 63 64 68 72 76 76 76 66 64 64 62 64 71 69
47 44 54 95 98 97 96 98 98 98 82 47 34 34 33 40 50 53 57 49 54 53 55 53 51 51 53 56 59 60 65 62 66 64 62 64 67 69 74 73 69 60 61 62 63 69 67
47 41 67 94 97 95 95 96 97 96 63 47 31 35 37 42 48 52 51 50 51 50 51 50 49 52 53 55 59 59 59 53 64 64 63 67 66 69 70 69 62 57 62 65 70 65 69
47 48 80 97 95 97 95 98 98 83 54 45 31 34 40 43 50 50 49 49 47 46 47 46 50 51 54 55 58 57 55 54 57 57 58 60 64 67 69 72 70 60 66 70 68 66 66
49 60 87 96 96 97 98 98 96 74 47 36 31 34 40 42 51 52 52 51 48 47 45 46 45 47 48 51 51 55 54 55 55 62 56 61 55 60 59 57 54 55 58 59 59 58 56

GFSGBSN_prec_cthk_069.txt.gz
RH
43 45 46 47 44 45 48 53 62 62 64 78 84 89 89 89 60 36 41 45 42 36 40 40 39 37 42 54 48 48 46 45 46 46 79 95 97 97 93 91 87 80 75 73 82 89 87
35 38 42 46 48 45 45 47 56 62 62 69 78 81 92 86 59 40 40 43 43 37 37 45 45 44 49 48 40 43 45 48 50 47 74 90 93 98 92 95 82 66 86 76 94 86 90
30 36 39 41 40 46 47 45 51 59 65 64 70 75 84 86 62 48 40 43 44 34 40 49 51 47 39 32 39 54 57 55 53 52 77 93 94 98 91 95 81 65 86 82 96 93 93
23 30 28 33 40 41 46 49 48 54 61 65 74 76 83 73 61 60 43 46 39 39 45 50 50 37 33 38 51 58 62 62 54 57 81 94 97 95 98 95 87 77 91 98 97 91 96
24 24 25 24 30 36 44 46 50 53 60 63 69 69 78 69 55 57 44 40 42 43 47 50 37 40 40 50 59 66 70 72 69 60 86 93 98 95 98 94 86 85 96 94 94 93 93
32 35 29 22 22 29 32 47 51 51 61 64 67 67 76 62 54 55 37 41 42 46 48 46 40 45 42 51 69 75 80 77 70 79 92 96 95 96 97 92 91 87 96 96 92 94 94
39 38 38 37 24 23 27 32 47 62 57 60 68 72 74 58 54 56 36 44 48 54 49 37 35 40 48 66 87 95 86 77 68 92 94 91 89 86 87 96 96 87 92 97 95 95 94
26 26 32 32 31 17 11 22 41 62 57 65 61 73 69 55 55 49 36 46 51 57 51 43 46 54 66 83 91 79 83 77 77 91 94 90 91 79 82 90 93 90 91 97 96 96 90
23 21 22 24 30 30 16 10 31 55 66 65 63 72 70 52 54 50 40 44 50 54 54 44 56 69 74 79 74 81 80 84 86 97 93 89 86 79 83 93 95 86 82 93 97 96 89
23 22 21 18 17 22 28 17 21 47 61 63 66 76 64 55 52 54 43 43 49 53 53 45 59 73 79 87 91 95 96 98 94 92 93 90 90 81 86 98 91 84 80 80 88 84 92
30 30 32 35 37 34 24 27 20 42 61 67 67 75 62 62 55 57 42 40 50 54 44 41 54 70 78 90 94 98 93 89 84 82 87 88 88 82 88 97 87 86 77 75 81 90 88
43 41 40 40 51 53 43 35 29 45 61 72 67 74 74 65 58 64 42 40 53 55 38 50 59 76 84 91 96 92 91 89 89 85 88 89 86 88 96 91 85 83 87 94 91 89 88
49 59 54 49 72 82 78 52 40 55 71 74 70 81 70 61 59 65 40 45 59 51 44 49 59 74 81 89 93 93 93 94 94 95 91 89 90 94 92 89 84 82 86 97 98 98 96
61 63 60 68 87 94 97 71 48 64 76 79 75 75 74 62 64 51 40 57 52 42 50 51 61 68 73 79 85 90 89 95 90 87 92 91 94 92 84 82 83 80 77 83 85 96 93
68 62 59 79 86 89 96 88 73 79 83 87 82 82 74 65 70 46 44 63 47 45 45 54 63 68 68 67 80 87 91 91 92 89 96 96 93 88 75 76 75 83 77 68 75 78 85
71 66 63 80 82 83 96 90 60 87 98 83 83 84 76 67 66 46 52 58 49 42 49 55 62 63 66 64 74 83 86 84 82 85 84 88 93 93 82 71 79 73 70 76 79 80 71
75 65 71 77 72 76 89 76 59 96 97 92 92 84 77 75 56 51 54 59 52 44 49 56 62 60 59 60 66 78 81 82 77 78 76 76 79 90 89 85 82 71 74 76 77 76 76
76 68 74 68 64 77 82 64 83 97 88 79 90 92 86 84 54 52 52 57 49 47 52 62 63 62 57 54 63 71 74 80 81 76 79 74 78 83 85 80 76 73 69 66 72 71 72
79 73 71 60 62 69 86 87 98 97 93 94 98 96 87 68 50 50 44 57 48 45 54 65 62 59 59 59 61 62 64 66 68 66 68 66 70 78 72 69 71 73 68 64 62 64 69
84 75 67 55 56 68 88 98 97 91 98 98 97 97 93 61 48 45 48 59 53 48 55 62 61 58 59 56 57 57 62 62 59 63 63 61 66 67 72 67 69 72 70 70 70 74 69
86 69 61 54 58 66 90 98 93 98 98 98 95 88 78 47 48 48 50 58 52 53 53 60 61 58 55 61 59 58 58 61 59 58 57 59 68 69 66 66 67 69 69 69 72 69 71
80 70 60 54 54 63 96 94 93 97 98 98 98 84 52 37 45 51 53 56 51 53 52 55 53 54 52 57 59 62 59 57 57 56 55 56 67 61 68 66 66 67 67 69 70 70 68
83 70 59 52 47 79 98 94 97 97 97 98 98 77 37 43 48 54 52 53 55 52 51 51 49 49 55 57 57 55 58 63 61 62 65 64 68 70 76 69 65 69 64 66 68 70 70
76 67 54 51 62 92 95 94 95 97 98 98 96 65 36 46 49 52 49 51 55 52 48 54 59 61 57 55 56 58 61 65 64 65 64 65 67 69 74 67 68 56 57 59 68 69 70
70 57 50 51 83 96 94 97 97 98 97 97 73 48 37 46 50 53 51 50 57 56 56 55 55 59 61 57 57 59 62 60 63 62 65 62 65 70 67 69 57 56 57 56 57 60 59
64 49 50 52 86 94 97 97 98 98 98 93 66 44 38 44 54 53 53 51 55 57 57 55 55 54 55 57 58 61 64 60 62 59 59 61 63 66 71 70 67 53 56 56 58 62 61
55 45 49 67 96 96 96 97 96 98 97 96 63 41 41 46 52 55 57 56 56 55 55 54 52 53 53 55 56 56 58 54 61 62 62 63 64 65 64 65 55 49 52 54 57 52 57
44 44 51 80 93 97 96 95 97 96 97 79 48 41 42 46 53 56 57 56 53 50 52 52 54 52 54 54 54 53 53 52 53 51 52 55 59 60 61 63 60 50 52 57 56 59 59
40 43 56 83 87 93 97 97 98 97 82 56 44 39 43 45 52 56 54 54 53 48 47 50 48 49 50 52 51 54 53 53 54 57 50 54 49 53 54 53 49 48 49 52 52 50 51

GFSGBSN_prec_cthk_072.txt.gz
RH
33 34 34 34 36 39 43 47 48 46 49 59 62 60 62 74 75 76 60 53 55 51 44 49 50 46 42 47 43 43 41 40 40 40 44 51 59 79 78 74 70 80 68 56 57 57 75
28 31 32 29 30 35 37 36 45 51 47 50 60 60 61 70 72 78 56 51 59 58 43 43 51 54 47 48 35 34 37 42 46 46 47 52 56 96 90 79 80 92 86 62 58 63 74
26 25 25 27 25 28 33 36 38 44 53 48 56 62 58 73 74 70 55 53 57 59 40 44 59 53 43 28 27 34 45 53 54 50 52 59 74 97 97 93 78 82 88 80 65 63 85
33 33 31 27 26 26 29 33 36 36 45 56 54 63 60 66 74 66 60 50 55 54 45 50 53 42 28 27 35 46 55 55 59 58 52 75 91 97 99 96 95 95 92 90 64 88 93
39 38 38 37 32 26 26 26 27 33 45 54 59 66 64 68 72 72 66 46 47 57 51 49 44 32 35 40 43 51 62 64 68 67 59 82 90 97 96 95 98 95 88 90 82 94 97
40 39 38 36 36 35 27 22 24 25 38 47 57 64 65 70 65 70 56 52 42 55 52 46 36 39 38 45 56 71 81 79 76 70 74 88 93 91 95 96 96 88 90 95 97 93 96
42 40 37 36 35 35 34 27 16 14 21 35 57 69 73 75 64 66 61 50 45 57 54 35 33 42 47 62 71 86 86 80 78 70 89 95 95 92 92 98 86 80 76 87 88 94 96
43 40 37 33 30 32 32 33 30 17 12 21 53 64 67 81 67 66 69 53 52 64 52 36 44 52 66 72 71 74 76 80 68 86 92 94 94 92 96 97 91 78 78 94 91 97 94
38 37 35 30 24 22 21 22 25 29 19 14 46 54 66 78 70 65 54 57 57 63 48 41 48 63 71 80 77 84 83 81 87 97 97 95 91 86 89 95 93 90 85 89 98 96 95
37 33 30 28 27 26 24 26 28 27 26 17 43 67 64 75 71 78 58 55 57 66 50 37 48 63 73 83 88 90 97 97 95 97 96 90 87 81 82 92 92 91 84 79 90 92 97
36 34 34 33 33 36 37 38 40 37 32 24 37 67 66 73 78 75 60 62 60 65 44 34 50 68 79 86 89 93 91 96 94 93 95 96 89 81 80 90 89 89 80 80 82 89 90
38 44 48 51 48 47 51 67 76 76 59 31 40 66 72 71 83 76 66 65 64 56 39 43 58 72 85 85 90 88 89 85 84 91 95 93 85 87 89 97 93 87 86 90 92 94 93
53 59 64 67 65 57 61 80 91 94 76 38 55 75 78 77 83 75 68 62 73 51 40 44 60 70 81 84 88 92 89 87 86 86 93 94 95 93 96 94 90 89 90 97 98 96 95
63 70 73 76 70 57 66 77 89 97 83 59 63 87 83 85 90 79 64 70 67 39 43 45 58 67 79 87 91 92 94 94 87 83 88 87 95 94 95 94 95 90 85 87 91 95 95
73 83 87 84 67 67 69 69 86 94 62 70 80 82 84 97 90 75 66 77 47 40 39 52 57 67 74 82 89 93 95 95 90 83 86 89 94 91 86 81 80 85 83 69 79 84 91
89 93 90 77 68 75 65 73 91 74 61 79 91 87 87 96 90 70 74 67 49 37 43 49 58 61 71 82 86 83 90 86 90 92 87 87 88 88 81 75 70 71 69 69 72 81 86
92 93 86 77 77 70 70 86 88 79 72 90 96 90 98 95 83 78 76 56 47 41 47 50 57 60 64 74 84 84 80 83 89 80 78 80 80 90 77 78 79 69 68 66 66 68 74
94 95 88 73 75 72 70 88 95 97 83 98 98 95 92 91 88 80 77 49 47 45 50 52 60 61 59 67 79 85 81 77 75 75 75 76 87 90 88 87 80 74 70 66 72 69 70
92 93 89 71 70 68 73 88 83 97 98 97 96 98 98 92 94 83 59 49 45 45 51 54 60 59 62 65 71 75 78 73 70 71 66 63 76 82 80 75 74 74 69 65 62 63 69
93 93 84 71 64 67 69 91 95 99 97 98 97 89 97 93 83 61 52 53 47 46 52 54 56 57 59 59 61 65 71 71 66 66 64 57 65 61 66 61 65 72 70 63 60 65 65
95 86 78 67 60 64 65 93 98 97 96 95 98 97 96 95 80 56 50 53 48 51 55 58 54 53 53 57 57 63 64 64 63 62 59 57 65 64 61 61 61 63 64 63 66 63 62
91 80 74 66 54 59 73 98 98 98 96 98 97 98 96 73 55 55 53 55 49 50 58 59 56 53 52 53 53 54 59 60 60 56 54 55 66 58 60 54 57 60 61 64 62 61 63
88 79 68 60 49 60 87 97 94 97 97 98 97 93 83 60 54 55 53 53 50 46 55 55 53 52 54 52 52 54 54 56 58 57 56 56 60 62 66 61 57 61 56 58 60 63 62
81 74 59 52 51 64 91 90 92 94 97 97 97 86 74 51 55 54 53 55 52 49 52 53 51 50 56 58 55 53 56 55 56 58 58 60 62 65 69 61 68 54 55 54 58 60 60
74 62 52 44 56 85 94 93 91 95 97 98 96 88 58 50 55 54 56 59 57 52 53 54 57 59 56 54 56 58 62 59 59 61 60 58 60 62 61 64 52 50 53 53 53 53 55
66 57 47 55 72 93 92 94 94 97 97 96 90 76 52 49 57 58 53 55 57 55 56 60 63 63 57 55 53 56 62 56 60 58 57 58 59 61 65 64 58 51 53 52 53 55 54
59 56 47 57 80 88 94 94 98 97 97 92 74 56 47 51 58 57 50 54 59 59 60 58 58 59 57 57 59 58 58 53 58 58 56 59 60 63 65 66 54 47 48 48 51 46 49
50 42 40 65 79 92 95 95 95 96 95 88 62 47 47 51 56 53 52 53 53 54 55 53 54 53 53 54 54 55 53 52 52 49 53 55 58 58 59 59 53 46 48 50 48 49 50
49 41 48 69 84 87 93 91 92 93 93 86 63 46 48 49 53 55 54 55 53 52 54 51 48 48 49 50 49 52 49 51 51 51 48 49 47 48 50 49 46 46 46 45 46 48 50

GFSGBSN_prec_cthk_075.txt.gz
RH
27 27 26 27 29 30 29 30 33 34 33 41 49 51 54 61 59 64 68 62 57 62 56 47 56 57 56 47 43 41 36 36 32 33 36 40 44 52 60 64 71 74 52 53 50 54 54
35 33 32 30 28 28 27 28 28 31 37 34 41 52 51 60 62 61 66 63 56 58 58 55 49 60 61 52 38 30 29 32 38 43 46 45 47 54 60 67 80 67 64 60 60 49 55
42 42 41 41 37 31 29 29 27 26 29 35 38 42 53 56 62 60 63 71 56 51 47 50 54 61 60 36 25 26 30 39 46 48 49 48 52 62 59 83 86 83 77 67 61 54 57
45 44 43 43 42 42 37 31 30 28 26 24 34 45 50 58 66 74 68 68 58 57 46 58 65 62 41 27 28 34 42 49 56 56 57 59 57 71 81 92 97 91 87 83 60 61 57
48 47 46 46 45 43 42 41 30 28 26 25 24 41 60 56 63 70 70 64 66 54 57 66 68 53 35 35 40 41 48 57 65 66 65 66 68 78 88 98 99 90 92 93 92 60 69
50 50 51 48 51 49 43 42 41 33 26 22 18 30 53 55 58 71 75 71 60 63 64 71 56 53 37 39 48 58 65 75 82 76 71 69 86 89 95 93 97 97 96 96 86 76 77
55 55 53 49 52 51 50 41 38 37 36 23 18 16 42 56 62 66 73 72 68 63 67 58 44 47 45 55 59 63 67 72 79 77 70 82 91 86 92 97 98 99 97 94 85 70 72
55 53 52 49 48 48 43 42 37 36 36 30 23 19 34 49 61 66 75 79 63 74 71 55 50 52 59 62 65 69 74 71 67 74 91 91 92 90 94 94 98 98 93 94 90 86 80
55 52 47 46 50 43 41 37 38 40 40 34 29 23 29 47 66 65 69 73 74 78 74 60 50 56 61 67 73 79 87 80 86 91 97 96 94 93 95 98 98 92 91 90 98 96 87
47 43 43 48 52 55 50 46 44 44 44 43 38 27 32 48 66 65 61 77 78 81 70 52 48 60 67 70 79 83 91 92 94 93 95 95 94 92 93 95 96 91 83 82 89 97 97
37 37 45 53 58 59 56 54 50 50 50 52 48 45 30 53 55 66 68 82 86 81 74 43 48 61 66 72 81 85 91 90 95 95 95 90 90 87 83 92 95 96 89 85 84 87 93
35 44 53 60 67 72 73 67 62 58 62 69 72 68 39 59 59 75 76 93 82 81 66 47 56 65 72 75 80 82 84 84 87 91 92 85 78 82 84 86 93 94 91 88 85 87 92
47 61 71 81 82 79 75 68 65 65 70 75 87 75 54 65 64 78 96 88 87 86 49 51 58 65 73 77 79 82 84 80 88 92 94 83 89 96 98 95 93 90 87 93 91 92 96
65 79 85 86 86 78 71 72 75 71 72 86 96 60 60 60 83 91 94 85 88 58 53 44 56 64 73 79 88 91 86 85 82 88 92 90 92 97 97 96 92 88 84 79 87 94 98
81 91 90 87 84 77 81 84 90 94 86 74 68 82 75 66 80 98 92 92 72 55 41 48 58 64 74 76 91 98 96 88 84 89 93 97 98 93 95 93 89 82 81 75 90 96 93
92 96 92 87 85 78 84 87 91 97 86 61 76 75 74 83 99 98 92 79 69 42 45 47 55 63 76 77 85 94 92 89 95 87 86 88 88 91 85 82 78 74 68 79 85 92 95
98 95 89 86 85 76 78 83 92 98 97 72 72 78 93 98 98 96 81 77 66 45 47 47 53 64 72 79 86 87 92 93 90 85 80 72 73 83 74 80 78 73 68 68 72 77 80
98 94 87 83 81 76 74 83 89 98 99 83 91 98 98 98 98 91 82 77 52 52 49 48 52 60 68 77 85 90 88 87 85 82 81 76 74 77 77 72 72 73 66 59 62 62 67
97 91 89 79 76 71 75 80 91 99 92 91 97 98 98 98 98 88 77 73 52 53 49 49 54 58 67 77 83 79 84 80 76 75 75 73 74 75 72 66 63 62 59 59 56 56 60
95 89 88 78 70 66 75 81 95 94 98 96 97 97 98 98 90 76 71 67 56 53 51 49 54 55 59 68 70 76 78 74 69 64 63 61 70 61 67 60 60 62 59 54 49 55 56
95 86 83 70 64 61 75 85 98 97 98 97 97 98 95 96 87 79 68 61 52 53 51 50 55 54 55 60 61 72 71 67 62 61 59 57 64 61 59 59 57 57 58 57 55 52 52
89 83 78 63 61 56 81 88 96 97 98 98 98 98 97 90 78 69 64 58 53 51 49 52 53 53 52 54 52 56 61 60 59 56 55 56 64 56 60 56 60 64 64 63 60 58 57
81 80 66 59 55 55 77 94 94 95 95 97 97 97 95 76 63 69 64 57 54 50 55 50 50 52 54 53 53 54 54 55 56 54 54 55 59 59 64 60 57 63 62 65 64 66 62
72 67 60 52 50 77 85 90 88 91 93 97 97 94 79 62 63 65 64 57 54 52 55 53 51 49 54 54 53 52 54 54 55 56 55 56 58 59 64 57 63 54 57 57 59 60 60
62 57 52 54 71 82 89 80 81 91 97 97 93 83 60 56 64 63 64 56 51 46 49 51 48 50 53 52 53 54 58 53 57 58 57 54 54 58 59 61 49 49 51 51 51 51 54
51 53 62 59 64 81 88 84 82 87 94 92 86 58 55 59 63 64 65 60 56 50 50 49 51 53 53 54 52 55 60 58 59 58 56 54 54 54 58 57 49 48 49 48 48 49 50
46 56 49 57 71 82 82 81 85 89 89 89 79 51 52 57 63 62 60 61 53 52 56 58 56 55 51 52 54 55 57 52 55 55 55 55 56 56 58 58 50 44 45 44 44 39 44
45 45 44 61 72 78 84 88 88 88 89 75 53 47 51 56 59 58 60 59 54 51 54 55 56 56 53 54 54 54 52 52 52 50 51 53 56 55 56 55 45 40 41 42 41 41 42
38 37 51 66 72 81 82 85 89 89 86 61 44 45 52 53 56 55 53 58 57 54 53 51 51 51 50 50 49 52 49 49 49 47 46 47 45 45 45 43 39 39 40 39 38 38 40

GFSGBSN_prec_cthk_078.txt.gz
RH
45 44 42 40 41 37 33 32 30 28 27 28 27 39 39 35 51 56 58 64 57 58 60 49 46 48 45 52 56 49 43 42 34 31 31 35 37 40 39 45 56 61 51 61 48 48 52
48 48 48 48 47 46 44 41 41 35 30 30 29 30 45 38 43 56 64 65 56 58 66 56 47 50 59 58 48 37 33 32 31 34 40 41 43 47 46 45 50 50 61 60 62 53 51
53 52 52 52 52 51 49 48 42 41 38 32 30 30 34 41 42 56 58 70 70 70 58 60 50 48 62 56 37 32 33 32 37 43 48 48 52 51 52 56 51 55 67 73 63 58 53
57 56 57 57 56 53 58 58 52 45 37 36 31 29 30 44 50 55 68 68 64 64 63 54 53 65 60 37 34 37 40 42 45 47 52 53 59 60 64 66 68 72 78 85 63 61 51
62 60 59 58 54 56 56 62 58 52 42 38 35 31 27 44 46 72 65 73 68 68 63 65 60 64 45 39 44 47 46 50 52 57 61 64 64 67 75 88 93 89 91 84 75 58 58
65 64 60 57 56 56 59 58 58 50 45 34 34 36 26 39 50 62 60 68 72 66 68 62 60 61 47 48 47 55 60 62 63 75 76 71 75 74 82 93 92 98 92 82 77 63 56
66 60 56 51 55 52 51 50 45 42 41 38 30 29 29 42 57 58 65 73 74 76 75 63 62 52 48 54 60 62 65 64 65 70 71 73 74 74 77 92 97 98 98 90 76 71 61
62 56 50 42 50 48 51 54 59 55 50 45 44 33 31 41 55 57 61 65 66 73 70 68 67 50 56 62 67 70 70 63 58 60 68 79 85 80 85 91 96 98 97 97 96 87 70
59 50 45 43 41 55 64 70 73 69 68 59 56 49 40 39 55 53 57 66 64 69 64 76 61 52 63 65 70 73 81 80 75 79 85 92 83 90 96 98 97 95 93 93 98 89 82
55 43 44 46 58 76 83 86 86 85 82 72 66 67 55 48 57 57 58 75 73 60 68 72 64 56 67 70 74 81 85 84 87 90 92 91 89 94 97 99 93 90 89 94 97 95 89
49 44 51 67 87 94 93 87 91 89 85 83 75 74 67 56 60 63 56 73 66 62 82 64 57 65 69 71 78 77 81 81 87 87 91 89 89 86 94 98 92 88 94 94 94 87 86
43 47 68 89 96 95 92 87 87 82 79 83 84 81 77 71 59 61 56 70 66 75 88 62 60 73 70 71 75 72 75 82 85 88 89 86 79 78 89 92 91 92 87 90 86 86 92
48 62 88 96 94 92 92 90 83 86 91 93 84 83 82 87 69 63 74 81 77 81 63 62 69 71 72 70 70 74 74 78 87 87 84 80 94 88 87 95 97 89 85 95 90 93 95
55 86 97 94 93 89 88 84 88 94 98 98 83 74 79 90 75 70 87 84 86 84 61 55 67 71 76 73 72 74 72 78 81 81 82 94 99 95 93 94 90 87 80 74 77 92 96
73 95 97 92 89 84 82 87 92 97 98 92 76 83 88 73 60 74 81 89 89 74 44 61 69 76 72 74 80 78 82 83 85 83 94 98 98 98 94 90 87 79 77 71 80 83 77
85 98 93 89 87 80 80 87 93 97 96 80 77 69 75 66 87 91 98 95 82 46 51 63 69 68 67 77 77 78 84 89 93 93 92 88 95 90 89 84 78 76 73 76 76 79 83
89 95 88 84 80 78 79 88 95 99 98 89 78 79 77 87 98 99 97 92 64 48 57 62 67 65 66 71 72 80 96 94 89 83 81 80 77 78 79 82 79 69 70 69 66 70 66
89 95 82 81 76 71 82 91 96 94 95 98 86 91 93 91 96 98 92 76 51 60 62 65 64 68 66 70 79 79 85 91 86 80 76 73 68 72 71 70 71 69 60 56 60 67 66
90 84 75 71 71 75 86 95 96 94 95 98 92 92 98 97 97 95 83 69 55 60 61 64 63 63 63 71 76 79 81 80 78 79 72 62 66 70 66 61 58 58 56 53 51 51 57
85 76 70 64 67 79 87 97 93 89 88 93 97 97 98 98 94 76 77 62 59 61 63 62 63 60 61 67 68 73 73 73 71 72 68 64 66 65 61 64 59 56 54 51 47 50 46
71 70 62 59 65 77 81 94 94 91 96 95 97 97 96 94 74 76 73 59 57 59 63 58 59 57 56 62 64 68 68 67 63 60 58 58 62 61 58 60 60 60 57 52 51 48 46
61 60 53 56 54 72 82 85 86 87 94 92 95 96 96 75 72 82 70 61 56 58 57 53 54 54 52 56 59 61 58 56 56 54 54 54 60 54 57 50 55 59 59 58 56 54 53
53 50 47 48 53 72 81 82 81 82 90 89 90 91 72 63 70 75 67 55 53 53 58 52 47 45 47 54 55 56 53 52 51 51 51 52 53 55 57 50 49 48 52 56 56 55 52
45 42 45 53 61 71 73 76 81 83 85 87 87 82 57 60 64 73 62 53 50 51 53 53 48 45 51 50 51 51 52 52 51 49 51 50 50 54 58 50 53 47 49 50 49 50 53
45 47 51 53 60 67 69 76 76 81 85 86 71 46 46 55 63 69 61 52 51 52 51 51 47 48 49 48 47 50 49 49 51 50 49 48 46 51 53 50 45 46 46 46 45 44 45
41 42 42 51 65 70 67 67 72 82 83 70 48 44 45 49 62 63 59 56 53 55 54 52 48 47 46 44 42 46 49 51 51 50 50 48 45 44 44 44 38 43 45 44 44 40 41
39 41 40 54 64 65 70 73 78 82 75 60 41 41 45 50 61 60 52 51 50 49 50 50 50 48 45 45 45 45 47 48 44 44 46 44 44 44 44 43 39 39 40 41 39 34 36
35 37 44 54 64 69 74 78 79 76 65 43 39 43 42 48 55 56 54 51 50 48 47 51 50 48 46 45 44 46 43 44 43 42 42 42 43 43 44 44 37 34 36 35 33 33 34
31 33 43 55 64 70 74 77 75 62 48 35 38 42 42 41 48 53 53 52 51 50 49 48 46 47 45 42 41 43 41 41 39 37 39 38 36 35 35 32 32 34 34 34 34 34 36

GFSGBSN_prec_cthk_081.txt.gz
RH
55 54 53 54 54 53 52 49 44 45 44 39 41 38 36 33 39 46 41 55 56 57 56 48 48 49 49 45 45 43 41 41 43 38 38 37 36 39 40 36 40 48 51 49 51 55 43
59 59 59 59 58 58 55 56 60 55 44 48 46 43 36 33 39 51 54 54 58 69 60 54 54 53 46 45 48 44 35 33 39 41 43 41 41 44 44 44 42 43 45 48 56 56 59
65 64 64 65 64 60 64 64 63 61 57 47 45 46 38 34 38 50 63 57 64 71 71 61 52 46 50 51 49 36 29 35 41 44 46 50 49 53 49 48 45 48 50 44 41 58 58
70 71 71 67 64 65 62 60 59 61 59 53 43 44 38 32 45 52 63 60 70 68 66 56 53 54 55 50 37 33 39 42 45 46 51 52 54 59 60 60 60 61 62 67 40 48 57
76 75 73 69 66 62 65 63 57 58 53 46 39 36 34 29 50 60 62 66 72 77 73 70 65 65 57 43 38 43 50 50 56 58 57 61 66 71 70 73 77 76 74 73 57 58 68
78 80 72 67 59 56 59 56 58 58 50 47 37 36 31 29 36 65 70 81 84 60 68 71 70 63 58 48 42 50 54 52 58 61 67 80 81 75 72 79 85 83 97 90 79 69 67
72 74 71 60 55 51 48 49 61 62 63 62 54 45 39 27 53 66 76 86 69 84 73 74 64 55 51 46 52 59 53 59 58 66 76 81 83 77 78 76 76 88 94 94 93 81 72
69 71 73 62 46 48 56 69 80 87 86 84 77 64 54 42 51 75 77 75 80 88 77 66 58 60 48 53 58 57 58 67 57 61 72 70 79 76 76 74 81 88 95 90 88 81 78
65 61 58 50 48 64 87 95 94 92 93 92 83 78 66 58 43 64 59 67 65 85 70 62 62 58 52 55 59 61 70 80 84 80 79 82 78 80 94 97 97 93 89 93 99 71 76
64 49 49 54 74 94 97 97 93 89 84 83 82 82 79 69 54 66 66 66 68 73 77 65 65 56 54 61 62 71 80 86 84 84 86 88 87 94 97 99 94 90 84 94 93 81 86
47 42 60 78 96 97 96 92 93 92 87 81 76 79 82 78 66 76 67 63 98 84 81 65 61 63 64 61 71 72 78 83 85 86 91 89 89 96 97 98 93 97 88 89 95 87 81
35 54 82 96 97 94 91 92 92 87 89 94 85 78 82 72 63 69 72 74 83 80 75 60 62 68 62 65 74 77 82 82 86 87 88 84 84 92 94 90 89 91 92 93 95 97 92
39 76 93 98 95 95 92 89 87 93 97 98 98 85 80 78 67 62 63 95 81 78 62 63 62 62 64 66 76 79 80 86 84 87 82 76 85 94 93 95 88 93 90 95 98 98 96
65 87 95 94 90 89 89 92 94 97 98 98 96 93 70 72 73 68 82 92 89 69 58 60 60 67 72 70 76 73 72 81 76 78 88 93 97 95 96 95 88 96 84 92 95 95 95
81 88 94 87 87 85 88 94 97 98 88 82 73 67 73 72 73 74 93 92 93 76 65 63 67 73 78 79 77 75 78 82 81 87 98 97 97 95 91 87 86 83 80 75 78 72 77
83 80 85 82 80 84 87 93 99 99 97 97 71 67 80 73 74 84 93 98 85 78 54 67 70 74 77 81 80 82 81 83 87 91 93 95 99 94 86 84 78 80 76 81 77 84 84
69 81 74 73 82 90 91 98 95 81 73 77 70 70 83 86 86 91 96 97 81 53 66 70 69 72 75 76 74 80 90 90 89 84 87 85 89 82 80 83 83 80 72 64 63 67 64
67 69 66 69 88 93 95 94 95 92 83 79 80 84 96 98 98 98 98 88 54 64 70 70 69 71 75 78 82 82 86 87 79 78 76 75 77 79 76 71 72 76 66 63 66 64 59
56 56 58 70 79 83 88 88 90 89 91 83 78 86 97 98 98 98 91 61 62 68 71 74 74 74 75 77 79 75 76 75 71 69 66 63 66 77 68 62 61 59 58 57 56 56 57
47 47 52 62 69 72 74 78 82 86 89 86 87 92 96 97 96 90 66 57 64 68 72 71 70 71 73 73 71 73 72 68 64 61 60 61 61 66 67 69 63 58 51 46 49 55 46
42 42 43 56 64 74 73 79 82 84 86 84 89 91 92 98 83 71 60 58 61 71 69 66 65 63 65 67 64 64 61 59 58 58 59 55 61 60 56 55 54 51 50 48 48 44 48
43 40 45 52 59 66 70 71 80 86 85 82 86 81 84 77 70 62 57 58 60 69 69 65 63 60 56 58 56 56 49 48 50 48 51 50 58 54 53 48 52 53 50 49 46 44 42
39 40 43 46 57 64 77 77 78 81 79 70 70 64 62 65 67 60 56 54 56 61 61 59 57 57 57 57 53 48 44 44 44 45 44 46 49 53 54 46 47 47 48 49 50 47 45
34 40 43 51 60 68 71 77 78 74 62 58 54 53 55 58 57 58 56 52 55 53 49 49 49 50 55 51 49 47 45 43 42 42 43 44 46 51 54 46 52 42 43 45 46 47 46
34 38 43 52 59 63 64 72 74 49 41 41 39 46 48 53 53 50 51 50 51 50 49 47 47 46 47 47 49 47 45 45 43 43 41 39 39 42 48 42 37 37 40 41 41 40 40
34 35 41 53 61 61 62 64 63 54 40 37 36 38 45 45 49 46 49 51 50 48 47 48 46 45 43 40 40 41 42 42 42 40 41 40 38 39 36 38 31 34 35 36 35 35 34
33 32 41 51 57 60 61 60 58 42 33 34 33 36 38 43 47 46 46 45 47 47 45 45 44 43 41 40 39 38 41 40 39 38 39 40 39 40 37 38 34 33 33 32 34 35 29
31 30 40 49 54 56 55 50 43 32 30 32 32 32 35 39 42 43 42 41 41 40 40 42 43 41 38 38 39 37 36 36 36 34 34 37 38 36 37 38 36 31 33 33 33 30 30
28 28 40 48 54 52 52 48 44 35 33 33 33 33 33 36 39 40 39 39 39 41 42 42 41 40 37 34 34 34 32 32 32 32 32 33 32 32 30 32 29 29 31 32 33 32 32

GFSGBSN_prec_cthk_084.txt.gz
RH
67 68 68 70 68 67 66 66 67 68 66 62 56 53 50 50 40 39 40 51 54 56 67 58 56 52 48 50 39 39 36 40 34 32 31 31 35 36 42 38 37 43 41 40 45 47 45
74 75 74 78 74 75 73 74 71 70 70 68 67 58 50 46 42 41 43 53 61 61 69 73 67 59 56 48 41 42 42 38 35 34 34 35 40 44 45 40 41 38 40 40 41 42 45
75 75 82 82 78 77 75 71 74 75 74 71 65 59 50 45 41 39 53 60 67 71 76 65 79 61 62 48 45 45 38 30 35 39 39 43 47 45 46 48 44 44 44 41 38 30 34
77 77 80 80 81 73 72 71 74 71 73 69 63 56 44 39 41 43 57 68 77 79 71 79 72 64 57 56 52 46 36 34 34 36 41 46 50 49 49 51 47 50 49 50 42 47 42
82 77 76 76 84 73 65 63 69 64 72 71 62 55 42 40 33 41 59 70 93 83 73 83 75 75 70 59 47 38 38 43 45 47 49 54 55 52 57 64 65 61 71 66 66 68 58
88 81 79 67 73 68 52 47 50 58 64 66 62 56 42 35 29 41 70 83 93 77 83 85 77 81 63 54 46 42 48 48 47 47 53 59 69 72 67 76 76 76 80 84 87 80 83
92 86 74 62 52 51 49 60 74 86 90 86 83 78 68 47 38 52 70 90 80 74 92 85 72 65 61 51 41 51 51 46 49 54 55 64 76 72 67 75 73 77 77 78 79 79 92
90 87 67 55 60 65 80 93 97 95 91 87 83 83 77 66 49 57 74 88 89 97 95 83 82 68 60 51 54 53 50 50 57 47 59 72 82 76 77 87 87 85 83 83 79 84 88
98 88 64 75 82 92 97 94 92 94 87 86 83 78 74 75 58 54 95 99 91 95 84 93 80 66 61 46 53 57 57 59 60 63 72 84 74 84 92 95 95 89 85 93 96 95 90
97 77 74 87 91 94 92 95 87 87 90 89 87 78 77 74 68 53 82 99 89 90 99 82 75 71 57 55 60 64 61 63 69 73 89 91 85 85 91 97 95 93 85 92 93 79 80
82 79 81 85 91 91 86 91 88 84 82 80 89 77 71 83 78 65 61 70 78 87 91 78 75 73 56 64 65 63 63 67 72 80 91 89 90 93 94 90 97 95 91 94 91 91 92
70 76 74 79 85 87 90 89 87 87 88 87 96 96 77 84 74 66 77 79 73 87 91 81 77 69 67 66 62 68 69 69 77 83 85 88 86 94 86 82 93 94 94 95 96 93 84
57 62 65 75 86 90 90 92 94 94 97 98 98 96 79 79 72 71 90 81 98 97 82 76 70 71 66 63 67 65 68 76 83 88 89 83 94 93 86 88 88 94 98 98 98 98 96
48 52 69 77 83 91 97 98 98 98 98 92 96 92 76 76 76 80 78 89 91 82 81 67 70 68 61 61 64 65 70 79 74 86 97 97 96 93 92 93 98 94 97 98 97 97 97
45 55 66 73 87 94 96 95 93 87 95 92 83 75 73 70 71 79 81 96 98 88 70 74 70 68 65 60 62 64 73 84 81 94 96 97 98 94 91 87 87 85 96 91 99 84 93
44 52 59 69 80 90 92 93 76 73 65 66 74 68 72 68 64 77 89 98 92 73 75 70 69 68 65 66 68 80 85 78 86 94 93 94 98 92 88 90 85 84 77 86 92 97 96
45 47 54 62 70 74 90 87 72 61 61 61 56 59 72 74 81 90 95 99 90 87 81 74 69 74 73 72 85 83 82 83 89 94 90 88 94 85 84 80 82 76 73 68 71 75 82
41 50 52 60 64 69 76 80 77 65 57 48 47 57 77 83 92 96 99 95 76 78 75 72 74 74 79 76 85 82 87 87 84 83 81 78 82 87 77 74 73 72 67 63 74 70 71
39 50 53 60 67 74 83 83 80 71 66 62 68 72 86 89 98 98 88 73 74 73 72 72 74 76 79 82 92 84 81 75 77 74 73 71 71 86 78 74 69 65 60 59 58 63 63
40 46 52 60 69 80 86 92 88 84 77 73 76 83 88 93 93 85 67 70 74 75 73 74 76 78 79 80 78 75 76 66 62 61 60 63 63 68 76 71 64 63 57 54 57 67 59
38 43 48 60 72 82 83 78 78 80 77 76 78 80 81 85 73 65 68 71 70 68 69 68 70 70 72 75 76 70 64 61 57 54 50 51 56 56 51 52 53 52 51 50 49 45 53
35 40 49 58 67 78 62 62 69 70 68 69 75 77 70 65 60 60 60 67 63 65 65 63 64 65 63 64 62 59 53 54 54 48 47 47 52 50 47 45 46 46 46 46 47 44 43
33 42 49 58 67 68 53 51 59 56 55 60 57 51 53 56 54 53 55 57 59 59 60 61 58 60 60 56 52 49 45 42 41 42 42 44 50 56 55 44 46 51 45 46 46 44 46
33 37 47 59 59 58 51 43 47 47 46 46 45 47 47 49 48 45 47 51 53 51 52 52 52 50 50 48 45 42 40 39 39 38 38 39 42 52 55 51 56 39 39 41 42 42 43
29 33 45 54 55 53 46 40 36 37 37 37 41 43 42 43 41 41 42 44 44 43 46 45 46 44 43 43 42 43 40 39 36 36 36 36 37 44 53 44 34 36 36 38 39 39 36
28 29 44 51 51 50 41 36 36 33 32 32 35 38 36 35 38 37 39 40 40 37 38 39 39 36 35 36 36 38 44 36 37 34 33 35 34 40 39 40 34 35 33 31 31 38 32
25 25 41 48 50 48 39 32 32 31 30 29 33 33 33 32 35 36 38 41 39 39 38 36 35 36 36 38 37 40 41 34 40 34 34 35 35 40 38 40 34 32 30 30 34 39 30
26 24 39 45 46 47 44 31 29 28 28 30 32 31 30 29 32 33 33 36 36 36 36 35 37 35 36 37 39 36 37 35 34 30 31 34 39 37 36 38 41 30 28 29 33 30 30
25 25 39 45 44 47 43 39 29 29 30 29 29 32 32 30 32 33 32 33 33 34 33 34 36 36 35 36 34 32 35 32 32 34 32 32 31 36 33 37 31 27 30 30 30 30 30

GFSGBSN_prec_cthk_087.txt.gz
RH
78 80 80 83 83 83 79 71 78 75 81 84 78 77 75 73 57 57 50 46 54 63 57 82 70 61 58 49 43 44 35 36 37 35 30 30 30 33 36 33 33 37 39 40 42 41 42
79 76 74 76 78 81 80 75 72 78 86 85 84 79 73 67 62 56 48 48 53 70 63 73 70 71 60 54 50 48 40 40 37 31 29 30 31 37 36 35 36 37 37 36 37 33 32
84 87 89 86 84 78 84 78 64 62 72 75 87 85 79 67 55 45 44 48 57 74 82 74 78 74 77 67 54 49 46 41 38 38 36 38 39 37 39 37 37 41 43 38 31 29 33
87 91 92 89 86 77 80 77 62 51 62 65 69 70 67 59 54 47 45 52 65 72 87 88 95 76 74 70 58 52 49 40 40 42 42 40 44 44 42 42 41 46 48 50 33 41 46
91 92 90 92 78 79 78 74 61 55 59 64 68 67 66 51 36 32 59 60 84 91 93 91 83 78 83 69 68 62 44 39 44 46 47 47 47 47 45 51 56 56 59 52 51 56 63
97 99 98 91 82 93 89 74 71 83 89 92 90 85 82 68 43 38 64 74 85 94 91 96 91 97 81 75 57 49 46 49 49 48 51 48 50 57 61 65 63 63 71 65 72 65 65
89 95 82 78 71 87 85 90 93 91 87 92 89 86 84 78 61 48 81 98 68 98 98 94 86 76 73 71 58 50 55 49 49 54 49 53 60 62 60 62 64 73 77 74 62 67 78
76 55 54 59 69 74 80 87 90 90 80 85 84 83 82 76 73 55 72 99 94 98 94 93 89 77 70 62 59 58 54 56 58 53 51 59 61 59 68 72 77 85 86 80 74 75 89
42 52 55 67 76 72 75 78 85 86 82 80 84 82 77 73 74 57 79 91 95 98 93 90 92 80 74 64 62 60 56 60 58 58 59 66 58 60 73 80 84 84 87 86 83 78 89
42 53 64 72 79 84 86 86 86 84 81 78 78 81 76 72 79 71 69 85 98 98 99 98 94 86 73 64 64 63 64 62 62 68 72 69 66 70 77 83 89 93 95 91 81 80 79
45 54 68 80 89 94 96 96 96 95 87 82 76 91 69 71 81 79 72 82 97 97 97 96 88 82 73 65 65 68 64 62 67 68 74 68 71 75 82 93 94 97 95 90 87 85 88
43 58 74 88 92 97 96 94 94 93 93 87 86 90 75 73 74 74 74 86 98 91 94 96 87 82 65 71 70 69 68 68 69 71 72 75 79 79 83 86 88 92 96 97 93 94 90
50 59 70 81 91 98 97 86 89 89 95 93 99 96 75 77 75 68 71 77 76 84 86 85 86 79 70 69 70 67 71 73 73 79 81 81 85 83 83 86 88 96 98 98 98 96 98
57 64 73 80 87 86 86 76 74 82 90 85 93 85 72 71 70 68 70 52 75 90 87 83 82 76 74 72 66 72 71 73 70 79 84 85 85 88 91 93 96 98 98 98 97 97 97
56 65 78 90 87 83 76 69 65 69 68 73 61 62 66 75 74 74 69 93 98 95 81 81 81 76 72 69 64 66 71 74 79 85 88 89 92 91 92 92 93 94 98 95 98 88 96
54 65 76 93 96 86 72 63 56 53 56 57 46 49 61 70 73 75 82 98 95 86 83 85 76 68 69 67 66 72 76 79 89 89 89 91 96 87 88 86 82 87 81 88 96 97 96
52 59 70 90 95 96 76 60 61 53 52 48 45 53 67 74 82 82 94 97 97 95 87 85 73 66 65 66 72 78 80 84 86 89 90 92 96 85 83 79 81 79 79 76 75 80 86
46 50 65 81 86 97 94 70 56 54 50 47 44 60 70 80 84 87 94 98 96 84 82 79 76 71 64 69 78 78 85 88 84 84 87 83 84 90 76 72 70 71 69 68 78 74 78
42 48 61 70 76 83 87 85 74 57 54 53 68 68 75 83 88 93 89 88 80 75 78 75 71 67 69 75 74 79 81 77 76 77 78 76 78 88 80 71 63 64 59 60 61 67 73
34 43 48 62 65 70 71 82 80 74 61 63 72 73 77 75 75 79 76 73 73 73 73 72 71 68 70 72 72 74 74 67 68 67 65 64 65 69 76 72 68 64 59 55 52 64 66
31 37 42 54 56 57 59 62 68 70 65 66 61 62 61 68 69 72 69 73 76 74 69 69 69 66 63 67 62 60 58 59 56 53 53 51 55 55 52 52 51 53 55 51 51 48 57
31 32 40 50 47 46 48 54 54 52 47 51 50 54 57 58 59 59 64 66 65 64 62 65 66 63 58 59 56 56 54 53 51 47 45 46 49 51 50 45 43 43 47 46 45 45 47
32 32 42 43 43 39 42 43 41 43 46 45 47 48 53 53 55 55 58 58 58 54 54 53 51 50 50 48 45 42 41 41 41 42 42 43 49 57 51 45 45 46 44 45 46 46 46
31 32 41 40 40 37 37 38 36 34 35 39 40 42 44 48 45 47 49 49 49 47 48 48 45 44 43 42 40 39 39 39 38 37 37 38 43 51 52 50 48 36 35 38 40 42 41
27 29 42 39 39 37 31 34 35 33 31 35 35 36 37 40 39 39 40 40 41 41 43 43 41 41 41 41 42 42 41 39 35 34 33 35 38 41 47 45 34 36 34 35 35 38 35
23 26 37 39 36 37 35 34 31 31 31 33 34 34 33 32 34 35 37 37 36 37 38 37 35 34 36 38 35 36 41 35 36 33 31 33 33 38 39 38 34 34 32 31 31 39 32
22 25 40 40 39 33 33 33 31 28 30 31 34 32 30 29 31 32 34 35 34 34 34 33 32 31 34 35 36 38 39 32 38 33 30 34 34 38 40 39 34 32 30 29 33 32 30
20 24 39 42 44 35 31 31 31 30 28 31 33 32 30 27 30 31 32 32 33 32 32 31 32 32 33 34 36 35 36 34 32 30 29 33 37 40 39 40 34 30 29 30 29 28 28
17 21 35 42 45 42 30 30 31 30 31 30 32 32 30 30 29 30 30 31 31 31 33 32 35 36 33 36 35 34 35 34 33 33 32 30 29 35 34 33 30 28 27 27 27 28 29

GFSGBSN_prec_cthk_090.txt.gz
RH
64 66 74 75 73 76 86 84 87 86 80 78 85 87 92 91 84 73 62 55 52 58 70 77 68 78 68 59 51 44 38 37 36 34 35 33 31 31 33 32 32 33 31 31 31 32 30
70 80 83 82 82 84 87 85 94 94 82 71 83 86 87 85 81 77 64 64 52 51 71 78 72 89 77 67 55 50 45 42 39 35 33 31 32 34 35 33 33 33 34 34 33 30 28
70 82 85 87 89 95 91 91 91 93 79 70 84 76 80 76 67 66 66 54 53 53 71 88 82 96 90 72 63 59 54 47 43 36 33 35 36 36 38 36 37 37 37 35 30 27 29
61 69 68 68 69 69 69 86 95 90 71 76 75 74 70 69 58 41 44 53 49 56 76 87 81 82 82 72 79 69 61 50 46 43 41 42 42 42 43 42 40 38 41 47 32 33 34
52 43 43 48 51 52 72 79 83 86 89 92 92 88 85 81 66 39 39 69 65 78 95 85 98 87 94 80 75 70 62 53 48 47 48 46 45 44 43 44 50 52 56 51 46 41 46
46 36 53 56 57 67 72 74 77 84 90 89 94 90 87 81 69 41 66 83 94 88 97 98 96 95 93 86 80 73 62 52 54 53 49 50 48 49 52 59 58 55 54 59 61 60 59
46 46 53 57 69 79 76 79 80 85 82 79 85 82 79 79 72 50 94 92 94 98 97 98 94 92 93 84 80 66 52 55 55 52 51 51 56 57 49 52 52 58 70 75 67 69 68
46 49 60 67 75 90 91 93 92 88 85 83 80 77 74 77 69 56 89 98 89 97 98 98 92 88 85 74 68 61 57 54 53 56 50 59 61 52 55 62 69 76 81 80 74 73 77
44 60 70 80 88 93 98 98 94 97 91 84 83 77 77 68 65 68 77 97 95 95 98 98 90 87 78 73 69 64 56 58 58 58 60 64 56 56 63 69 76 79 83 84 85 75 73
56 61 77 86 83 93 98 87 90 93 96 89 76 74 72 66 68 81 63 91 93 99 97 98 97 90 71 77 78 64 58 61 63 69 70 70 64 66 69 74 78 81 77 85 84 80 73
61 68 79 84 79 85 95 87 92 88 92 93 75 78 63 65 69 81 58 85 97 97 96 96 95 88 76 78 70 65 65 64 71 70 74 66 68 70 72 73 78 77 85 89 86 83 85
61 67 76 81 69 76 78 81 83 84 93 86 82 78 61 63 74 69 75 83 91 93 96 98 95 90 82 73 68 66 67 72 73 74 73 72 74 75 72 74 78 79 88 96 98 97 95
57 66 74 85 64 65 65 64 69 81 87 90 86 70 58 63 70 72 79 86 90 95 98 97 94 83 73 73 70 70 75 75 75 79 77 75 74 73 73 77 86 90 96 98 98 97 97
53 64 70 87 61 58 50 55 57 65 79 83 66 58 60 68 71 73 81 78 84 89 88 84 83 74 75 72 71 72 75 79 80 83 83 84 73 77 80 84 92 97 99 98 97 97 97
49 62 66 88 68 53 49 47 49 49 55 56 49 56 56 60 59 59 69 78 87 88 83 82 86 82 76 71 64 72 79 79 80 83 85 85 84 82 87 91 96 97 98 97 99 90 94
40 57 61 84 76 53 51 44 45 45 49 52 52 53 57 54 66 70 76 80 87 86 83 86 72 65 68 65 66 80 79 80 85 86 85 86 90 86 85 88 87 94 90 96 97 98 96
29 46 55 75 81 62 49 51 45 45 47 49 54 59 61 67 76 79 87 92 96 88 74 71 62 62 61 73 78 78 82 83 83 86 87 87 88 81 81 83 81 86 90 83 80 88 96
28 41 47 62 78 70 57 51 51 45 46 50 61 59 65 67 75 86 93 90 88 81 70 66 63 63 71 79 85 84 82 83 81 83 85 81 80 86 72 68 71 73 74 72 79 76 83
25 36 40 50 64 68 62 57 57 55 53 59 65 68 68 70 77 82 80 82 81 78 71 62 64 68 72 76 78 79 75 72 73 76 75 72 75 82 73 64 61 63 60 58 60 67 77
26 36 39 43 49 56 56 51 46 46 48 64 56 58 63 65 70 74 74 72 70 68 65 63 65 67 65 68 70 70 69 67 65 61 61 60 64 69 72 69 67 62 55 51 52 62 64
23 33 37 38 43 45 44 43 39 39 43 49 49 59 63 69 68 73 73 74 72 72 69 70 69 67 60 63 60 60 60 57 52 49 48 48 52 54 51 52 50 51 50 49 51 49 51
17 27 31 32 40 40 38 37 37 36 37 43 46 53 57 59 60 61 62 67 67 66 64 63 61 60 57 56 57 54 51 47 45 42 44 45 48 51 48 44 45 42 46 46 46 46 48
17 25 31 31 32 37 36 34 34 34 35 37 41 47 50 48 49 51 54 53 54 52 54 54 52 49 47 44 43 41 41 39 38 38 38 41 46 53 46 44 44 39 38 42 43 43 41
21 23 27 31 26 32 34 32 31 33 35 37 38 41 42 43 42 43 44 44 43 43 44 43 41 40 39 37 35 36 36 36 36 35 36 38 43 48 49 44 37 30 32 35 36 38 37
20 21 29 29 27 26 32 32 29 29 32 35 37 38 38 40 41 39 39 38 36 36 38 38 37 36 36 35 36 37 37 34 31 31 33 35 39 41 45 44 31 31 30 33 34 34 34
18 20 30 32 25 25 26 29 30 29 27 32 34 34 35 34 34 37 37 36 35 35 35 33 32 33 33 34 31 32 35 32 33 30 29 33 35 39 41 36 31 29 30 31 31 35 33
18 19 31 34 28 23 24 25 25 26 29 31 32 32 32 30 32 34 35 34 34 34 33 32 30 29 31 33 35 36 38 31 36 32 28 32 35 37 41 41 32 30 30 30 34 25 28
17 16 30 36 37 26 21 23 24 23 25 28 34 32 31 29 29 32 33 35 35 34 33 32 31 33 33 35 37 36 37 35 33 30 30 30 36 39 40 40 32 30 31 30 26 27 27
16 13 26 33 39 33 24 22 23 24 23 25 29 31 32 31 30 30 31 32 33 34 35 36 37 39 37 39 39 38 37 37 35 32 31 35 29 32 32 29 26 28 26 25 26 26 27

GFSGBSN_prec_cthk_093.txt.gz
RH
61 64 72 77 68 65 58 66 61 63 73 92 90 76 82 94 96 96 92 85 71 62 66 84 84 78 82 76 62 49 41 39 36 32 35 36 36 34 32 29 28 30 30 29 28 27 24
51 51 43 47 54 50 47 48 50 62 71 82 91 69 81 94 96 93 90 84 77 63 60 77 83 94 73 71 65 59 50 47 42 40 38 36 34 32 31 30 31 33 33 31 29 26 26
49 44 36 41 44 46 49 56 62 60 67 74 73 70 85 91 83 85 80 75 70 66 61 75 86 93 90 87 77 65 57 50 47 42 37 35 34 33 35 35 37 36 35 33 29 25 27
55 41 48 52 53 53 59 65 61 59 65 74 79 80 75 82 76 68 56 60 55 59 63 78 87 96 85 93 93 78 65 57 50 43 40 38 38 39 41 41 41 40 39 44 30 32 33
51 46 50 60 63 64 67 73 71 71 67 70 73 88 91 87 78 64 42 55 54 54 65 88 99 95 97 98 94 82 71 62 55 49 47 45 46 46 47 46 46 46 53 49 43 39 43
46 54 61 67 76 75 81 81 85 86 79 68 64 68 88 84 80 67 42 88 86 79 86 98 95 92 94 89 84 87 76 63 55 52 54 54 51 51 48 50 48 48 54 50 56 49 51
46 64 70 82 78 76 82 87 97 97 89 80 64 71 68 74 70 60 73 97 98 95 94 98 92 87 91 90 86 84 69 62 60 59 56 53 52 51 48 50 49 51 59 64 62 61 64
50 69 73 86 71 75 80 86 87 83 87 89 76 68 65 61 65 60 85 97 98 98 99 98 98 96 94 93 92 79 64 63 61 58 52 53 54 48 48 52 60 67 73 72 71 74 73
56 71 75 78 62 65 72 82 96 94 95 91 82 68 67 58 62 68 86 93 99 97 96 98 96 96 89 76 75 70 67 62 56 58 54 55 48 49 54 62 70 73 77 75 75 71 69
60 69 78 69 55 53 60 77 87 90 93 93 79 67 62 56 69 80 82 88 97 97 97 98 97 90 88 85 81 73 65 60 61 60 61 59 54 58 64 67 72 78 71 76 81 84 82
60 65 80 61 47 42 48 62 74 79 87 86 68 62 54 55 71 78 78 95 94 91 95 98 97 85 83 88 79 72 62 63 65 69 65 61 64 67 70 69 72 78 76 84 91 94 86
58 64 76 56 43 35 44 58 64 69 70 68 66 57 56 60 70 68 80 91 97 89 97 98 94 86 85 88 76 67 70 67 69 67 66 68 68 71 72 73 74 78 85 88 95 99 95
53 61 71 54 41 31 40 50 54 56 59 59 55 57 55 59 69 76 84 95 86 88 93 97 95 85 87 79 70 68 69 69 70 74 76 70 72 73 76 77 82 89 93 91 92 98 93
50 58 67 54 41 32 37 43 52 53 53 50 57 57 60 64 68 74 80 73 77 91 95 94 88 85 75 69 72 72 73 72 76 81 82 81 75 79 79 82 88 92 97 97 95 98 97
45 55 66 57 48 38 36 37 40 44 46 52 51 50 56 55 60 66 68 85 90 92 84 79 80 72 72 71 66 71 75 77 81 80 88 84 82 77 81 88 93 97 98 96 98 92 97
43 49 62 58 52 44 42 40 40 44 46 46 45 50 58 58 59 61 69 74 81 78 77 74 66 63 68 65 64 73 80 79 84 87 83 84 89 79 81 89 93 97 96 98 98 98 97
36 46 53 55 52 47 40 46 43 45 48 52 63 62 63 61 62 65 72 83 80 79 71 67 62 57 59 68 73 81 81 81 85 86 84 87 88 76 79 82 82 88 92 94 91 97 97
31 41 43 50 44 44 43 42 43 48 50 52 60 67 69 68 70 79 83 82 80 75 65 61 57 60 72 80 86 88 85 82 82 84 86 82 81 82 70 66 67 67 70 75 83 79 86
27 35 39 42 45 36 39 39 41 47 49 54 57 60 62 61 67 70 67 64 61 57 58 60 65 71 77 84 83 80 77 74 77 76 75 72 75 80 64 57 56 59 61 64 69 73 78
21 30 35 36 37 35 32 35 36 41 49 54 54 58 57 57 61 62 63 59 58 60 64 68 72 73 76 76 72 72 71 65 63 61 60 60 63 64 65 60 57 53 52 55 54 63 62
18 28 32 33 34 34 28 29 34 36 40 47 51 57 59 62 59 60 59 60 63 67 68 70 69 69 65 66 65 65 59 53 50 50 50 48 50 52 48 47 45 42 46 49 52 50 49
18 25 30 27 29 32 28 27 29 31 35 40 47 53 55 56 57 56 58 61 62 61 60 60 60 58 54 55 55 53 50 44 43 41 42 44 44 47 46 42 43 41 39 43 44 43 45
17 24 30 28 26 28 27 26 26 28 30 36 43 45 46 48 49 49 52 50 50 49 49 49 47 46 43 43 42 42 41 39 37 38 39 40 44 48 42 41 41 36 32 38 38 39 38
16 21 30 28 25 24 28 25 24 27 30 32 37 38 38 41 43 45 44 43 42 43 43 41 40 39 38 37 36 35 35 35 34 33 34 36 40 44 45 36 39 25 30 32 34 34 34
16 18 31 30 26 23 22 24 23 24 26 29 32 34 34 39 40 38 39 38 36 37 39 39 38 39 38 35 34 34 34 30 29 28 30 32 36 39 42 42 27 25 27 31 33 30 31
16 15 28 33 27 23 22 22 22 21 22 23 27 31 32 32 32 35 37 36 36 37 35 34 33 33 33 32 31 31 32 31 28 29 29 31 34 37 40 36 27 24 28 28 28 28 29
13 15 22 33 33 26 22 22 21 21 21 22 25 26 28 31 32 34 34 33 32 33 33 31 30 29 30 33 35 37 39 34 35 33 28 31 35 38 41 43 31 26 29 28 27 21 26
15 14 16 29 34 32 25 23 23 22 21 22 24 26 26 26 26 29 33 35 36 35 33 32 31 33 32 34 36 39 38 36 37 30 29 29 35 39 40 41 31 28 30 28 23 25 25
33 14 11 26 34 34 31 26 24 23 23 23 23 24 25 25 26 26 27 29 30 33 34 34 34 35 36 38 40 40 38 39 37 35 28 34 29 29 33 28 23 27 25 25 25 25 26

GFSGBSN_prec_cthk_096.txt.gz
RH
44 46 40 43 50 54 55 58 52 51 51 52 50 54 65 71 80 93 97 96 89 91 67 68 78 86 83 89 82 59 49 50 38 31 28 29 31 31 30 29 28 29 29 28 27 26 23
45 47 48 58 62 63 67 71 63 58 53 51 47 53 60 72 82 91 98 95 93 90 74 73 90 98 96 90 95 82 53 47 39 36 36 36 34 32 30 30 28 30 29 28 26 23 23
49 49 56 66 71 76 82 76 68 63 57 50 54 60 63 69 80 90 94 93 89 86 75 75 97 90 95 96 96 87 68 58 51 48 43 39 35 31 31 31 32 31 32 30 27 26 27
40 48 63 72 83 80 76 78 85 85 74 63 59 60 69 80 80 85 86 80 79 78 75 70 89 98 96 96 92 83 75 64 55 47 41 39 36 34 36 37 38 38 38 39 29 32 32
46 62 68 85 76 71 78 87 92 93 89 86 69 56 62 82 87 83 76 68 74 70 76 70 90 98 94 98 97 91 80 69 57 49 45 42 40 43 44 45 45 45 52 47 41 39 42
59 64 79 72 66 71 80 83 87 94 94 97 77 55 63 80 81 82 62 64 94 82 82 88 98 94 97 97 96 92 83 72 62 55 51 50 50 51 51 48 46 43 52 49 51 44 46
53 69 72 57 65 66 71 85 99 93 89 89 85 60 63 62 69 74 59 89 98 84 91 99 98 92 96 97 96 89 80 71 64 61 60 57 53 51 48 47 46 50 54 56 52 53 55
53 73 59 55 54 55 67 77 93 96 88 88 83 64 59 56 62 71 69 96 96 92 98 99 98 96 94 93 89 81 84 75 69 64 57 56 54 48 48 49 52 54 60 58 58 58 59
55 67 52 53 46 52 56 69 81 89 88 86 78 63 58 52 66 70 87 97 99 98 98 98 99 98 97 95 93 88 72 71 66 61 57 52 49 49 49 53 57 58 63 65 68 66 68
58 63 51 43 44 50 51 58 69 78 81 77 67 55 45 54 71 80 93 98 98 97 95 98 97 97 94 81 81 75 73 69 65 59 58 56 51 52 55 58 58 66 64 68 76 83 85
55 62 52 42 40 44 48 54 57 62 58 56 47 42 50 68 75 84 98 99 98 93 94 98 97 90 87 91 82 80 73 64 63 62 58 56 57 59 62 60 62 64 67 74 79 86 90
51 61 55 44 39 41 45 54 58 59 54 49 45 49 53 66 78 90 94 96 91 83 96 98 96 94 93 88 84 73 67 63 62 62 62 61 61 64 61 65 65 70 78 80 82 87 94
47 55 56 47 39 39 38 43 45 48 49 47 47 56 63 72 78 85 83 80 81 88 95 97 92 90 90 79 70 69 66 64 65 67 68 64 67 64 67 73 73 82 90 88 86 92 91
44 53 52 47 44 38 40 34 36 42 47 56 58 63 63 66 71 70 65 67 78 92 90 87 84 81 78 69 67 66 67 69 69 72 73 73 71 75 77 80 87 93 96 96 93 95 94
40 47 48 44 41 41 41 44 41 42 44 43 45 47 51 57 57 59 62 72 85 86 80 80 77 70 69 69 67 69 73 75 75 71 81 80 82 78 83 86 90 95 98 97 97 97 97
35 41 47 42 37 38 40 42 45 42 41 42 43 46 48 50 52 51 58 75 80 77 72 70 66 63 66 65 65 74 76 76 82 81 82 86 91 80 84 88 88 94 95 97 97 97 96
30 36 42 39 38 37 35 36 40 46 50 51 50 48 49 48 47 49 59 69 68 65 63 62 57 55 58 65 70 78 80 79 80 84 86 89 89 80 80 81 77 85 86 93 96 98 97
25 31 35 36 30 32 35 36 37 40 44 47 53 57 58 55 52 54 62 65 64 62 57 56 54 60 69 76 78 84 84 81 80 84 88 85 84 82 67 62 63 65 72 76 86 83 88
22 28 29 32 30 30 31 33 35 38 41 44 45 53 56 53 56 58 57 58 59 57 59 65 68 71 76 79 80 82 78 73 75 79 77 75 74 76 58 53 52 58 59 63 67 71 76
19 25 28 28 27 26 29 32 34 34 38 38 39 48 50 52 55 56 57 58 60 64 70 73 74 70 71 73 72 70 67 61 60 60 60 60 59 58 58 52 52 49 49 55 56 63 60
19 24 27 27 26 25 25 28 30 32 34 35 41 51 52 55 53 57 59 65 68 71 69 67 65 66 67 67 63 58 53 51 50 48 50 49 47 48 44 45 43 42 41 47 49 47 45
19 22 24 25 25 24 23 25 27 29 32 36 41 46 49 51 52 54 57 61 62 61 60 58 56 56 55 55 53 50 49 44 42 41 42 44 43 44 45 37 39 40 36 38 41 43 43
17 22 25 23 25 23 22 22 24 26 26 29 35 38 39 42 43 44 50 48 48 48 48 48 48 46 44 44 44 42 40 40 39 39 38 40 42 45 41 34 36 33 29 33 35 36 36
16 20 28 25 24 24 21 21 21 24 27 27 28 29 31 37 39 41 41 38 38 40 40 38 38 36 36 36 35 35 35 35 36 35 35 37 40 44 44 33 31 20 26 29 31 31 32
18 16 26 29 24 23 23 21 20 19 22 25 25 26 27 32 34 35 36 36 34 36 37 36 35 34 33 30 29 29 31 29 31 31 31 34 37 39 41 41 24 22 24 28 30 26 28
30 16 19 34 29 25 23 22 21 20 20 21 23 24 24 26 27 29 32 33 34 34 32 31 31 29 29 29 29 29 29 30 28 28 30 33 34 37 39 35 24 20 26 27 25 24 24
42 22 15 26 36 31 24 22 22 21 20 20 23 23 23 23 24 26 29 29 28 29 28 26 26 27 28 32 34 36 38 34 35 34 27 31 35 37 40 41 30 22 27 27 23 18 23
54 30 19 18 34 35 32 24 22 22 20 21 22 24 25 23 21 21 22 25 28 29 29 27 27 30 30 32 35 36 38 35 36 31 28 28 32 38 40 42 31 24 28 26 21 22 22
60 51 23 17 26 36 35 32 26 24 22 22 23 24 25 26 24 22 22 23 25 26 27 27 28 29 30 33 37 39 39 40 37 35 28 33 27 26 30 26 20 23 23 22 23 23 24

GFSGBSN_prec_cthk_099.txt.gz
RH
50 57 53 53 64 60 61 63 67 69 65 66 62 56 52 52 52 54 63 78 87 83 80 86 75 88 84 82 85 73 69 63 48 41 35 30 29 28 30 29 28 29 28 26 24 21 20
36 40 53 57 58 62 67 81 83 90 89 74 65 58 52 49 50 60 75 85 97 90 84 77 82 89 98 90 87 85 73 63 49 39 35 32 31 29 28 30 27 28 27 24 21 21 22
35 51 62 57 56 66 80 91 94 92 94 94 88 77 65 60 60 65 83 90 94 95 88 86 86 93 99 97 94 93 79 60 48 42 39 36 32 28 29 30 30 29 27 26 25 25 26
39 63 56 51 64 70 76 90 91 93 97 98 94 84 61 64 69 76 78 89 87 90 85 78 93 93 96 98 94 93 90 75 63 54 46 40 36 32 32 33 31 34 33 31 27 31 33
52 59 51 54 57 65 69 86 92 94 93 96 93 92 62 54 74 84 85 79 77 83 76 81 99 96 98 96 96 95 84 75 67 56 47 41 36 37 37 37 38 39 42 43 41 40 43
57 50 54 48 55 58 69 83 94 99 96 95 97 75 54 60 72 75 77 74 92 90 84 87 99 98 99 99 95 92 83 76 67 59 48 43 42 45 45 43 43 47 50 49 48 43 45
53 51 51 44 51 58 66 77 82 82 90 89 86 60 52 53 60 67 74 76 98 96 92 92 96 97 96 95 91 87 82 78 67 59 57 56 53 50 50 49 46 50 53 57 48 45 47
47 51 43 44 48 50 60 79 83 83 80 79 63 53 52 51 58 66 73 81 96 94 96 99 96 98 98 97 94 89 81 74 71 70 64 59 58 54 51 51 51 53 55 54 46 49 51
44 52 42 42 46 45 45 54 62 72 68 59 50 48 48 58 63 79 87 92 97 95 98 99 98 98 98 91 88 87 76 73 71 68 63 56 57 53 50 51 54 54 53 53 57 56 61
44 50 44 40 43 48 41 45 42 40 38 41 48 55 64 74 86 88 95 96 95 94 95 98 98 98 98 94 91 83 77 70 69 63 59 57 53 52 52 54 51 54 49 56 64 71 72
42 45 46 41 36 46 40 45 53 47 51 58 73 82 90 88 94 96 98 98 95 88 92 98 98 95 91 90 81 79 76 70 67 64 57 56 54 56 55 53 51 54 57 63 70 79 80
40 40 44 41 40 38 37 39 46 53 57 64 70 78 85 90 95 94 94 89 83 77 94 97 98 98 92 88 85 76 72 66 62 60 59 55 55 57 56 55 58 59 70 78 80 81 82
37 38 41 44 38 37 38 37 39 45 50 54 62 68 75 80 83 81 80 77 73 80 96 97 97 90 85 83 78 71 67 64 63 62 60 59 61 58 60 68 70 79 88 83 78 81 79
33 34 37 39 41 36 37 37 35 37 39 45 48 55 60 69 72 67 66 69 73 88 91 93 86 78 76 72 71 69 65 65 62 64 64 67 65 69 74 79 86 89 88 85 87 85 82
32 31 33 34 36 37 37 39 39 38 39 40 46 53 60 61 60 61 64 69 81 85 83 80 77 72 73 68 64 65 66 65 63 63 70 76 80 78 83 81 83 88 89 86 90 85 91
28 30 29 30 32 34 37 41 43 40 42 42 42 43 50 53 53 55 56 64 71 68 66 65 64 59 62 61 60 65 67 69 74 73 79 86 89 78 79 79 79 78 82 90 93 92 90
24 29 26 26 27 29 34 37 40 44 45 43 41 40 46 46 45 44 51 65 65 63 61 55 51 55 58 63 66 72 75 75 80 85 84 83 82 74 75 77 74 81 83 84 91 97 95
23 26 25 24 24 26 30 34 38 41 41 44 38 43 42 41 41 51 56 57 55 54 53 51 52 57 64 69 74 80 79 79 82 83 83 80 78 77 64 62 62 61 66 71 80 81 88
19 23 24 24 24 23 24 28 33 35 36 37 36 41 40 38 46 48 48 53 56 57 59 61 63 68 73 77 76 76 77 74 75 76 76 73 71 69 51 49 49 51 54 58 62 65 67
17 22 24 24 23 22 23 23 25 30 31 31 34 42 39 39 46 50 54 58 60 63 64 66 68 68 69 69 67 66 62 60 61 62 59 56 55 52 51 43 46 48 45 50 54 57 53
19 20 22 23 23 23 22 22 23 27 28 31 35 45 48 52 51 54 56 60 62 64 61 62 62 63 58 54 50 51 49 48 47 46 49 49 47 46 42 42 43 43 41 41 48 45 44
18 18 20 21 22 22 22 21 21 23 26 29 34 38 41 47 48 50 52 56 57 55 54 53 52 49 46 46 45 44 44 39 38 39 40 43 44 42 42 36 38 39 37 39 41 42 42
19 19 20 20 23 22 22 21 21 20 21 23 27 31 32 36 39 39 42 40 41 41 41 42 43 41 38 38 38 38 37 36 36 35 35 38 41 43 39 32 34 33 28 32 34 34 33
34 16 21 21 20 22 22 21 21 21 21 22 21 23 25 32 33 34 34 33 33 35 35 33 33 33 32 33 33 34 35 36 36 35 35 35 39 43 44 31 27 18 24 26 29 29 30
53 24 17 25 21 20 22 23 22 21 20 21 22 21 21 27 28 29 29 30 30 31 33 33 31 30 29 27 26 26 29 27 31 32 36 35 37 40 41 41 22 19 22 27 28 22 24
61 42 18 18 30 21 21 22 23 22 21 21 23 24 23 22 23 24 28 30 29 29 28 26 26 26 27 27 26 26 26 28 28 28 32 35 37 39 42 35 23 16 24 26 26 24 21
64 59 33 18 22 32 24 21 22 22 22 22 23 24 25 22 21 22 25 26 26 28 28 25 26 27 27 28 30 33 34 32 34 32 27 32 37 41 41 42 29 21 25 26 24 16 22
64 65 57 28 18 26 34 30 21 22 23 23 23 25 25 24 22 21 22 22 25 27 28 27 27 29 29 30 33 34 38 34 36 31 28 28 34 39 41 43 30 22 26 23 19 20 21
70 70 63 54 29 22 28 35 30 25 22 22 24 26 27 26 24 23 22 23 24 24 26 27 27 30 31 33 34 37 38 39 36 33 29 32 26 26 29 25 20 22 21 21 21 21 22

GFSGBSN_prec_cthk_102.txt.gz
RH
30 43 50 54 58 70 81 90 89 84 85 81 73 71 67 61 51 47 49 60 70 74 74 69 82 82 85 88 85 80 80 72 49 40 36 30 27 25 23 22 22 22 24 23 21 20 19
38 45 48 53 64 71 78 87 90 94 96 90 81 66 64 57 48 44 51 57 68 85 82 71 76 87 90 94 94 90 89 80 55 46 40 34 30 27 27 27 24 25 23 22 20 21 21
41 46 52 49 52 67 79 79 87 90 90 90 91 85 76 59 53 55 58 64 65 80 89 75 73 90 97 94 88 96 84 69 58 45 38 35 31 28 27 28 26 25 23 22 23 23 24
39 47 42 43 58 74 76 81 85 87 94 97 98 96 81 57 65 59 60 71 74 87 94 76 75 94 95 99 90 85 76 63 61 51 41 37 33 29 30 29 28 27 26 24 24 27 30
39 45 39 45 47 65 72 70 74 81 90 92 98 97 84 60 59 67 70 71 74 79 87 77 87 99 98 99 95 89 76 72 71 60 49 40 33 35 34 32 33 30 34 31 31 34 37
43 42 42 45 41 52 69 67 68 84 78 71 71 66 59 56 59 67 73 80 88 74 90 83 97 98 99 98 96 92 87 77 72 65 53 46 44 41 38 34 40 38 41 39 40 40 40
44 39 42 45 42 46 54 63 61 61 63 59 56 53 52 52 52 61 68 84 92 98 96 93 98 99 99 96 94 91 86 79 70 61 58 52 47 47 42 38 38 42 47 51 45 43 43
40 39 41 42 44 45 50 54 54 54 52 48 48 48 49 52 56 57 67 78 91 92 96 99 98 97 98 96 93 91 85 76 69 65 60 56 57 49 48 50 50 51 51 48 42 43 43
39 40 34 37 42 46 50 52 61 67 67 65 64 61 68 72 72 69 76 93 95 89 97 99 98 99 98 94 90 84 78 75 71 64 58 59 60 58 54 55 53 48 44 44 49 45 45
35 41 35 34 34 36 44 51 62 70 76 77 78 83 85 90 90 87 91 97 92 91 96 98 98 98 98 94 90 84 79 74 71 67 64 63 60 55 51 54 47 46 41 43 50 56 59
31 38 36 30 31 32 39 45 52 64 76 82 84 90 92 93 87 93 96 96 92 86 89 98 98 97 96 91 85 82 79 72 68 63 62 63 57 55 52 47 45 45 45 51 56 66 70
28 34 35 31 33 31 33 41 47 55 64 74 76 80 90 93 88 89 92 91 79 77 93 98 97 96 91 89 85 79 74 67 67 62 58 54 53 54 50 48 47 51 58 66 68 72 76
28 32 33 35 35 36 33 39 44 52 60 66 67 71 75 80 83 86 78 71 74 76 92 97 97 92 87 83 77 74 71 64 61 65 65 58 59 54 53 55 60 66 75 75 75 79 74
27 30 32 33 34 36 34 36 41 49 55 59 61 64 68 66 64 65 64 68 72 86 90 93 87 82 77 71 70 66 61 61 59 58 61 62 65 56 63 66 73 80 82 83 80 73 72
26 30 29 31 33 33 35 38 39 42 51 50 52 55 58 58 57 60 62 68 76 74 73 73 70 67 67 64 60 63 62 60 60 56 60 65 74 69 74 73 77 83 84 83 87 75 82
22 23 26 26 28 32 35 36 38 38 39 41 42 43 46 48 51 53 48 59 62 62 60 57 55 55 59 59 60 60 61 59 62 62 68 73 82 72 73 72 72 73 76 85 88 84 76
21 20 22 24 26 28 31 33 33 35 35 35 34 37 41 40 42 41 49 54 54 56 54 51 50 53 57 60 62 65 66 69 74 76 76 77 72 67 68 72 71 77 77 76 78 82 80
20 20 20 22 23 24 26 28 30 30 35 34 30 38 38 35 38 45 49 51 51 51 53 54 56 60 62 66 69 70 71 72 75 75 73 69 65 68 59 58 57 56 55 55 62 68 66
16 21 19 20 22 22 22 23 26 26 25 30 31 35 38 37 48 48 49 51 53 54 56 58 62 64 67 68 68 69 68 67 67 67 63 60 57 56 44 43 44 43 45 46 50 53 53
16 19 20 19 21 21 22 23 24 24 25 26 30 41 40 41 47 50 54 58 58 60 60 61 62 61 61 61 60 58 56 56 56 54 51 49 46 42 37 34 37 39 38 39 44 49 41
17 15 21 20 19 21 20 21 23 24 26 28 32 41 44 48 46 48 49 54 57 58 55 53 50 51 49 46 45 44 44 42 43 42 43 44 44 40 35 34 36 36 35 35 40 37 38
25 16 18 21 20 19 20 19 19 20 21 24 29 35 37 41 43 42 41 47 48 49 48 44 42 40 38 37 38 37 38 35 34 36 38 41 43 38 38 30 33 34 31 31 31 32 35
46 19 17 19 20 20 19 20 20 19 20 20 21 23 25 28 29 29 33 33 34 35 34 35 35 33 32 33 34 33 33 33 33 34 34 36 38 38 34 27 27 25 21 24 26 27 28
58 32 17 19 20 20 20 19 20 20 20 20 21 20 20 23 23 23 25 26 27 29 31 29 30 29 29 30 28 28 30 32 34 34 35 34 35 38 39 29 29 17 22 23 24 25 26
61 54 26 17 22 21 20 19 19 19 20 20 21 21 21 20 23 24 25 24 25 25 26 27 27 27 26 25 24 22 24 26 28 32 34 35 35 36 36 30 18 16 19 22 23 19 20
63 64 52 24 17 26 24 20 20 19 19 20 21 23 22 22 19 21 24 26 23 23 23 22 23 24 24 24 25 25 21 24 24 26 31 36 38 38 37 33 17 14 21 23 24 21 18
64 68 65 53 23 18 29 30 22 19 17 18 20 22 23 24 20 21 22 23 24 25 23 24 25 27 26 26 26 26 26 29 26 26 30 34 36 38 38 34 22 18 22 25 23 14 18
67 70 70 65 55 28 21 28 33 27 20 18 18 20 24 24 22 22 22 23 24 26 25 26 27 28 29 28 28 28 31 29 32 27 26 26 29 32 36 40 34 24 29 25 21 22 24
68 68 72 69 66 54 39 27 30 31 31 27 20 19 20 22 23 23 23 23 23 24 25 26 26 28 28 29 31 32 30 32 30 25 27 28 23 23 25 21 18 20 20 21 21 22 23

GFSGBSN_prec_cthk_105.txt.gz
RH
34 44 37 36 41 60 68 80 87 85 92 90 85 79 80 83 72 69 67 63 63 68 58 57 76 93 85 88 89 75 66 64 44 35 32 28 25 26 23 22 18 18 19 19 19 19 16
41 37 35 36 44 56 64 73 78 86 85 89 85 80 67 65 64 49 51 52 61 74 74 64 65 87 89 94 90 76 80 70 56 43 38 32 30 27 26 24 22 21 19 17 17 16 16
41 32 34 35 47 54 60 72 70 77 87 88 89 89 79 66 55 50 45 48 48 62 70 73 64 74 89 92 94 80 93 83 65 55 42 35 31 27 26 25 24 22 19 18 18 18 18
39 36 35 38 40 58 60 66 75 78 85 88 93 90 83 57 60 55 54 53 55 57 75 79 69 72 88 92 97 93 95 83 73 58 42 35 31 30 29 26 24 25 22 24 23 22 25
38 37 38 39 39 48 57 57 55 58 71 94 96 95 81 61 59 57 56 53 58 68 89 80 77 80 90 96 98 97 88 74 71 61 46 37 34 33 31 32 33 27 38 26 28 27 29
40 33 37 43 45 45 50 52 54 51 51 51 56 65 55 59 58 59 58 58 65 88 98 83 89 86 97 96 96 90 83 74 71 63 55 46 40 37 35 33 44 36 34 31 31 34 34
37 30 32 35 45 51 55 55 59 51 53 52 54 50 49 49 52 59 84 93 91 94 92 91 98 95 97 97 92 88 84 76 72 66 62 58 54 50 42 38 36 34 34 35 35 37 41
37 34 29 32 38 45 56 67 74 75 70 61 69 63 56 55 55 65 82 93 94 88 90 95 98 98 98 98 97 94 85 75 68 69 62 59 57 51 44 42 44 45 43 46 43 43 43
35 36 28 28 36 41 50 67 77 85 90 89 86 86 78 72 61 65 83 92 95 94 97 98 97 98 98 97 94 90 85 79 71 67 58 62 57 51 50 52 51 48 48 48 51 44 40
28 36 34 29 32 38 46 57 66 77 87 92 94 92 90 90 79 87 93 96 95 94 97 98 98 99 98 96 92 90 85 77 69 64 62 60 57 56 56 59 54 54 44 42 44 47 49
23 30 37 30 32 38 47 54 60 67 75 81 90 88 91 89 90 90 91 94 95 91 94 98 98 97 97 92 84 83 78 76 70 68 68 73 66 65 59 56 48 49 42 43 46 51 58
22 27 32 33 30 32 41 50 57 66 71 74 75 83 88 85 85 85 89 89 83 92 95 98 97 97 94 89 85 82 79 74 70 66 64 61 59 56 54 49 46 43 47 50 57 62 66
23 25 30 32 30 33 41 46 51 56 61 64 69 72 81 85 84 82 76 72 83 83 96 97 97 92 86 84 77 75 69 66 68 72 70 57 57 54 52 52 51 52 61 73 73 74 70
21 23 26 29 31 32 35 40 44 45 50 53 58 62 63 68 72 69 64 72 76 86 88 93 85 81 80 74 72 70 64 60 57 56 60 67 66 56 53 57 62 69 75 76 74 71 68
17 20 23 26 30 31 31 32 34 37 41 44 48 51 55 57 58 61 71 75 81 81 80 80 71 69 67 63 59 61 60 57 56 53 60 64 69 59 60 63 69 77 80 74 80 66 79
17 16 20 24 26 28 29 29 30 30 33 37 41 45 48 51 53 51 54 61 62 60 58 57 57 56 53 54 56 57 57 55 54 54 58 61 72 62 66 66 67 66 70 81 85 83 77
18 16 17 21 24 24 25 26 26 26 25 26 30 38 41 43 42 44 58 53 49 50 52 52 49 50 51 55 54 55 54 54 60 63 68 70 68 64 64 64 65 69 70 70 69 71 78
16 19 16 17 20 22 23 23 23 23 25 25 29 36 36 36 39 44 50 51 50 49 51 52 52 54 57 60 61 61 63 67 71 71 70 65 61 62 54 52 51 52 51 48 56 60 54
16 18 18 16 17 20 23 23 23 22 25 28 33 35 37 43 52 49 47 48 51 52 55 56 60 62 64 64 64 65 64 64 65 65 61 55 53 52 42 40 40 43 41 42 43 48 47
17 14 18 17 16 17 19 23 24 25 25 27 33 41 42 45 49 50 51 54 55 57 57 58 60 61 61 60 58 57 56 55 53 51 47 45 43 41 41 37 35 36 36 36 39 46 38
39 16 15 17 16 16 17 18 21 23 25 27 34 37 40 45 43 45 46 49 49 49 47 46 46 46 44 42 40 40 40 39 41 40 39 39 40 38 32 28 28 29 30 32 38 35 35
56 19 15 16 17 16 16 16 17 19 20 21 27 30 31 31 31 33 34 38 38 38 37 34 34 34 32 32 33 32 33 31 30 33 35 36 38 33 34 24 26 27 25 25 27 29 29
56 47 16 15 16 17 16 16 16 17 18 20 20 21 23 22 24 24 24 25 27 28 27 27 27 26 26 27 28 28 29 28 28 27 29 31 32 35 34 25 24 22 17 19 21 22 22
55 59 38 15 17 17 17 16 16 17 17 18 19 20 23 21 23 23 24 24 25 26 26 26 25 25 25 24 23 22 24 26 27 28 30 32 35 38 40 30 34 18 17 19 19 20 21
56 61 60 35 15 20 19 17 17 16 17 18 18 20 23 23 21 23 24 26 25 24 25 25 26 25 24 22 22 21 25 26 28 31 33 34 36 39 41 29 20 15 18 20 21 17 19
61 60 64 60 38 15 22 25 18 17 17 17 17 18 20 22 22 21 23 25 24 23 22 22 23 23 25 24 24 25 19 22 24 27 29 35 37 39 33 35 20 17 19 21 22 22 18
63 63 67 67 59 45 22 22 30 26 19 17 18 19 19 20 19 19 21 21 22 24 24 24 25 27 26 27 27 25 25 27 26 27 34 35 37 41 41 40 28 20 22 23 24 21 18
60 63 65 68 65 59 48 37 25 27 30 27 22 20 22 23 20 18 18 20 21 21 21 26 25 28 29 29 26 27 27 27 27 23 22 24 29 34 33 33 35 19 22 19 18 18 20
60 62 63 65 66 62 57 49 47 44 27 28 30 29 26 24 22 19 19 19 19 20 22 24 26 27 27 27 27 28 27 28 23 20 22 23 17 18 18 18 17 16 16 17 18 20 21

GFSGBSN_prec_cthk_108.txt.gz
RH
28 29 35 35 45 49 48 60 66 71 78 97 91 76 74 80 78 75 77 86 83 75 63 58 66 85 86 83 91 92 74 66 45 33 29 27 28 27 25 23 18 18 20 18 18 17 15
27 30 35 38 49 51 45 46 65 77 85 93 93 87 70 68 76 70 80 84 81 76 68 63 61 78 90 92 85 89 84 74 56 42 34 28 26 27 26 25 22 19 20 18 16 15 14
25 34 35 40 49 52 52 43 45 72 88 92 88 84 72 67 71 61 62 63 70 77 78 73 60 71 91 94 87 86 95 73 58 54 41 34 29 24 24 23 22 19 18 18 17 15 15
26 32 29 39 50 57 58 48 44 54 85 98 94 91 73 56 57 57 57 53 52 54 75 77 65 80 94 97 91 95 88 89 65 55 46 35 30 27 25 22 20 20 18 21 20 19 19
30 29 28 36 48 59 68 68 56 50 64 77 90 94 76 62 62 60 55 53 57 60 75 83 73 87 91 98 96 94 89 87 78 64 49 36 31 28 25 28 30 24 38 25 28 25 24
30 28 31 38 49 58 67 76 72 60 51 55 64 68 69 66 62 58 58 54 59 75 85 85 76 90 88 99 97 96 82 80 76 68 52 37 33 32 30 35 49 37 32 30 28 32 31
30 26 29 38 47 59 68 75 85 83 61 53 45 44 46 50 54 65 72 62 74 90 86 87 81 86 89 97 92 91 89 77 68 64 59 48 44 45 36 36 34 36 32 34 33 33 36
30 30 26 38 47 55 68 77 78 90 91 77 68 56 55 51 58 86 85 83 91 88 91 96 85 93 92 93 89 87 84 76 71 71 59 59 60 48 42 38 37 36 38 43 44 44 45
25 31 31 32 42 51 61 70 81 77 87 91 86 75 70 65 67 83 90 87 84 83 94 98 92 93 95 94 92 85 81 78 72 68 66 66 60 55 52 52 49 48 49 51 54 49 47
23 27 30 33 39 44 55 66 75 80 75 83 83 73 73 72 73 85 87 86 90 93 97 99 98 99 97 96 95 90 82 75 71 66 64 63 58 55 52 54 50 54 50 49 52 55 58
26 25 27 29 35 40 47 56 65 71 77 75 78 76 75 82 89 91 89 93 93 92 93 98 98 98 97 95 92 89 82 80 71 67 65 67 57 57 57 57 53 63 55 53 52 47 50
24 24 27 28 32 35 39 46 53 60 64 75 74 78 80 84 87 88 88 90 91 90 95 98 96 97 92 91 86 85 82 77 71 66 67 64 61 61 65 59 57 53 49 49 48 52 60
23 21 25 28 29 31 34 38 43 47 50 57 66 73 70 76 78 79 80 78 84 85 95 98 98 96 85 86 85 81 77 75 77 82 81 71 67 63 60 56 51 48 54 62 68 70 69
16 19 22 26 27 27 29 32 35 38 45 48 53 58 65 64 70 73 72 77 79 91 94 96 92 88 84 79 78 75 73 71 66 65 69 64 67 56 53 53 54 59 64 74 67 70 69
16 16 19 22 24 25 26 28 29 32 36 43 47 51 54 61 64 70 74 76 86 87 82 81 80 77 75 72 68 66 60 59 54 55 59 64 66 54 55 57 59 69 76 70 74 64 74
16 15 17 19 21 21 22 25 26 28 30 36 39 42 47 51 56 58 61 68 74 70 71 68 63 58 58 59 59 59 56 54 54 51 54 57 63 58 61 61 62 68 67 80 81 83 79
15 15 16 16 18 19 21 22 24 26 29 30 33 36 36 39 38 38 52 50 49 50 52 52 49 50 50 54 53 53 52 51 54 57 61 61 64 64 64 65 70 70 67 67 66 68 71
13 16 16 15 17 20 21 22 22 26 29 32 31 38 36 37 41 46 51 49 49 51 52 53 53 54 55 53 54 56 60 62 64 64 65 60 64 70 63 56 52 52 51 53 60 65 60
23 13 16 15 15 17 20 22 22 23 25 29 36 39 43 44 55 54 53 55 56 56 57 57 58 57 57 57 60 61 61 61 61 61 60 54 55 58 47 43 41 40 38 40 41 47 51
36 16 15 16 15 15 16 18 21 23 23 25 34 41 42 44 48 51 53 54 55 56 55 54 54 55 54 52 51 50 50 48 46 45 42 40 40 42 50 39 34 36 35 36 39 52 42
46 31 14 15 15 15 15 15 16 18 20 23 29 33 37 42 40 40 39 42 43 43 42 40 38 37 36 36 34 35 33 34 35 35 34 34 37 35 33 29 28 28 28 32 36 33 39
52 41 27 14 16 15 15 14 15 16 16 17 23 27 25 25 27 29 28 30 31 30 32 29 29 28 29 29 30 30 29 29 28 32 33 33 36 31 34 25 26 28 26 25 26 30 31
50 56 41 25 16 16 15 15 14 14 15 17 19 20 24 22 23 24 25 25 26 27 26 26 26 27 26 27 26 26 26 26 26 26 28 30 35 37 38 30 30 29 20 21 22 22 24
50 54 59 43 23 17 18 15 15 14 14 15 17 19 23 23 22 24 24 24 25 26 29 26 25 25 27 23 21 21 23 24 27 29 30 33 35 39 46 36 43 21 18 18 20 19 22
57 55 57 61 46 24 17 23 16 15 14 15 16 18 21 24 21 22 22 23 22 22 23 23 24 23 23 22 25 25 30 29 29 30 33 34 37 44 52 43 28 19 21 22 23 20 18
54 58 59 62 61 49 31 17 25 24 15 14 15 16 19 21 23 20 20 21 22 21 22 22 21 21 23 25 26 28 27 25 29 33 31 37 39 46 43 43 34 20 19 19 20 24 19
55 56 60 61 62 59 52 40 24 21 25 23 21 17 17 20 19 18 19 23 23 22 22 22 22 24 24 29 31 30 31 27 29 28 38 40 42 46 47 46 32 20 19 19 18 18 15
55 58 57 60 61 58 60 54 47 38 27 23 24 25 25 26 20 18 18 19 20 21 23 25 25 28 28 29 28 29 30 27 26 21 25 30 36 40 40 41 39 19 19 17 14 15 16
57 60 59 60 61 61 57 57 55 51 50 42 36 28 26 26 25 25 24 22 22 22 25 26 26 27 27 28 26 26 27 25 24 27 19 23 18 22 24 24 16 16 14 15 15 16 18

GFSGBSN_prec_cthk_111.txt.gz
RH
21 24 31 40 45 53 53 50 46 64 84 89 89 80 70 71 72 76 79 68 68 67 70 69 75 80 76 76 83 94 84 62 41 33 31 29 25 25 23 21 17 18 18 16 17 14 13
23 25 32 40 49 59 61 56 50 64 85 89 89 78 68 63 66 69 71 80 79 78 73 68 69 76 80 83 83 94 95 69 48 36 31 29 28 27 26 22 19 18 19 17 16 14 13
23 26 33 40 54 65 65 69 62 65 85 92 88 74 61 56 68 67 78 89 92 94 85 72 62 65 84 84 90 89 96 76 59 41 33 29 27 26 26 26 23 20 17 17 16 15 14
24 27 35 44 54 65 68 70 67 69 66 86 96 83 56 52 60 63 76 81 88 86 78 73 66 68 78 84 94 96 92 83 69 52 36 29 26 24 23 22 21 20 18 21 18 17 17
22 26 38 46 56 66 71 77 71 61 57 65 91 81 63 59 55 54 71 68 63 67 79 82 75 70 81 94 94 93 93 86 72 59 47 35 29 26 22 23 27 21 33 20 21 20 21
26 27 34 45 57 70 82 74 84 73 54 45 53 69 68 58 51 49 47 50 60 63 86 86 84 78 93 98 95 90 87 82 78 58 48 36 30 29 28 33 35 29 28 26 24 27 27
29 27 30 37 47 59 73 87 76 84 71 52 41 37 42 49 51 57 53 63 74 76 91 85 92 90 96 97 91 92 83 80 83 69 54 43 39 38 32 30 31 31 31 32 30 32 33
28 27 30 34 41 51 65 83 82 83 78 68 57 51 45 49 61 65 60 74 88 84 92 83 91 95 98 98 98 87 84 79 77 72 56 55 48 38 34 33 32 32 33 38 39 38 37
28 26 28 32 37 46 56 67 84 81 77 71 65 61 59 59 69 70 77 81 82 90 93 85 95 98 98 94 95 91 82 76 72 65 63 60 51 44 40 39 38 38 39 45 49 46 47
28 26 27 30 34 39 46 54 68 77 76 71 66 58 56 59 71 74 77 85 94 93 87 93 98 98 97 92 94 92 84 76 69 70 68 65 58 52 52 50 48 50 50 51 52 54 59
26 25 27 28 30 34 41 46 53 66 71 70 74 70 64 62 70 73 76 85 86 84 89 98 98 96 96 92 85 83 82 78 72 72 68 68 58 55 56 55 52 58 53 53 54 56 56
24 23 26 27 27 30 34 41 45 51 61 65 69 72 69 70 72 68 72 78 81 76 94 98 97 97 95 92 88 80 79 71 71 68 66 60 57 58 60 57 56 56 57 57 52 49 57
20 21 23 25 26 27 29 33 37 43 47 59 64 68 68 66 69 69 68 70 74 83 97 97 97 95 90 91 88 85 78 76 75 72 75 66 64 61 62 62 59 54 52 58 60 67 62
17 20 20 22 23 25 27 28 32 35 38 42 55 64 65 67 68 67 68 71 73 91 94 95 92 90 89 86 82 79 75 74 73 72 75 73 69 66 62 57 56 52 52 62 66 71 67
17 17 18 19 20 22 24 28 29 32 35 38 44 55 63 64 65 67 67 73 83 85 83 86 84 82 81 78 79 77 75 71 65 61 60 65 66 56 55 50 51 61 64 64 71 65 71
16 16 17 18 18 21 23 25 28 29 32 34 36 39 44 51 59 59 59 67 75 76 74 72 71 66 67 66 64 60 58 53 52 50 52 53 61 57 55 56 57 64 63 71 76 76 69
13 16 16 18 19 19 20 23 26 30 33 35 37 37 38 38 36 36 48 49 49 52 54 55 48 47 49 50 51 50 48 48 48 51 54 56 57 63 63 61 61 64 64 63 60 65 68
24 14 15 16 17 19 19 20 24 26 31 35 35 42 44 43 44 49 54 53 53 54 52 52 52 52 50 47 51 55 55 56 58 59 62 59 62 69 60 56 55 53 50 50 59 61 58
29 18 13 15 15 16 17 19 20 21 25 29 35 40 45 49 54 57 56 58 60 60 60 58 59 60 61 61 63 62 62 59 59 58 58 51 53 57 50 45 40 42 41 41 42 45 48
44 27 15 13 14 15 14 15 17 18 20 24 30 36 36 39 44 47 49 50 52 52 52 52 53 52 51 49 46 45 45 43 43 43 40 38 43 41 45 36 35 39 35 36 40 51 41
49 45 27 16 12 13 13 14 15 15 16 19 21 27 32 34 33 35 36 38 38 39 37 36 35 37 38 36 34 35 35 36 35 36 34 34 38 34 33 32 32 32 31 32 40 34 41
48 51 49 27 17 12 12 13 14 14 14 16 19 22 21 21 25 25 25 28 30 30 30 28 27 27 27 29 30 31 29 29 31 34 32 33 34 34 35 28 31 33 29 28 29 32 33
47 50 53 54 27 21 13 12 12 13 13 14 16 18 20 20 23 24 25 25 25 26 25 24 25 25 25 25 23 22 24 26 29 30 32 35 38 38 35 33 31 26 23 23 24 23 24
44 54 54 54 54 29 24 16 12 12 13 14 15 18 21 22 21 21 22 22 24 24 26 25 24 25 26 23 21 22 25 25 25 29 31 34 37 41 44 37 35 17 20 20 23 20 22
41 48 55 56 54 53 33 26 23 15 12 14 15 17 19 23 21 21 21 21 21 23 24 23 23 23 23 22 24 26 32 31 32 32 33 35 39 42 48 49 30 19 20 19 21 16 17
40 45 51 57 54 54 54 43 26 26 22 16 14 15 17 20 20 20 19 20 22 23 24 23 23 22 22 26 27 28 29 26 31 35 35 37 40 43 47 44 35 15 16 17 18 16 12
41 44 48 52 56 53 54 54 52 37 25 23 23 22 20 21 19 19 19 22 22 22 22 22 23 24 24 29 31 31 31 27 26 29 37 40 42 47 49 50 34 18 17 18 14 10 12
43 46 50 52 55 56 53 53 53 54 53 42 30 23 22 24 22 22 21 20 21 22 21 23 23 28 29 30 31 30 31 27 27 25 31 33 40 44 47 51 40 18 19 16 12 14 14
49 47 51 53 55 58 58 54 53 50 52 53 53 51 45 34 24 21 24 24 23 24 25 25 22 24 26 31 32 29 29 28 28 26 23 27 24 30 31 28 19 20 19 18 18 19 19

GFSGBSN_prec_cthk_114.txt.gz
RH
26 29 34 41 50 57 59 65 69 78 87 91 84 75 74 71 68 67 76 81 86 82 81 74 75 79 81 91 91 95 85 60 38 34 33 30 25 22 22 20 19 21 22 23 22 18 14
27 31 36 43 52 63 61 71 78 82 85 92 82 64 51 49 52 58 70 76 81 82 74 72 73 90 89 81 88 96 91 69 44 35 34 31 26 23 22 20 18 19 18 17 15 14 13
28 32 36 44 53 68 70 70 71 72 81 89 87 75 46 51 57 67 69 70 80 82 69 68 69 85 90 89 87 97 86 73 53 38 32 29 27 25 23 21 21 19 18 17 16 15 14
26 27 33 42 57 76 76 81 66 57 58 77 85 60 48 49 61 77 75 80 88 87 76 70 67 76 89 89 91 86 84 77 62 42 33 30 30 28 25 24 21 20 19 18 17 16 17
27 27 32 38 48 68 85 81 79 55 48 55 79 62 51 49 65 78 81 83 85 82 78 73 69 70 82 88 88 88 92 82 74 50 37 31 27 27 27 27 29 25 27 21 20 19 19
30 30 33 40 47 60 82 86 78 62 45 35 48 59 53 46 50 52 66 68 72 82 84 77 72 72 81 87 97 98 93 85 77 61 44 34 27 26 26 27 29 25 28 22 21 22 22
29 32 35 39 45 57 73 84 80 64 55 45 34 37 43 43 51 48 60 61 64 83 87 87 82 80 85 86 94 93 93 81 71 64 48 37 33 33 27 25 26 23 25 25 24 25 26
29 31 32 36 42 49 60 78 79 65 55 52 47 40 45 52 49 50 69 67 77 89 96 98 86 91 89 87 85 89 80 85 75 63 56 48 41 32 30 28 28 29 31 33 32 32 33
25 28 31 33 39 45 50 65 74 70 57 52 49 44 48 53 59 63 74 77 87 86 96 99 94 95 94 94 95 85 81 79 87 71 60 53 43 36 33 33 32 34 35 38 38 37 37
23 26 28 30 35 41 44 50 65 68 62 56 51 50 53 64 69 74 81 86 81 76 92 98 98 98 98 97 93 87 84 75 76 73 65 57 50 43 39 40 38 41 39 40 44 44 44
21 23 25 29 31 34 39 40 51 62 62 61 57 49 58 66 75 82 83 78 76 80 91 97 98 96 97 97 95 85 77 77 77 73 62 61 52 49 49 46 45 47 45 46 48 52 54
20 22 22 26 29 30 33 35 38 52 59 61 58 56 59 65 71 72 74 73 75 72 92 98 97 97 93 92 87 89 83 79 78 74 66 62 58 56 53 51 49 50 53 56 57 57 60
18 20 20 22 27 30 31 32 32 39 52 57 60 60 60 65 69 70 72 69 69 79 93 97 97 92 90 90 83 80 78 78 75 73 77 68 65 61 59 61 57 56 60 64 58 63 52
17 18 19 20 23 27 31 32 34 35 42 52 57 61 67 67 68 67 68 68 73 86 88 89 93 92 91 87 82 76 72 75 71 69 72 70 65 63 61 61 61 60 56 56 54 64 62
16 18 19 21 22 23 27 32 33 36 38 41 50 54 59 66 71 70 68 72 81 84 85 88 88 85 84 83 83 82 76 72 70 67 69 70 72 64 62 58 52 51 53 50 58 62 67
16 15 18 20 21 21 24 29 33 33 37 39 41 43 44 46 51 61 62 70 77 76 77 80 80 76 80 78 76 71 69 63 60 57 57 58 65 57 53 49 48 51 54 62 65 67 69
23 15 15 17 19 21 21 24 29 34 35 38 42 44 45 42 38 36 48 52 52 54 57 57 54 55 57 58 58 57 52 48 48 49 50 47 49 55 55 55 54 59 61 57 58 64 68
30 21 14 15 16 18 20 20 21 27 33 35 39 44 47 47 48 52 53 51 50 50 50 50 50 50 51 49 51 53 51 51 52 52 57 56 58 64 57 53 54 55 56 53 58 55 56
36 28 20 14 14 15 16 19 20 19 22 28 32 36 39 42 51 55 54 57 59 61 61 60 63 64 63 62 61 61 61 60 59 58 57 51 54 57 52 47 44 47 45 43 43 45 47
43 39 29 20 13 13 14 16 17 18 19 21 25 30 30 33 37 39 42 44 45 46 48 49 50 51 52 49 48 49 49 48 47 47 45 42 46 43 43 37 39 41 38 40 42 50 43
37 48 42 30 20 13 12 14 15 16 18 20 19 23 24 27 26 27 30 31 32 33 33 32 33 35 35 35 34 35 37 36 36 36 35 35 39 36 33 32 33 33 32 34 40 35 39
36 41 50 46 31 22 13 11 13 14 15 17 19 20 21 22 23 23 23 24 25 26 26 25 25 27 27 28 28 30 29 31 33 36 34 34 33 34 34 27 31 34 29 28 30 32 34
34 38 46 51 48 33 26 15 10 12 13 14 17 20 21 21 23 23 23 23 24 25 24 23 24 24 25 24 24 23 24 26 29 32 34 36 38 39 37 32 33 27 24 25 28 27 26
33 34 39 48 50 47 38 28 21 11 10 12 15 18 22 22 23 22 22 23 23 24 25 25 24 24 24 24 22 23 26 27 27 30 33 37 39 43 45 37 30 16 19 20 24 21 22
34 34 37 41 48 50 46 45 34 25 17 11 11 14 17 22 23 22 22 22 22 23 24 23 24 24 23 22 25 25 31 31 34 34 34 36 40 43 48 49 28 16 20 21 21 17 15
34 34 37 41 43 49 50 47 48 44 28 21 19 16 14 15 16 19 22 21 22 22 23 24 25 23 23 25 26 26 24 25 30 36 35 38 40 43 47 46 31 14 16 17 17 14 11
36 35 35 39 44 49 50 50 46 48 50 43 27 18 20 23 21 21 19 18 21 22 22 21 23 24 24 28 30 31 31 26 28 30 37 41 44 47 49 51 36 19 18 19 16 11 12
37 38 39 40 44 46 54 54 52 47 47 50 52 50 41 27 19 21 23 23 24 24 22 23 23 25 28 28 30 29 31 27 27 25 33 35 43 47 48 52 41 20 21 20 17 16 17
40 39 43 44 48 49 50 56 56 54 49 46 48 49 50 52 50 47 39 26 23 25 26 25 22 25 24 29 31 30 30 31 29 24 25 28 24 30 32 27 18 19 17 17 18 19 20

GFSGBSN_prec_cthk_117.txt.gz
RH
25 30 36 44 54 65 64 60 72 75 81 85 77 68 63 65 76 79 87 88 93 96 89 83 78 67 93 97 97 96 84 63 47 41 37 35 32 31 31 32 31 34 33 33 32 28 24
22 26 36 44 61 69 70 56 55 61 73 85 68 45 42 45 49 64 80 79 91 90 88 81 82 74 79 93 95 97 91 65 55 43 38 33 30 26 26 27 26 28 28 27 25 22 19
24 27 32 44 56 74 76 64 44 49 75 82 62 43 42 46 55 61 69 79 89 86 79 75 79 87 81 90 94 97 82 69 57 46 38 32 28 26 23 24 24 23 23 21 19 17 16
29 30 35 43 53 71 79 66 46 44 65 74 55 49 46 60 69 69 67 86 85 84 75 72 77 91 85 89 94 97 87 72 58 50 40 34 30 26 23 22 23 21 20 18 18 16 17
30 33 39 45 53 71 78 66 57 32 42 58 52 45 45 55 77 77 77 83 79 78 71 67 76 88 92 95 97 96 86 77 62 51 40 36 33 29 25 25 28 24 25 20 20 18 18
28 32 37 44 49 63 75 66 60 44 32 34 37 41 40 49 57 73 78 83 80 76 73 71 73 74 90 94 95 95 91 79 68 51 42 36 34 34 32 28 32 25 31 23 22 21 20
24 28 32 41 45 55 65 65 56 49 41 38 35 41 44 48 50 58 64 74 78 74 72 76 75 77 82 95 97 94 89 75 69 55 43 38 36 38 33 30 25 25 26 24 24 23 23
23 25 30 37 42 49 59 62 56 47 47 45 37 48 49 54 76 69 66 72 80 81 85 77 75 86 87 86 87 92 93 79 65 63 48 39 38 31 29 27 25 24 24 27 27 26 27
22 24 26 32 37 42 53 57 55 45 48 52 53 61 68 74 79 82 83 88 92 96 88 83 91 86 87 94 94 93 95 79 70 64 52 41 36 32 29 28 30 31 30 31 30 31 32
21 22 25 28 32 35 40 50 53 52 44 50 58 63 70 75 80 81 83 86 93 90 90 98 98 97 91 94 91 88 90 83 70 68 57 48 39 36 35 34 31 33 33 34 35 36 34
19 20 22 27 29 31 34 41 51 53 55 51 54 65 72 71 74 77 75 82 85 81 90 97 98 94 92 92 89 79 81 78 75 68 55 55 46 44 42 39 37 38 38 39 40 44 45
18 18 20 25 29 30 32 36 42 50 56 60 62 64 68 71 74 75 75 76 74 74 93 98 97 98 96 92 87 80 79 75 72 67 60 57 52 48 46 44 43 42 44 46 51 52 54
17 18 19 22 26 30 33 35 39 43 46 57 67 72 71 74 74 73 73 71 76 84 95 97 98 97 94 93 83 78 82 80 76 67 70 61 57 55 53 52 50 50 54 57 50 62 53
15 17 20 20 23 27 32 36 38 42 45 45 54 66 69 70 73 73 68 68 74 84 90 92 94 89 89 83 83 78 78 82 78 72 74 69 64 60 58 59 58 59 56 57 40 65 61
20 15 18 19 21 25 28 32 37 38 40 44 45 52 62 68 69 72 72 74 80 85 88 90 89 87 86 82 80 78 78 77 71 66 67 73 72 65 64 62 57 60 60 54 56 55 61
27 21 15 18 19 22 26 29 32 37 40 42 44 40 43 47 55 64 67 74 79 78 82 82 80 80 84 78 74 71 72 70 70 66 64 64 72 66 62 60 55 51 49 52 54 60 62
28 27 17 15 17 19 21 24 28 31 34 39 44 45 45 38 36 37 48 52 57 64 69 75 76 75 76 73 67 66 64 61 59 61 61 59 57 55 53 53 51 52 54 53 56 57 61
23 28 27 16 15 16 18 20 22 24 29 32 36 42 45 46 49 53 55 50 49 47 46 48 52 53 57 57 58 59 54 55 51 50 52 52 55 59 53 50 51 51 54 52 56 52 56
32 28 29 25 15 14 15 17 19 21 23 25 30 32 34 35 44 50 52 55 58 60 61 61 59 55 52 52 54 54 55 55 56 58 57 54 57 60 54 52 53 54 49 48 46 47 48
33 35 33 30 25 14 13 15 16 18 20 23 25 28 26 27 29 31 34 37 39 40 43 47 51 53 53 53 52 55 54 53 52 51 49 46 47 42 37 31 38 42 38 40 43 49 43
35 36 38 37 31 28 15 13 14 15 18 21 21 25 27 28 26 26 26 27 28 28 28 29 29 30 31 33 33 35 36 36 36 36 35 33 34 36 33 32 33 32 32 37 41 36 41
33 36 37 40 40 32 32 17 12 13 15 18 19 21 22 24 26 26 25 26 25 25 24 23 23 25 24 25 24 27 27 28 28 33 32 32 32 33 35 28 32 35 32 33 35 38 39
31 32 35 36 39 42 33 36 22 12 13 15 17 19 19 23 24 25 26 26 26 27 26 26 26 25 26 24 24 24 25 26 27 32 35 36 38 38 37 30 33 29 28 27 29 28 28
32 32 32 33 37 40 45 36 36 30 14 12 14 17 19 20 23 23 23 24 25 26 27 27 26 26 25 27 24 25 27 28 29 32 35 38 39 42 45 36 26 16 19 21 24 22 22
32 33 33 33 35 39 40 46 41 37 37 23 17 15 15 18 19 21 21 22 22 22 23 24 25 25 25 24 26 26 32 34 37 37 37 38 40 43 46 46 26 15 19 21 21 15 16
32 34 34 35 33 36 40 42 45 46 42 38 33 21 20 20 19 20 20 20 20 20 21 22 23 23 22 25 26 24 22 26 33 38 38 39 41 42 46 44 24 13 17 19 18 15 12
34 34 35 37 37 37 40 41 46 46 47 49 47 43 35 24 20 21 22 23 21 22 23 22 23 26 24 26 27 28 28 25 28 31 39 43 45 48 50 50 36 22 18 19 18 14 16
37 38 37 39 40 41 42 45 44 48 49 48 47 48 50 49 46 41 36 28 25 24 23 23 24 26 29 29 29 29 31 29 29 26 33 36 43 46 48 52 37 19 20 19 17 16 18
42 42 40 41 44 45 44 46 49 48 48 52 51 50 47 46 47 46 48 47 45 36 32 31 28 26 25 30 31 30 30 32 29 25 28 31 29 32 33 29 20 21 20 20 21 22 21

GFSGBSN_prec_cthk_120.txt.gz
RH
23 27 34 42 56 55 49 39 34 55 71 73 51 37 41 45 65 85 94 97 97 98 98 91 79 70 91 96 98 99 84 69 53 49 42 39 38 37 36 33 33 34 34 33 31 30 29
26 29 34 44 53 56 51 39 31 57 65 56 42 38 40 42 52 69 83 91 93 93 90 90 86 82 97 98 99 98 92 61 54 50 47 40 38 34 34 35 35 37 36 35 33 31 29
30 33 37 44 54 57 55 43 28 50 52 46 40 46 49 64 68 67 76 87 92 85 78 76 94 89 97 98 98 96 87 67 54 51 47 38 34 32 34 35 35 35 36 34 32 29 28
29 32 36 42 53 56 52 46 34 30 44 43 42 45 53 73 74 72 67 81 88 78 72 66 85 93 87 95 95 93 87 77 62 55 48 38 32 30 33 32 31 32 31 28 28 25 23
23 31 34 42 49 54 53 47 43 28 26 32 38 40 48 68 78 78 84 83 81 71 66 71 78 95 93 98 95 95 86 77 66 56 47 39 32 31 30 31 32 28 28 25 23 21 20
23 27 32 41 47 51 53 48 46 39 32 31 35 40 47 61 71 74 79 76 76 68 60 68 78 88 90 93 93 97 85 77 65 58 49 39 34 32 31 28 32 25 28 23 22 21 20
22 25 28 36 44 49 53 50 47 47 47 43 45 55 64 61 69 71 71 71 70 71 69 81 80 87 95 92 91 96 85 76 68 60 53 43 42 39 33 29 24 26 24 24 25 23 23
22 23 26 30 40 45 50 51 48 49 50 53 63 66 73 65 61 68 70 69 70 70 70 78 77 83 97 94 96 94 89 74 64 60 53 47 47 39 35 31 29 28 28 31 29 25 25
20 21 25 27 32 43 45 47 49 47 54 54 60 66 71 76 80 81 82 78 78 69 73 81 94 88 91 94 97 94 87 77 68 56 46 46 43 38 35 35 33 33 30 29 27 27 27
19 20 23 26 30 35 39 41 50 53 52 57 63 65 67 74 83 89 89 83 77 78 81 91 92 94 96 93 92 86 83 78 70 65 49 45 38 35 34 34 30 29 31 31 30 28 27
19 19 22 25 28 34 38 38 42 54 60 60 64 68 70 72 75 81 82 80 79 78 88 97 96 92 94 94 94 95 84 73 69 65 51 49 40 35 34 33 30 33 32 33 34 38 38
18 20 22 24 27 31 37 39 38 43 57 64 66 66 68 71 74 75 77 73 69 72 95 98 94 93 93 90 87 84 81 70 66 62 55 50 42 37 35 36 34 35 37 38 42 43 44
16 19 21 23 26 29 33 40 42 39 43 57 66 68 70 69 71 75 76 74 74 85 97 99 95 94 89 88 82 79 75 75 69 61 66 56 49 42 39 39 39 39 43 45 41 51 48
25 16 20 21 25 28 29 34 40 45 44 44 52 66 69 69 67 69 70 70 77 92 96 97 95 88 85 83 83 78 78 79 71 65 68 59 52 51 48 47 47 50 48 50 33 55 61
27 23 16 20 21 26 28 30 32 39 44 47 43 47 56 67 71 71 71 75 84 90 93 95 89 87 82 79 79 81 84 79 71 64 61 68 68 58 58 55 53 58 58 56 61 63 62
22 27 20 16 20 21 23 27 30 31 36 42 47 46 44 44 52 65 70 76 79 80 84 82 79 80 83 80 77 73 76 77 76 69 66 65 74 64 62 59 58 58 58 59 57 53 55
20 25 28 17 16 18 19 21 24 26 31 35 40 45 47 47 42 39 51 62 72 77 78 79 71 66 70 70 68 68 68 69 70 69 66 64 63 66 61 61 61 60 56 52 53 54 57
31 22 28 28 15 14 16 18 19 22 23 27 33 37 39 43 47 54 58 51 47 50 58 65 64 61 60 60 64 65 61 61 58 60 61 59 60 65 56 51 49 47 50 51 55 50 56
34 36 26 29 29 16 14 15 16 18 20 22 27 30 31 32 39 43 46 51 57 58 53 48 49 49 49 51 55 56 55 53 53 52 53 52 53 56 50 48 50 53 50 49 49 50 52
35 37 38 31 30 31 19 13 15 16 18 21 23 27 26 27 30 33 34 34 36 38 42 48 52 52 50 50 50 53 54 54 54 53 52 48 50 46 39 34 43 48 44 43 43 50 42
32 35 37 37 35 32 34 23 12 15 18 20 19 24 25 27 27 29 29 29 30 29 29 29 29 30 32 33 34 38 39 41 40 40 38 34 32 36 32 31 31 31 31 36 40 36 41
30 31 34 36 36 37 34 36 29 13 15 19 19 21 21 23 24 24 25 28 27 27 26 25 24 25 25 25 25 26 29 29 29 33 32 32 30 33 33 28 32 35 32 33 37 38 39
30 30 31 32 36 36 38 38 37 34 18 15 17 19 19 23 24 23 23 24 25 26 26 25 25 25 25 26 26 26 27 28 29 32 35 35 36 37 36 30 34 30 28 31 32 32 30
28 30 31 33 35 36 36 39 40 38 39 28 16 18 20 19 23 23 22 23 24 24 24 26 26 25 25 27 26 26 28 29 30 34 37 40 39 42 46 36 22 15 19 22 27 23 24
27 29 33 34 34 35 34 37 39 41 38 40 37 23 18 20 22 22 22 22 22 23 22 22 23 24 26 25 26 26 31 35 39 37 37 37 40 43 46 44 23 16 21 22 21 15 17
29 29 32 34 36 36 38 36 39 41 43 44 41 41 34 22 18 22 24 24 25 22 22 24 25 26 24 25 25 22 20 25 35 38 40 41 43 43 47 42 20 13 17 20 20 15 15
32 32 33 34 36 37 39 41 39 41 42 45 46 46 48 48 40 34 25 23 23 24 24 26 27 27 27 27 26 27 27 26 28 33 42 43 44 47 49 48 35 23 20 20 17 16 19
35 34 35 37 39 39 39 43 43 42 43 43 46 48 46 46 48 50 48 48 45 37 26 23 26 28 29 28 29 30 30 29 29 27 36 39 45 47 47 52 33 21 23 23 23 25 28
39 38 40 41 41 41 43 43 44 44 45 45 46 47 50 49 46 46 46 47 47 47 41 40 42 44 39 35 37 37 38 41 37 31 35 40 40 43 45 40 31 32 36 37 37 36 36